<?xml version="1.0" encoding="UTF-8" standalone="no" ?>
<gpx xmlns="http://www.topografix.com/GPX/1/1" xmlns:xsi="http://www.w3.org/2001/XMLSchema-instance" xsi:schemaLocation="http://www.topografix.com/GPX/1/1 http://www.topografix.com/GPX/1/1/gpx.xsd" version="1.1" creator="VisuGPX - https://www.visugpx.com">
  <metadata>
    <name>Tête de Lapraz en Dévoluy</name>
    <desc><![CDATA[Une "bavante" compte tenu de rythme du groupe...]]></desc>
  </metadata>
  <trk>
    <name><![CDATA[2020-09-17 16-36-38]]></name>
    <trkseg>
      <trkpt lat="44.73219" lon="5.89632">
        <ele>1040.28</ele>
        <time>2020-09-17T07:11:37Z</time>
      </trkpt>
      <trkpt lat="44.73219" lon="5.89632">
        <ele>1041.73</ele>
        <time>2020-09-17T07:11:38Z</time>
      </trkpt>
      <trkpt lat="44.73219" lon="5.89631">
        <ele>1040.28</ele>
        <time>2020-09-17T07:11:42Z</time>
      </trkpt>
      <trkpt lat="44.73219" lon="5.89631">
        <ele>1039.8</ele>
        <time>2020-09-17T07:12:04Z</time>
      </trkpt>
      <trkpt lat="44.73219" lon="5.89631">
        <ele>1042.69</ele>
        <time>2020-09-17T07:12:11Z</time>
      </trkpt>
      <trkpt lat="44.73225" lon="5.89635">
        <ele>1040.76</ele>
        <time>2020-09-17T07:12:39Z</time>
      </trkpt>
      <trkpt lat="44.73222" lon="5.8963">
        <ele>1041.25</ele>
        <time>2020-09-17T07:12:55Z</time>
      </trkpt>
      <trkpt lat="44.73222" lon="5.89628">
        <ele>1040.76</ele>
        <time>2020-09-17T07:13:30Z</time>
      </trkpt>
      <trkpt lat="44.73222" lon="5.8963">
        <ele>1040.76</ele>
        <time>2020-09-17T07:14:01Z</time>
      </trkpt>
      <trkpt lat="44.73222" lon="5.89631">
        <ele>1040.76</ele>
        <time>2020-09-17T07:14:27Z</time>
      </trkpt>
      <trkpt lat="44.73223" lon="5.8963">
        <ele>1040.76</ele>
        <time>2020-09-17T07:14:51Z</time>
      </trkpt>
      <trkpt lat="44.73224" lon="5.89627">
        <ele>1040.76</ele>
        <time>2020-09-17T07:15:03Z</time>
      </trkpt>
      <trkpt lat="44.73225" lon="5.89627">
        <ele>1040.76</ele>
        <time>2020-09-17T07:15:21Z</time>
      </trkpt>
      <trkpt lat="44.73228" lon="5.89629">
        <ele>1040.76</ele>
        <time>2020-09-17T07:15:39Z</time>
      </trkpt>
      <trkpt lat="44.73225" lon="5.89627">
        <ele>1040.76</ele>
        <time>2020-09-17T07:16:24Z</time>
      </trkpt>
      <trkpt lat="44.73224" lon="5.89622">
        <ele>1040.76</ele>
        <time>2020-09-17T07:16:37Z</time>
      </trkpt>
      <trkpt lat="44.73224" lon="5.89621">
        <ele>1040.76</ele>
        <time>2020-09-17T07:16:59Z</time>
      </trkpt>
      <trkpt lat="44.73224" lon="5.89622">
        <ele>1040.76</ele>
        <time>2020-09-17T07:17:14Z</time>
      </trkpt>
      <trkpt lat="44.73221" lon="5.89623">
        <ele>1040.76</ele>
        <time>2020-09-17T07:17:22Z</time>
      </trkpt>
      <trkpt lat="44.7322" lon="5.89623">
        <ele>1040.76</ele>
        <time>2020-09-17T07:17:23Z</time>
      </trkpt>
      <trkpt lat="44.73219" lon="5.89624">
        <ele>1040.76</ele>
        <time>2020-09-17T07:17:24Z</time>
      </trkpt>
      <trkpt lat="44.73217" lon="5.89624">
        <ele>1040.76</ele>
        <time>2020-09-17T07:17:27Z</time>
      </trkpt>
      <trkpt lat="44.73214" lon="5.89623">
        <ele>1040.76</ele>
        <time>2020-09-17T07:17:30Z</time>
      </trkpt>
      <trkpt lat="44.73204" lon="5.89614">
        <ele>1041.73</ele>
        <time>2020-09-17T07:17:44Z</time>
      </trkpt>
      <trkpt lat="44.73208" lon="5.89608">
        <ele>1042.21</ele>
        <time>2020-09-17T07:17:51Z</time>
      </trkpt>
      <trkpt lat="44.73209" lon="5.89608">
        <ele>1042.69</ele>
        <time>2020-09-17T07:17:52Z</time>
      </trkpt>
      <trkpt lat="44.73214" lon="5.89606">
        <ele>1043.17</ele>
        <time>2020-09-17T07:18:08Z</time>
      </trkpt>
      <trkpt lat="44.73215" lon="5.89605">
        <ele>1043.17</ele>
        <time>2020-09-17T07:18:27Z</time>
      </trkpt>
      <trkpt lat="44.73215" lon="5.89605">
        <ele>1042.69</ele>
        <time>2020-09-17T07:18:42Z</time>
      </trkpt>
      <trkpt lat="44.73219" lon="5.896">
        <ele>1042.21</ele>
        <time>2020-09-17T07:19:03Z</time>
      </trkpt>
      <trkpt lat="44.73228" lon="5.89593">
        <ele>1043.65</ele>
        <time>2020-09-17T07:19:17Z</time>
      </trkpt>
      <trkpt lat="44.7324" lon="5.89581">
        <ele>1045.57</ele>
        <time>2020-09-17T07:19:33Z</time>
      </trkpt>
      <trkpt lat="44.73249" lon="5.8957">
        <ele>1047.01</ele>
        <time>2020-09-17T07:19:50Z</time>
      </trkpt>
      <trkpt lat="44.73251" lon="5.89565">
        <ele>1047.01</ele>
        <time>2020-09-17T07:20:14Z</time>
      </trkpt>
      <trkpt lat="44.73251" lon="5.89563">
        <ele>1047.01</ele>
        <time>2020-09-17T07:20:15Z</time>
      </trkpt>
      <trkpt lat="44.73251" lon="5.89561">
        <ele>1047.01</ele>
        <time>2020-09-17T07:20:16Z</time>
      </trkpt>
      <trkpt lat="44.73267" lon="5.89524">
        <ele>1048.94</ele>
        <time>2020-09-17T07:20:42Z</time>
      </trkpt>
      <trkpt lat="44.73282" lon="5.89508">
        <ele>1050.86</ele>
        <time>2020-09-17T07:20:57Z</time>
      </trkpt>
      <trkpt lat="44.73285" lon="5.89507">
        <ele>1050.86</ele>
        <time>2020-09-17T07:20:59Z</time>
      </trkpt>
      <trkpt lat="44.73307" lon="5.89499">
        <ele>1052.3</ele>
        <time>2020-09-17T07:21:16Z</time>
      </trkpt>
      <trkpt lat="44.73328" lon="5.89484">
        <ele>1054.22</ele>
        <time>2020-09-17T07:21:33Z</time>
      </trkpt>
      <trkpt lat="44.73345" lon="5.89462">
        <ele>1055.67</ele>
        <time>2020-09-17T07:21:51Z</time>
      </trkpt>
      <trkpt lat="44.73365" lon="5.89448">
        <ele>1057.11</ele>
        <time>2020-09-17T07:22:08Z</time>
      </trkpt>
      <trkpt lat="44.73385" lon="5.89422">
        <ele>1058.55</ele>
        <time>2020-09-17T07:22:29Z</time>
      </trkpt>
      <trkpt lat="44.73394" lon="5.89397">
        <ele>1059.51</ele>
        <time>2020-09-17T07:22:46Z</time>
      </trkpt>
      <trkpt lat="44.73394" lon="5.89395">
        <ele>1059.51</ele>
        <time>2020-09-17T07:22:47Z</time>
      </trkpt>
      <trkpt lat="44.73394" lon="5.89393">
        <ele>1059.99</ele>
        <time>2020-09-17T07:22:48Z</time>
      </trkpt>
      <trkpt lat="44.73396" lon="5.89368">
        <ele>1060.95</ele>
        <time>2020-09-17T07:23:03Z</time>
      </trkpt>
      <trkpt lat="44.73403" lon="5.89343">
        <ele>1061.43</ele>
        <time>2020-09-17T07:23:19Z</time>
      </trkpt>
      <trkpt lat="44.73423" lon="5.89318">
        <ele>1062.87</ele>
        <time>2020-09-17T07:23:40Z</time>
      </trkpt>
      <trkpt lat="44.73434" lon="5.89304">
        <ele>1063.84</ele>
        <time>2020-09-17T07:23:52Z</time>
      </trkpt>
      <trkpt lat="44.73435" lon="5.89302">
        <ele>1063.84</ele>
        <time>2020-09-17T07:23:54Z</time>
      </trkpt>
      <trkpt lat="44.73439" lon="5.89298">
        <ele>1063.84</ele>
        <time>2020-09-17T07:23:58Z</time>
      </trkpt>
      <trkpt lat="44.7344" lon="5.89298">
        <ele>1064.32</ele>
        <time>2020-09-17T07:23:59Z</time>
      </trkpt>
      <trkpt lat="44.73441" lon="5.89297">
        <ele>1064.32</ele>
        <time>2020-09-17T07:24:00Z</time>
      </trkpt>
      <trkpt lat="44.73442" lon="5.89296">
        <ele>1064.32</ele>
        <time>2020-09-17T07:24:01Z</time>
      </trkpt>
      <trkpt lat="44.73443" lon="5.89295">
        <ele>1064.32</ele>
        <time>2020-09-17T07:24:02Z</time>
      </trkpt>
      <trkpt lat="44.73444" lon="5.89294">
        <ele>1064.32</ele>
        <time>2020-09-17T07:24:03Z</time>
      </trkpt>
      <trkpt lat="44.73445" lon="5.89293">
        <ele>1064.8</ele>
        <time>2020-09-17T07:24:04Z</time>
      </trkpt>
      <trkpt lat="44.73446" lon="5.89293">
        <ele>1064.8</ele>
        <time>2020-09-17T07:24:05Z</time>
      </trkpt>
      <trkpt lat="44.73454" lon="5.89284">
        <ele>1065.28</ele>
        <time>2020-09-17T07:24:14Z</time>
      </trkpt>
      <trkpt lat="44.73455" lon="5.89283">
        <ele>1065.28</ele>
        <time>2020-09-17T07:24:15Z</time>
      </trkpt>
      <trkpt lat="44.73462" lon="5.89274">
        <ele>1066.24</ele>
        <time>2020-09-17T07:24:28Z</time>
      </trkpt>
      <trkpt lat="44.73464" lon="5.89269">
        <ele>1066.72</ele>
        <time>2020-09-17T07:24:34Z</time>
      </trkpt>
      <trkpt lat="44.73465" lon="5.89263">
        <ele>1066.72</ele>
        <time>2020-09-17T07:24:39Z</time>
      </trkpt>
      <trkpt lat="44.73466" lon="5.89251">
        <ele>1067.2</ele>
        <time>2020-09-17T07:24:46Z</time>
      </trkpt>
      <trkpt lat="44.73466" lon="5.89247">
        <ele>1067.2</ele>
        <time>2020-09-17T07:24:49Z</time>
      </trkpt>
      <trkpt lat="44.73468" lon="5.89213">
        <ele>1069.6</ele>
        <time>2020-09-17T07:25:09Z</time>
      </trkpt>
      <trkpt lat="44.73466" lon="5.89201">
        <ele>1070.57</ele>
        <time>2020-09-17T07:25:17Z</time>
      </trkpt>
      <trkpt lat="44.73464" lon="5.89198">
        <ele>1070.57</ele>
        <time>2020-09-17T07:25:19Z</time>
      </trkpt>
      <trkpt lat="44.73462" lon="5.89205">
        <ele>1071.53</ele>
        <time>2020-09-17T07:25:25Z</time>
      </trkpt>
      <trkpt lat="44.73462" lon="5.89206">
        <ele>1071.53</ele>
        <time>2020-09-17T07:25:26Z</time>
      </trkpt>
      <trkpt lat="44.73462" lon="5.89209">
        <ele>1071.53</ele>
        <time>2020-09-17T07:25:27Z</time>
      </trkpt>
      <trkpt lat="44.73461" lon="5.8921">
        <ele>1072.01</ele>
        <time>2020-09-17T07:25:28Z</time>
      </trkpt>
      <trkpt lat="44.73461" lon="5.89213">
        <ele>1072.01</ele>
        <time>2020-09-17T07:25:29Z</time>
      </trkpt>
      <trkpt lat="44.73455" lon="5.8924">
        <ele>1073.45</ele>
        <time>2020-09-17T07:25:45Z</time>
      </trkpt>
      <trkpt lat="44.7344" lon="5.89256">
        <ele>1073.45</ele>
        <time>2020-09-17T07:26:01Z</time>
      </trkpt>
      <trkpt lat="44.73437" lon="5.89256">
        <ele>1073.45</ele>
        <time>2020-09-17T07:26:04Z</time>
      </trkpt>
      <trkpt lat="44.73434" lon="5.89256">
        <ele>1073.45</ele>
        <time>2020-09-17T07:26:07Z</time>
      </trkpt>
      <trkpt lat="44.73423" lon="5.89256">
        <ele>1073.93</ele>
        <time>2020-09-17T07:26:22Z</time>
      </trkpt>
      <trkpt lat="44.73428" lon="5.8924">
        <ele>1076.33</ele>
        <time>2020-09-17T07:26:41Z</time>
      </trkpt>
      <trkpt lat="44.73431" lon="5.89227">
        <ele>1079.22</ele>
        <time>2020-09-17T07:26:57Z</time>
      </trkpt>
      <trkpt lat="44.73433" lon="5.89207">
        <ele>1082.1</ele>
        <time>2020-09-17T07:27:14Z</time>
      </trkpt>
      <trkpt lat="44.73433" lon="5.89187">
        <ele>1084.99</ele>
        <time>2020-09-17T07:27:32Z</time>
      </trkpt>
      <trkpt lat="44.73437" lon="5.89162">
        <ele>1088.35</ele>
        <time>2020-09-17T07:27:49Z</time>
      </trkpt>
      <trkpt lat="44.7345" lon="5.89146">
        <ele>1091.71</ele>
        <time>2020-09-17T07:28:06Z</time>
      </trkpt>
      <trkpt lat="44.73461" lon="5.89125">
        <ele>1094.6</ele>
        <time>2020-09-17T07:28:34Z</time>
      </trkpt>
      <trkpt lat="44.73452" lon="5.89113">
        <ele>1097.48</ele>
        <time>2020-09-17T07:28:55Z</time>
      </trkpt>
      <trkpt lat="44.73448" lon="5.891">
        <ele>1100.37</ele>
        <time>2020-09-17T07:29:09Z</time>
      </trkpt>
      <trkpt lat="44.73451" lon="5.89081">
        <ele>1103.73</ele>
        <time>2020-09-17T07:29:27Z</time>
      </trkpt>
      <trkpt lat="44.73454" lon="5.8905">
        <ele>1106.61</ele>
        <time>2020-09-17T07:29:49Z</time>
      </trkpt>
      <trkpt lat="44.73456" lon="5.89016">
        <ele>1109.98</ele>
        <time>2020-09-17T07:30:13Z</time>
      </trkpt>
      <trkpt lat="44.73478" lon="5.89002">
        <ele>1110.94</ele>
        <time>2020-09-17T07:30:37Z</time>
      </trkpt>
      <trkpt lat="44.73489" lon="5.88983">
        <ele>1113.82</ele>
        <time>2020-09-17T07:30:57Z</time>
      </trkpt>
      <trkpt lat="44.73493" lon="5.88968">
        <ele>1117.19</ele>
        <time>2020-09-17T07:31:12Z</time>
      </trkpt>
      <trkpt lat="44.73503" lon="5.88959">
        <ele>1120.07</ele>
        <time>2020-09-17T07:31:29Z</time>
      </trkpt>
      <trkpt lat="44.73512" lon="5.88944">
        <ele>1123.44</ele>
        <time>2020-09-17T07:31:50Z</time>
      </trkpt>
      <trkpt lat="44.73513" lon="5.88928">
        <ele>1126.32</ele>
        <time>2020-09-17T07:32:06Z</time>
      </trkpt>
      <trkpt lat="44.73519" lon="5.8891">
        <ele>1129.21</ele>
        <time>2020-09-17T07:32:24Z</time>
      </trkpt>
      <trkpt lat="44.73529" lon="5.889">
        <ele>1132.57</ele>
        <time>2020-09-17T07:32:42Z</time>
      </trkpt>
      <trkpt lat="44.73542" lon="5.88885">
        <ele>1134.97</ele>
        <time>2020-09-17T07:33:01Z</time>
      </trkpt>
      <trkpt lat="44.73548" lon="5.88868">
        <ele>1138.34</ele>
        <time>2020-09-17T07:33:17Z</time>
      </trkpt>
      <trkpt lat="44.73551" lon="5.88847">
        <ele>1141.22</ele>
        <time>2020-09-17T07:33:35Z</time>
      </trkpt>
      <trkpt lat="44.73546" lon="5.88816">
        <ele>1144.59</ele>
        <time>2020-09-17T07:33:56Z</time>
      </trkpt>
      <trkpt lat="44.73546" lon="5.88814">
        <ele>1144.59</ele>
        <time>2020-09-17T07:33:57Z</time>
      </trkpt>
      <trkpt lat="44.73542" lon="5.88796">
        <ele>1145.55</ele>
        <time>2020-09-17T07:34:07Z</time>
      </trkpt>
      <trkpt lat="44.73544" lon="5.88771">
        <ele>1146.03</ele>
        <time>2020-09-17T07:34:23Z</time>
      </trkpt>
      <trkpt lat="44.73544" lon="5.8874">
        <ele>1148.91</ele>
        <time>2020-09-17T07:34:43Z</time>
      </trkpt>
      <trkpt lat="44.73551" lon="5.88709">
        <ele>1151.8</ele>
        <time>2020-09-17T07:35:07Z</time>
      </trkpt>
      <trkpt lat="44.73571" lon="5.88702">
        <ele>1153.72</ele>
        <time>2020-09-17T07:35:28Z</time>
      </trkpt>
      <trkpt lat="44.73579" lon="5.88701">
        <ele>1155.16</ele>
        <time>2020-09-17T07:35:43Z</time>
      </trkpt>
      <trkpt lat="44.73579" lon="5.88701">
        <ele>1155.16</ele>
        <time>2020-09-17T07:36:07Z</time>
      </trkpt>
      <trkpt lat="44.7358" lon="5.88701">
        <ele>1154.68</ele>
        <time>2020-09-17T07:36:27Z</time>
      </trkpt>
      <trkpt lat="44.7358" lon="5.887">
        <ele>1154.2</ele>
        <time>2020-09-17T07:36:53Z</time>
      </trkpt>
      <trkpt lat="44.73579" lon="5.887">
        <ele>1154.2</ele>
        <time>2020-09-17T07:37:25Z</time>
      </trkpt>
      <trkpt lat="44.73576" lon="5.887">
        <ele>1154.2</ele>
        <time>2020-09-17T07:37:33Z</time>
      </trkpt>
      <trkpt lat="44.73573" lon="5.88701">
        <ele>1153.72</ele>
        <time>2020-09-17T07:37:37Z</time>
      </trkpt>
      <trkpt lat="44.7357" lon="5.88701">
        <ele>1153.24</ele>
        <time>2020-09-17T07:37:40Z</time>
      </trkpt>
      <trkpt lat="44.73561" lon="5.88701">
        <ele>1151.8</ele>
        <time>2020-09-17T07:37:53Z</time>
      </trkpt>
      <trkpt lat="44.73554" lon="5.88704">
        <ele>1151.8</ele>
        <time>2020-09-17T07:38:04Z</time>
      </trkpt>
      <trkpt lat="44.73549" lon="5.88707">
        <ele>1151.32</ele>
        <time>2020-09-17T07:38:10Z</time>
      </trkpt>
      <trkpt lat="44.73543" lon="5.88717">
        <ele>1151.32</ele>
        <time>2020-09-17T07:38:18Z</time>
      </trkpt>
      <trkpt lat="44.73536" lon="5.88735">
        <ele>1151.8</ele>
        <time>2020-09-17T07:38:35Z</time>
      </trkpt>
      <trkpt lat="44.73535" lon="5.88739">
        <ele>1153.24</ele>
        <time>2020-09-17T07:38:51Z</time>
      </trkpt>
      <trkpt lat="44.73526" lon="5.88737">
        <ele>1155.16</ele>
        <time>2020-09-17T07:39:19Z</time>
      </trkpt>
      <trkpt lat="44.73525" lon="5.88719">
        <ele>1158.05</ele>
        <time>2020-09-17T07:39:36Z</time>
      </trkpt>
      <trkpt lat="44.73521" lon="5.88703">
        <ele>1160.93</ele>
        <time>2020-09-17T07:39:56Z</time>
      </trkpt>
      <trkpt lat="44.73512" lon="5.88694">
        <ele>1164.29</ele>
        <time>2020-09-17T07:40:14Z</time>
      </trkpt>
      <trkpt lat="44.73508" lon="5.88685">
        <ele>1167.18</ele>
        <time>2020-09-17T07:40:29Z</time>
      </trkpt>
      <trkpt lat="44.73513" lon="5.88664">
        <ele>1170.54</ele>
        <time>2020-09-17T07:40:47Z</time>
      </trkpt>
      <trkpt lat="44.7351" lon="5.88646">
        <ele>1173.91</ele>
        <time>2020-09-17T07:41:02Z</time>
      </trkpt>
      <trkpt lat="44.73513" lon="5.88623">
        <ele>1176.79</ele>
        <time>2020-09-17T07:41:18Z</time>
      </trkpt>
      <trkpt lat="44.73511" lon="5.88598">
        <ele>1180.16</ele>
        <time>2020-09-17T07:41:38Z</time>
      </trkpt>
      <trkpt lat="44.73512" lon="5.88581">
        <ele>1182.08</ele>
        <time>2020-09-17T07:41:51Z</time>
      </trkpt>
      <trkpt lat="44.73512" lon="5.88579">
        <ele>1182.56</ele>
        <time>2020-09-17T07:41:52Z</time>
      </trkpt>
      <trkpt lat="44.73515" lon="5.88549">
        <ele>1184</ele>
        <time>2020-09-17T07:42:09Z</time>
      </trkpt>
      <trkpt lat="44.73517" lon="5.88539">
        <ele>1184</ele>
        <time>2020-09-17T07:42:15Z</time>
      </trkpt>
      <trkpt lat="44.73517" lon="5.88538">
        <ele>1184</ele>
        <time>2020-09-17T07:42:16Z</time>
      </trkpt>
      <trkpt lat="44.73518" lon="5.88536">
        <ele>1184</ele>
        <time>2020-09-17T07:42:17Z</time>
      </trkpt>
      <trkpt lat="44.73518" lon="5.88535">
        <ele>1184</ele>
        <time>2020-09-17T07:42:18Z</time>
      </trkpt>
      <trkpt lat="44.73519" lon="5.88533">
        <ele>1184</ele>
        <time>2020-09-17T07:42:19Z</time>
      </trkpt>
      <trkpt lat="44.73532" lon="5.88517">
        <ele>1185.92</ele>
        <time>2020-09-17T07:42:35Z</time>
      </trkpt>
      <trkpt lat="44.7355" lon="5.88513">
        <ele>1188.33</ele>
        <time>2020-09-17T07:42:51Z</time>
      </trkpt>
      <trkpt lat="44.7357" lon="5.88516">
        <ele>1188.81</ele>
        <time>2020-09-17T07:43:07Z</time>
      </trkpt>
      <trkpt lat="44.73592" lon="5.88527">
        <ele>1188.33</ele>
        <time>2020-09-17T07:43:24Z</time>
      </trkpt>
      <trkpt lat="44.73609" lon="5.88523">
        <ele>1187.85</ele>
        <time>2020-09-17T07:43:40Z</time>
      </trkpt>
      <trkpt lat="44.73619" lon="5.88514">
        <ele>1189.29</ele>
        <time>2020-09-17T07:43:51Z</time>
      </trkpt>
      <trkpt lat="44.73631" lon="5.88498">
        <ele>1192.17</ele>
        <time>2020-09-17T07:44:09Z</time>
      </trkpt>
      <trkpt lat="44.73641" lon="5.88485">
        <ele>1195.54</ele>
        <time>2020-09-17T07:44:26Z</time>
      </trkpt>
      <trkpt lat="44.7365" lon="5.88475">
        <ele>1198.42</ele>
        <time>2020-09-17T07:44:40Z</time>
      </trkpt>
      <trkpt lat="44.73658" lon="5.88461">
        <ele>1201.79</ele>
        <time>2020-09-17T07:44:54Z</time>
      </trkpt>
      <trkpt lat="44.73663" lon="5.88447">
        <ele>1204.67</ele>
        <time>2020-09-17T07:45:09Z</time>
      </trkpt>
      <trkpt lat="44.7367" lon="5.88436">
        <ele>1208.03</ele>
        <time>2020-09-17T07:45:24Z</time>
      </trkpt>
      <trkpt lat="44.7368" lon="5.88422">
        <ele>1210.92</ele>
        <time>2020-09-17T07:45:41Z</time>
      </trkpt>
      <trkpt lat="44.73685" lon="5.88414">
        <ele>1212.36</ele>
        <time>2020-09-17T07:45:50Z</time>
      </trkpt>
      <trkpt lat="44.73692" lon="5.88399">
        <ele>1215.72</ele>
        <time>2020-09-17T07:46:06Z</time>
      </trkpt>
      <trkpt lat="44.737" lon="5.88384">
        <ele>1218.61</ele>
        <time>2020-09-17T07:46:21Z</time>
      </trkpt>
      <trkpt lat="44.73709" lon="5.88372">
        <ele>1221.49</ele>
        <time>2020-09-17T07:46:35Z</time>
      </trkpt>
      <trkpt lat="44.73718" lon="5.88359">
        <ele>1223.9</ele>
        <time>2020-09-17T07:46:50Z</time>
      </trkpt>
      <trkpt lat="44.73728" lon="5.88345">
        <ele>1226.78</ele>
        <time>2020-09-17T07:47:06Z</time>
      </trkpt>
      <trkpt lat="44.73732" lon="5.88328">
        <ele>1229.66</ele>
        <time>2020-09-17T07:47:21Z</time>
      </trkpt>
      <trkpt lat="44.73732" lon="5.88319">
        <ele>1230.62</ele>
        <time>2020-09-17T07:47:29Z</time>
      </trkpt>
      <trkpt lat="44.73732" lon="5.88318">
        <ele>1231.11</ele>
        <time>2020-09-17T07:47:30Z</time>
      </trkpt>
      <trkpt lat="44.73731" lon="5.88306">
        <ele>1232.55</ele>
        <time>2020-09-17T07:47:39Z</time>
      </trkpt>
      <trkpt lat="44.73734" lon="5.88291">
        <ele>1234.95</ele>
        <time>2020-09-17T07:47:51Z</time>
      </trkpt>
      <trkpt lat="44.73738" lon="5.88275">
        <ele>1237.83</ele>
        <time>2020-09-17T07:48:05Z</time>
      </trkpt>
      <trkpt lat="44.73741" lon="5.88254">
        <ele>1240.72</ele>
        <time>2020-09-17T07:48:22Z</time>
      </trkpt>
      <trkpt lat="44.73742" lon="5.88249">
        <ele>1241.2</ele>
        <time>2020-09-17T07:48:26Z</time>
      </trkpt>
      <trkpt lat="44.73742" lon="5.88248">
        <ele>1241.2</ele>
        <time>2020-09-17T07:48:27Z</time>
      </trkpt>
      <trkpt lat="44.73742" lon="5.88233">
        <ele>1244.08</ele>
        <time>2020-09-17T07:48:40Z</time>
      </trkpt>
      <trkpt lat="44.73741" lon="5.88215">
        <ele>1246.49</ele>
        <time>2020-09-17T07:48:54Z</time>
      </trkpt>
      <trkpt lat="44.73742" lon="5.88194">
        <ele>1249.37</ele>
        <time>2020-09-17T07:49:12Z</time>
      </trkpt>
      <trkpt lat="44.73742" lon="5.88173">
        <ele>1251.77</ele>
        <time>2020-09-17T07:49:29Z</time>
      </trkpt>
      <trkpt lat="44.73741" lon="5.88154">
        <ele>1255.14</ele>
        <time>2020-09-17T07:49:43Z</time>
      </trkpt>
      <trkpt lat="44.73742" lon="5.88146">
        <ele>1256.1</ele>
        <time>2020-09-17T07:49:50Z</time>
      </trkpt>
      <trkpt lat="44.73742" lon="5.88139">
        <ele>1257.06</ele>
        <time>2020-09-17T07:49:55Z</time>
      </trkpt>
      <trkpt lat="44.73745" lon="5.88124">
        <ele>1260.43</ele>
        <time>2020-09-17T07:50:09Z</time>
      </trkpt>
      <trkpt lat="44.73749" lon="5.88109">
        <ele>1262.83</ele>
        <time>2020-09-17T07:50:24Z</time>
      </trkpt>
      <trkpt lat="44.7375" lon="5.88093">
        <ele>1265.23</ele>
        <time>2020-09-17T07:50:38Z</time>
      </trkpt>
      <trkpt lat="44.73752" lon="5.88078">
        <ele>1268.12</ele>
        <time>2020-09-17T07:50:52Z</time>
      </trkpt>
      <trkpt lat="44.73757" lon="5.88061">
        <ele>1271</ele>
        <time>2020-09-17T07:51:08Z</time>
      </trkpt>
      <trkpt lat="44.73763" lon="5.88048">
        <ele>1274.36</ele>
        <time>2020-09-17T07:51:23Z</time>
      </trkpt>
      <trkpt lat="44.73768" lon="5.88034">
        <ele>1276.29</ele>
        <time>2020-09-17T07:51:38Z</time>
      </trkpt>
      <trkpt lat="44.73777" lon="5.88018">
        <ele>1279.17</ele>
        <time>2020-09-17T07:51:56Z</time>
      </trkpt>
      <trkpt lat="44.73784" lon="5.88004">
        <ele>1283.02</ele>
        <time>2020-09-17T07:52:11Z</time>
      </trkpt>
      <trkpt lat="44.73793" lon="5.87989">
        <ele>1285.9</ele>
        <time>2020-09-17T07:52:27Z</time>
      </trkpt>
      <trkpt lat="44.738" lon="5.87974">
        <ele>1288.78</ele>
        <time>2020-09-17T07:52:43Z</time>
      </trkpt>
      <trkpt lat="44.73801" lon="5.87969">
        <ele>1289.75</ele>
        <time>2020-09-17T07:52:47Z</time>
      </trkpt>
      <trkpt lat="44.73806" lon="5.87954">
        <ele>1292.63</ele>
        <time>2020-09-17T07:53:02Z</time>
      </trkpt>
      <trkpt lat="44.73811" lon="5.87938">
        <ele>1295.51</ele>
        <time>2020-09-17T07:53:18Z</time>
      </trkpt>
      <trkpt lat="44.7382" lon="5.87924">
        <ele>1298.4</ele>
        <time>2020-09-17T07:53:34Z</time>
      </trkpt>
      <trkpt lat="44.73824" lon="5.87922">
        <ele>1299.84</ele>
        <time>2020-09-17T07:53:38Z</time>
      </trkpt>
      <trkpt lat="44.73839" lon="5.8792">
        <ele>1301.28</ele>
        <time>2020-09-17T07:53:52Z</time>
      </trkpt>
      <trkpt lat="44.73841" lon="5.87918">
        <ele>1301.28</ele>
        <time>2020-09-17T07:53:54Z</time>
      </trkpt>
      <trkpt lat="44.73842" lon="5.87918">
        <ele>1301.76</ele>
        <time>2020-09-17T07:53:55Z</time>
      </trkpt>
      <trkpt lat="44.73845" lon="5.87915">
        <ele>1301.76</ele>
        <time>2020-09-17T07:53:58Z</time>
      </trkpt>
      <trkpt lat="44.73852" lon="5.87897">
        <ele>1304.65</ele>
        <time>2020-09-17T07:54:15Z</time>
      </trkpt>
      <trkpt lat="44.73856" lon="5.8788">
        <ele>1308.01</ele>
        <time>2020-09-17T07:54:32Z</time>
      </trkpt>
      <trkpt lat="44.7386" lon="5.87863">
        <ele>1311.38</ele>
        <time>2020-09-17T07:54:48Z</time>
      </trkpt>
      <trkpt lat="44.73868" lon="5.87846">
        <ele>1314.26</ele>
        <time>2020-09-17T07:55:05Z</time>
      </trkpt>
      <trkpt lat="44.73881" lon="5.87836">
        <ele>1316.66</ele>
        <time>2020-09-17T07:55:21Z</time>
      </trkpt>
      <trkpt lat="44.73896" lon="5.87838">
        <ele>1319.07</ele>
        <time>2020-09-17T07:55:36Z</time>
      </trkpt>
      <trkpt lat="44.73901" lon="5.87838">
        <ele>1319.55</ele>
        <time>2020-09-17T07:55:41Z</time>
      </trkpt>
      <trkpt lat="44.73918" lon="5.87826">
        <ele>1321.95</ele>
        <time>2020-09-17T07:56:00Z</time>
      </trkpt>
      <trkpt lat="44.73916" lon="5.8781">
        <ele>1324.35</ele>
        <time>2020-09-17T07:56:16Z</time>
      </trkpt>
      <trkpt lat="44.73917" lon="5.87793">
        <ele>1327.24</ele>
        <time>2020-09-17T07:56:32Z</time>
      </trkpt>
      <trkpt lat="44.73912" lon="5.87776">
        <ele>1330.6</ele>
        <time>2020-09-17T07:56:50Z</time>
      </trkpt>
      <trkpt lat="44.73906" lon="5.87762">
        <ele>1333.49</ele>
        <time>2020-09-17T07:57:06Z</time>
      </trkpt>
      <trkpt lat="44.73901" lon="5.87746">
        <ele>1336.37</ele>
        <time>2020-09-17T07:57:23Z</time>
      </trkpt>
      <trkpt lat="44.73901" lon="5.87729">
        <ele>1339.25</ele>
        <time>2020-09-17T07:57:38Z</time>
      </trkpt>
      <trkpt lat="44.73907" lon="5.87715">
        <ele>1342.62</ele>
        <time>2020-09-17T07:57:55Z</time>
      </trkpt>
      <trkpt lat="44.73916" lon="5.87706">
        <ele>1345.5</ele>
        <time>2020-09-17T07:58:11Z</time>
      </trkpt>
      <trkpt lat="44.73924" lon="5.87695">
        <ele>1348.39</ele>
        <time>2020-09-17T07:58:26Z</time>
      </trkpt>
      <trkpt lat="44.73933" lon="5.87689">
        <ele>1351.27</ele>
        <time>2020-09-17T07:58:41Z</time>
      </trkpt>
      <trkpt lat="44.73944" lon="5.87676">
        <ele>1354.63</ele>
        <time>2020-09-17T07:58:59Z</time>
      </trkpt>
      <trkpt lat="44.73953" lon="5.87662">
        <ele>1357.52</ele>
        <time>2020-09-17T07:59:16Z</time>
      </trkpt>
      <trkpt lat="44.73953" lon="5.87647">
        <ele>1359.92</ele>
        <time>2020-09-17T07:59:31Z</time>
      </trkpt>
      <trkpt lat="44.73957" lon="5.87629">
        <ele>1363.29</ele>
        <time>2020-09-17T07:59:48Z</time>
      </trkpt>
      <trkpt lat="44.73966" lon="5.87609">
        <ele>1366.17</ele>
        <time>2020-09-17T08:00:07Z</time>
      </trkpt>
      <trkpt lat="44.73975" lon="5.87592">
        <ele>1369.54</ele>
        <time>2020-09-17T08:00:25Z</time>
      </trkpt>
      <trkpt lat="44.73986" lon="5.8758">
        <ele>1372.42</ele>
        <time>2020-09-17T08:00:42Z</time>
      </trkpt>
      <trkpt lat="44.73994" lon="5.87566">
        <ele>1375.3</ele>
        <time>2020-09-17T08:01:00Z</time>
      </trkpt>
      <trkpt lat="44.74009" lon="5.87578">
        <ele>1378.19</ele>
        <time>2020-09-17T08:01:18Z</time>
      </trkpt>
      <trkpt lat="44.74011" lon="5.87582">
        <ele>1379.63</ele>
        <time>2020-09-17T08:01:22Z</time>
      </trkpt>
      <trkpt lat="44.74012" lon="5.87583">
        <ele>1379.63</ele>
        <time>2020-09-17T08:01:23Z</time>
      </trkpt>
      <trkpt lat="44.74026" lon="5.87587">
        <ele>1381.55</ele>
        <time>2020-09-17T08:01:39Z</time>
      </trkpt>
      <trkpt lat="44.74033" lon="5.87585">
        <ele>1382.99</ele>
        <time>2020-09-17T08:01:47Z</time>
      </trkpt>
      <trkpt lat="44.7405" lon="5.87573">
        <ele>1384.92</ele>
        <time>2020-09-17T08:02:05Z</time>
      </trkpt>
      <trkpt lat="44.74061" lon="5.87569">
        <ele>1386.84</ele>
        <time>2020-09-17T08:02:19Z</time>
      </trkpt>
      <trkpt lat="44.74069" lon="5.87567">
        <ele>1388.28</ele>
        <time>2020-09-17T08:02:28Z</time>
      </trkpt>
      <trkpt lat="44.74078" lon="5.87567">
        <ele>1389.24</ele>
        <time>2020-09-17T08:02:37Z</time>
      </trkpt>
      <trkpt lat="44.74079" lon="5.87567">
        <ele>1389.24</ele>
        <time>2020-09-17T08:02:38Z</time>
      </trkpt>
      <trkpt lat="44.7408" lon="5.87567">
        <ele>1389.72</ele>
        <time>2020-09-17T08:02:39Z</time>
      </trkpt>
      <trkpt lat="44.74096" lon="5.87562">
        <ele>1392.13</ele>
        <time>2020-09-17T08:02:58Z</time>
      </trkpt>
      <trkpt lat="44.74109" lon="5.87554">
        <ele>1395.01</ele>
        <time>2020-09-17T08:03:15Z</time>
      </trkpt>
      <trkpt lat="44.74119" lon="5.87546">
        <ele>1397.89</ele>
        <time>2020-09-17T08:03:29Z</time>
      </trkpt>
      <trkpt lat="44.74124" lon="5.87533">
        <ele>1400.3</ele>
        <time>2020-09-17T08:03:42Z</time>
      </trkpt>
      <trkpt lat="44.74128" lon="5.87521">
        <ele>1401.74</ele>
        <time>2020-09-17T08:03:51Z</time>
      </trkpt>
      <trkpt lat="44.74137" lon="5.87508">
        <ele>1403.18</ele>
        <time>2020-09-17T08:04:05Z</time>
      </trkpt>
      <trkpt lat="44.74141" lon="5.87501">
        <ele>1403.66</ele>
        <time>2020-09-17T08:04:12Z</time>
      </trkpt>
      <trkpt lat="44.74154" lon="5.87483">
        <ele>1405.58</ele>
        <time>2020-09-17T08:04:31Z</time>
      </trkpt>
      <trkpt lat="44.74161" lon="5.87472">
        <ele>1406.55</ele>
        <time>2020-09-17T08:04:41Z</time>
      </trkpt>
      <trkpt lat="44.74169" lon="5.87469">
        <ele>1407.99</ele>
        <time>2020-09-17T08:04:51Z</time>
      </trkpt>
      <trkpt lat="44.7417" lon="5.87469">
        <ele>1407.99</ele>
        <time>2020-09-17T08:04:52Z</time>
      </trkpt>
      <trkpt lat="44.74175" lon="5.8747">
        <ele>1408.95</ele>
        <time>2020-09-17T08:04:57Z</time>
      </trkpt>
      <trkpt lat="44.74192" lon="5.87472">
        <ele>1411.35</ele>
        <time>2020-09-17T08:05:15Z</time>
      </trkpt>
      <trkpt lat="44.74204" lon="5.87467">
        <ele>1414.24</ele>
        <time>2020-09-17T08:05:31Z</time>
      </trkpt>
      <trkpt lat="44.74206" lon="5.87459">
        <ele>1415.2</ele>
        <time>2020-09-17T08:05:37Z</time>
      </trkpt>
      <trkpt lat="44.74206" lon="5.87457">
        <ele>1415.2</ele>
        <time>2020-09-17T08:05:38Z</time>
      </trkpt>
      <trkpt lat="44.74206" lon="5.87456">
        <ele>1415.2</ele>
        <time>2020-09-17T08:05:39Z</time>
      </trkpt>
      <trkpt lat="44.74206" lon="5.87453">
        <ele>1415.68</ele>
        <time>2020-09-17T08:05:41Z</time>
      </trkpt>
      <trkpt lat="44.74206" lon="5.87451">
        <ele>1415.68</ele>
        <time>2020-09-17T08:05:42Z</time>
      </trkpt>
      <trkpt lat="44.74209" lon="5.87428">
        <ele>1417.12</ele>
        <time>2020-09-17T08:05:59Z</time>
      </trkpt>
      <trkpt lat="44.74211" lon="5.87425">
        <ele>1417.6</ele>
        <time>2020-09-17T08:06:02Z</time>
      </trkpt>
      <trkpt lat="44.74222" lon="5.87411">
        <ele>1420</ele>
        <time>2020-09-17T08:06:20Z</time>
      </trkpt>
      <trkpt lat="44.74235" lon="5.87413">
        <ele>1423.37</ele>
        <time>2020-09-17T08:06:38Z</time>
      </trkpt>
      <trkpt lat="44.74239" lon="5.87411">
        <ele>1423.85</ele>
        <time>2020-09-17T08:06:42Z</time>
      </trkpt>
      <trkpt lat="44.7424" lon="5.87411">
        <ele>1423.85</ele>
        <time>2020-09-17T08:06:43Z</time>
      </trkpt>
      <trkpt lat="44.74241" lon="5.8741">
        <ele>1423.85</ele>
        <time>2020-09-17T08:06:44Z</time>
      </trkpt>
      <trkpt lat="44.74242" lon="5.87409">
        <ele>1424.33</ele>
        <time>2020-09-17T08:06:45Z</time>
      </trkpt>
      <trkpt lat="44.74244" lon="5.87409">
        <ele>1424.33</ele>
        <time>2020-09-17T08:06:46Z</time>
      </trkpt>
      <trkpt lat="44.74245" lon="5.87408">
        <ele>1424.33</ele>
        <time>2020-09-17T08:06:47Z</time>
      </trkpt>
      <trkpt lat="44.74259" lon="5.87399">
        <ele>1425.77</ele>
        <time>2020-09-17T08:07:05Z</time>
      </trkpt>
      <trkpt lat="44.74277" lon="5.8739">
        <ele>1428.66</ele>
        <time>2020-09-17T08:07:25Z</time>
      </trkpt>
      <trkpt lat="44.74275" lon="5.87372">
        <ele>1431.54</ele>
        <time>2020-09-17T08:07:41Z</time>
      </trkpt>
      <trkpt lat="44.74268" lon="5.87348">
        <ele>1434.42</ele>
        <time>2020-09-17T08:08:03Z</time>
      </trkpt>
      <trkpt lat="44.74261" lon="5.87329">
        <ele>1437.31</ele>
        <time>2020-09-17T08:08:24Z</time>
      </trkpt>
      <trkpt lat="44.74256" lon="5.8732">
        <ele>1440.19</ele>
        <time>2020-09-17T08:08:37Z</time>
      </trkpt>
      <trkpt lat="44.74248" lon="5.87301">
        <ele>1443.56</ele>
        <time>2020-09-17T08:08:54Z</time>
      </trkpt>
      <trkpt lat="44.74241" lon="5.87274">
        <ele>1444.04</ele>
        <time>2020-09-17T08:09:13Z</time>
      </trkpt>
      <trkpt lat="44.7424" lon="5.87251">
        <ele>1445.96</ele>
        <time>2020-09-17T08:09:31Z</time>
      </trkpt>
      <trkpt lat="44.7424" lon="5.87246">
        <ele>1446.92</ele>
        <time>2020-09-17T08:09:50Z</time>
      </trkpt>
      <trkpt lat="44.7424" lon="5.87246">
        <ele>1447.4</ele>
        <time>2020-09-17T08:10:07Z</time>
      </trkpt>
      <trkpt lat="44.7424" lon="5.87243">
        <ele>1447.4</ele>
        <time>2020-09-17T08:10:30Z</time>
      </trkpt>
      <trkpt lat="44.7424" lon="5.87242">
        <ele>1447.4</ele>
        <time>2020-09-17T08:11:01Z</time>
      </trkpt>
      <trkpt lat="44.74241" lon="5.87241">
        <ele>1447.4</ele>
        <time>2020-09-17T08:11:18Z</time>
      </trkpt>
      <trkpt lat="44.74241" lon="5.87242">
        <ele>1447.4</ele>
        <time>2020-09-17T08:11:44Z</time>
      </trkpt>
      <trkpt lat="44.7424" lon="5.87238">
        <ele>1447.4</ele>
        <time>2020-09-17T08:12:00Z</time>
      </trkpt>
      <trkpt lat="44.7424" lon="5.87236">
        <ele>1447.4</ele>
        <time>2020-09-17T08:12:01Z</time>
      </trkpt>
      <trkpt lat="44.74239" lon="5.87218">
        <ele>1449.81</ele>
        <time>2020-09-17T08:12:15Z</time>
      </trkpt>
      <trkpt lat="44.74244" lon="5.87199">
        <ele>1451.25</ele>
        <time>2020-09-17T08:12:31Z</time>
      </trkpt>
      <trkpt lat="44.7425" lon="5.87181">
        <ele>1453.65</ele>
        <time>2020-09-17T08:12:48Z</time>
      </trkpt>
      <trkpt lat="44.74258" lon="5.87166">
        <ele>1455.57</ele>
        <time>2020-09-17T08:13:02Z</time>
      </trkpt>
      <trkpt lat="44.74271" lon="5.87156">
        <ele>1458.46</ele>
        <time>2020-09-17T08:13:20Z</time>
      </trkpt>
      <trkpt lat="44.74279" lon="5.87144">
        <ele>1460.38</ele>
        <time>2020-09-17T08:13:34Z</time>
      </trkpt>
      <trkpt lat="44.74289" lon="5.87133">
        <ele>1462.78</ele>
        <time>2020-09-17T08:13:49Z</time>
      </trkpt>
      <trkpt lat="44.74302" lon="5.87123">
        <ele>1465.19</ele>
        <time>2020-09-17T08:14:06Z</time>
      </trkpt>
      <trkpt lat="44.74308" lon="5.87118">
        <ele>1466.15</ele>
        <time>2020-09-17T08:14:13Z</time>
      </trkpt>
      <trkpt lat="44.74319" lon="5.87106">
        <ele>1468.55</ele>
        <time>2020-09-17T08:14:29Z</time>
      </trkpt>
      <trkpt lat="44.74333" lon="5.87096">
        <ele>1471.44</ele>
        <time>2020-09-17T08:14:47Z</time>
      </trkpt>
      <trkpt lat="44.74346" lon="5.87086">
        <ele>1473.84</ele>
        <time>2020-09-17T08:15:05Z</time>
      </trkpt>
      <trkpt lat="44.74359" lon="5.87077">
        <ele>1476.24</ele>
        <time>2020-09-17T08:15:24Z</time>
      </trkpt>
      <trkpt lat="44.74369" lon="5.87068">
        <ele>1479.61</ele>
        <time>2020-09-17T08:15:41Z</time>
      </trkpt>
      <trkpt lat="44.7438" lon="5.87061">
        <ele>1482.49</ele>
        <time>2020-09-17T08:15:59Z</time>
      </trkpt>
      <trkpt lat="44.74395" lon="5.87057">
        <ele>1485.37</ele>
        <time>2020-09-17T08:16:18Z</time>
      </trkpt>
      <trkpt lat="44.74408" lon="5.87052">
        <ele>1488.74</ele>
        <time>2020-09-17T08:16:37Z</time>
      </trkpt>
      <trkpt lat="44.74421" lon="5.87046">
        <ele>1491.62</ele>
        <time>2020-09-17T08:16:56Z</time>
      </trkpt>
      <trkpt lat="44.7443" lon="5.87042">
        <ele>1494.99</ele>
        <time>2020-09-17T08:17:13Z</time>
      </trkpt>
      <trkpt lat="44.74439" lon="5.87036">
        <ele>1496.91</ele>
        <time>2020-09-17T08:17:28Z</time>
      </trkpt>
      <trkpt lat="44.74449" lon="5.87031">
        <ele>1499.79</ele>
        <time>2020-09-17T08:17:45Z</time>
      </trkpt>
      <trkpt lat="44.7446" lon="5.87028">
        <ele>1503.16</ele>
        <time>2020-09-17T08:18:04Z</time>
      </trkpt>
      <trkpt lat="44.74468" lon="5.87025">
        <ele>1504.6</ele>
        <time>2020-09-17T08:18:16Z</time>
      </trkpt>
      <trkpt lat="44.74478" lon="5.87023">
        <ele>1506.04</ele>
        <time>2020-09-17T08:18:29Z</time>
      </trkpt>
      <trkpt lat="44.74488" lon="5.87024">
        <ele>1507.97</ele>
        <time>2020-09-17T08:18:42Z</time>
      </trkpt>
      <trkpt lat="44.74494" lon="5.87026">
        <ele>1509.41</ele>
        <time>2020-09-17T08:18:49Z</time>
      </trkpt>
      <trkpt lat="44.74505" lon="5.87032">
        <ele>1511.81</ele>
        <time>2020-09-17T08:19:04Z</time>
      </trkpt>
      <trkpt lat="44.74516" lon="5.87036">
        <ele>1513.73</ele>
        <time>2020-09-17T08:19:20Z</time>
      </trkpt>
      <trkpt lat="44.74528" lon="5.87046">
        <ele>1516.62</ele>
        <time>2020-09-17T08:19:39Z</time>
      </trkpt>
      <trkpt lat="44.74538" lon="5.87059">
        <ele>1519.98</ele>
        <time>2020-09-17T08:19:56Z</time>
      </trkpt>
      <trkpt lat="44.74545" lon="5.87078">
        <ele>1522.39</ele>
        <time>2020-09-17T08:20:12Z</time>
      </trkpt>
      <trkpt lat="44.74551" lon="5.87095">
        <ele>1524.31</ele>
        <time>2020-09-17T08:20:29Z</time>
      </trkpt>
      <trkpt lat="44.74557" lon="5.87109">
        <ele>1526.23</ele>
        <time>2020-09-17T08:20:43Z</time>
      </trkpt>
      <trkpt lat="44.74558" lon="5.87113">
        <ele>1526.71</ele>
        <time>2020-09-17T08:20:46Z</time>
      </trkpt>
      <trkpt lat="44.74566" lon="5.87129">
        <ele>1528.63</ele>
        <time>2020-09-17T08:21:01Z</time>
      </trkpt>
      <trkpt lat="44.74584" lon="5.87139">
        <ele>1529.59</ele>
        <time>2020-09-17T08:21:19Z</time>
      </trkpt>
      <trkpt lat="44.74603" lon="5.87144">
        <ele>1528.63</ele>
        <time>2020-09-17T08:21:36Z</time>
      </trkpt>
      <trkpt lat="44.74606" lon="5.87128">
        <ele>1530.56</ele>
        <time>2020-09-17T08:21:54Z</time>
      </trkpt>
      <trkpt lat="44.74613" lon="5.87114">
        <ele>1533.44</ele>
        <time>2020-09-17T08:22:12Z</time>
      </trkpt>
      <trkpt lat="44.74617" lon="5.871">
        <ele>1536.32</ele>
        <time>2020-09-17T08:22:29Z</time>
      </trkpt>
      <trkpt lat="44.74621" lon="5.8709">
        <ele>1538.73</ele>
        <time>2020-09-17T08:22:42Z</time>
      </trkpt>
      <trkpt lat="44.74626" lon="5.87081">
        <ele>1541.13</ele>
        <time>2020-09-17T08:22:56Z</time>
      </trkpt>
      <trkpt lat="44.74633" lon="5.87074">
        <ele>1543.05</ele>
        <time>2020-09-17T08:23:09Z</time>
      </trkpt>
      <trkpt lat="44.74636" lon="5.87065">
        <ele>1545.46</ele>
        <time>2020-09-17T08:23:24Z</time>
      </trkpt>
      <trkpt lat="44.7464" lon="5.87054">
        <ele>1547.86</ele>
        <time>2020-09-17T08:23:39Z</time>
      </trkpt>
      <trkpt lat="44.74644" lon="5.87048">
        <ele>1549.78</ele>
        <time>2020-09-17T08:23:55Z</time>
      </trkpt>
      <trkpt lat="44.74644" lon="5.8704">
        <ele>1551.22</ele>
        <time>2020-09-17T08:24:13Z</time>
      </trkpt>
      <trkpt lat="44.74646" lon="5.87031">
        <ele>1552.67</ele>
        <time>2020-09-17T08:24:27Z</time>
      </trkpt>
      <trkpt lat="44.74646" lon="5.87021">
        <ele>1555.07</ele>
        <time>2020-09-17T08:24:44Z</time>
      </trkpt>
      <trkpt lat="44.74646" lon="5.87007">
        <ele>1557.47</ele>
        <time>2020-09-17T08:25:01Z</time>
      </trkpt>
      <trkpt lat="44.74648" lon="5.86998">
        <ele>1559.4</ele>
        <time>2020-09-17T08:25:18Z</time>
      </trkpt>
      <trkpt lat="44.74651" lon="5.86989">
        <ele>1562.76</ele>
        <time>2020-09-17T08:25:36Z</time>
      </trkpt>
      <trkpt lat="44.7465" lon="5.86978">
        <ele>1565.16</ele>
        <time>2020-09-17T08:25:51Z</time>
      </trkpt>
      <trkpt lat="44.74649" lon="5.86966">
        <ele>1567.09</ele>
        <time>2020-09-17T08:26:05Z</time>
      </trkpt>
      <trkpt lat="44.74655" lon="5.86962">
        <ele>1569.49</ele>
        <time>2020-09-17T08:26:19Z</time>
      </trkpt>
      <trkpt lat="44.74662" lon="5.86957">
        <ele>1572.37</ele>
        <time>2020-09-17T08:26:37Z</time>
      </trkpt>
      <trkpt lat="44.74661" lon="5.86943">
        <ele>1575.26</ele>
        <time>2020-09-17T08:26:55Z</time>
      </trkpt>
      <trkpt lat="44.74662" lon="5.86932">
        <ele>1578.14</ele>
        <time>2020-09-17T08:27:12Z</time>
      </trkpt>
      <trkpt lat="44.74664" lon="5.86919">
        <ele>1580.06</ele>
        <time>2020-09-17T08:27:26Z</time>
      </trkpt>
      <trkpt lat="44.74669" lon="5.86911">
        <ele>1581.99</ele>
        <time>2020-09-17T08:27:42Z</time>
      </trkpt>
      <trkpt lat="44.74677" lon="5.86909">
        <ele>1584.87</ele>
        <time>2020-09-17T08:27:59Z</time>
      </trkpt>
      <trkpt lat="44.74686" lon="5.86909">
        <ele>1588.24</ele>
        <time>2020-09-17T08:28:12Z</time>
      </trkpt>
      <trkpt lat="44.74694" lon="5.86907">
        <ele>1591.12</ele>
        <time>2020-09-17T08:28:27Z</time>
      </trkpt>
      <trkpt lat="44.74702" lon="5.86901">
        <ele>1594</ele>
        <time>2020-09-17T08:28:44Z</time>
      </trkpt>
      <trkpt lat="44.7471" lon="5.869">
        <ele>1597.37</ele>
        <time>2020-09-17T08:29:00Z</time>
      </trkpt>
      <trkpt lat="44.74714" lon="5.86898">
        <ele>1599.77</ele>
        <time>2020-09-17T08:29:16Z</time>
      </trkpt>
      <trkpt lat="44.74723" lon="5.86902">
        <ele>1601.21</ele>
        <time>2020-09-17T08:29:36Z</time>
      </trkpt>
      <trkpt lat="44.74724" lon="5.86903">
        <ele>1601.21</ele>
        <time>2020-09-17T08:29:37Z</time>
      </trkpt>
      <trkpt lat="44.74735" lon="5.86908">
        <ele>1602.66</ele>
        <time>2020-09-17T08:29:52Z</time>
      </trkpt>
      <trkpt lat="44.74744" lon="5.86916">
        <ele>1605.54</ele>
        <time>2020-09-17T08:30:09Z</time>
      </trkpt>
      <trkpt lat="44.74751" lon="5.86922">
        <ele>1607.46</ele>
        <time>2020-09-17T08:30:21Z</time>
      </trkpt>
      <trkpt lat="44.7476" lon="5.86936">
        <ele>1608.9</ele>
        <time>2020-09-17T08:30:38Z</time>
      </trkpt>
      <trkpt lat="44.74772" lon="5.86944">
        <ele>1611.79</ele>
        <time>2020-09-17T08:30:57Z</time>
      </trkpt>
      <trkpt lat="44.7478" lon="5.86946">
        <ele>1614.67</ele>
        <time>2020-09-17T08:31:13Z</time>
      </trkpt>
      <trkpt lat="44.7479" lon="5.86945">
        <ele>1618.04</ele>
        <time>2020-09-17T08:31:28Z</time>
      </trkpt>
      <trkpt lat="44.74799" lon="5.86948">
        <ele>1620.92</ele>
        <time>2020-09-17T08:31:44Z</time>
      </trkpt>
      <trkpt lat="44.74811" lon="5.8695">
        <ele>1623.8</ele>
        <time>2020-09-17T08:32:02Z</time>
      </trkpt>
      <trkpt lat="44.74819" lon="5.86951">
        <ele>1626.21</ele>
        <time>2020-09-17T08:32:20Z</time>
      </trkpt>
      <trkpt lat="44.74826" lon="5.86947">
        <ele>1629.09</ele>
        <time>2020-09-17T08:32:36Z</time>
      </trkpt>
      <trkpt lat="44.74837" lon="5.86947">
        <ele>1631.98</ele>
        <time>2020-09-17T08:32:55Z</time>
      </trkpt>
      <trkpt lat="44.74845" lon="5.86944">
        <ele>1635.34</ele>
        <time>2020-09-17T08:33:15Z</time>
      </trkpt>
      <trkpt lat="44.74855" lon="5.86944">
        <ele>1638.22</ele>
        <time>2020-09-17T08:33:34Z</time>
      </trkpt>
      <trkpt lat="44.74865" lon="5.86945">
        <ele>1641.59</ele>
        <time>2020-09-17T08:33:54Z</time>
      </trkpt>
      <trkpt lat="44.74867" lon="5.8694">
        <ele>1643.51</ele>
        <time>2020-09-17T08:34:05Z</time>
      </trkpt>
      <trkpt lat="44.74868" lon="5.86931">
        <ele>1645.91</ele>
        <time>2020-09-17T08:34:21Z</time>
      </trkpt>
      <trkpt lat="44.74872" lon="5.86925">
        <ele>1648.8</ele>
        <time>2020-09-17T08:34:39Z</time>
      </trkpt>
      <trkpt lat="44.74874" lon="5.86925">
        <ele>1649.76</ele>
        <time>2020-09-17T08:34:46Z</time>
      </trkpt>
      <trkpt lat="44.74883" lon="5.86931">
        <ele>1651.2</ele>
        <time>2020-09-17T08:35:01Z</time>
      </trkpt>
      <trkpt lat="44.7489" lon="5.86927">
        <ele>1653.6</ele>
        <time>2020-09-17T08:35:21Z</time>
      </trkpt>
      <trkpt lat="44.74892" lon="5.86922">
        <ele>1656.97</ele>
        <time>2020-09-17T08:35:37Z</time>
      </trkpt>
      <trkpt lat="44.74891" lon="5.86912">
        <ele>1658.89</ele>
        <time>2020-09-17T08:35:53Z</time>
      </trkpt>
      <trkpt lat="44.74893" lon="5.86908">
        <ele>1661.3</ele>
        <time>2020-09-17T08:36:07Z</time>
      </trkpt>
      <trkpt lat="44.74897" lon="5.86904">
        <ele>1664.18</ele>
        <time>2020-09-17T08:36:23Z</time>
      </trkpt>
      <trkpt lat="44.749" lon="5.86898">
        <ele>1666.58</ele>
        <time>2020-09-17T08:36:38Z</time>
      </trkpt>
      <trkpt lat="44.74902" lon="5.86891">
        <ele>1668.99</ele>
        <time>2020-09-17T08:36:54Z</time>
      </trkpt>
      <trkpt lat="44.74904" lon="5.86885">
        <ele>1671.39</ele>
        <time>2020-09-17T08:37:09Z</time>
      </trkpt>
      <trkpt lat="44.74907" lon="5.86877">
        <ele>1673.79</ele>
        <time>2020-09-17T08:37:26Z</time>
      </trkpt>
      <trkpt lat="44.74915" lon="5.86877">
        <ele>1675.72</ele>
        <time>2020-09-17T08:37:41Z</time>
      </trkpt>
      <trkpt lat="44.7492" lon="5.86872">
        <ele>1678.6</ele>
        <time>2020-09-17T08:37:57Z</time>
      </trkpt>
      <trkpt lat="44.74928" lon="5.86866">
        <ele>1681</ele>
        <time>2020-09-17T08:38:14Z</time>
      </trkpt>
      <trkpt lat="44.74934" lon="5.86856">
        <ele>1683.89</ele>
        <time>2020-09-17T08:38:31Z</time>
      </trkpt>
      <trkpt lat="44.74934" lon="5.86839">
        <ele>1686.29</ele>
        <time>2020-09-17T08:38:49Z</time>
      </trkpt>
      <trkpt lat="44.7493" lon="5.86822">
        <ele>1688.69</ele>
        <time>2020-09-17T08:39:07Z</time>
      </trkpt>
      <trkpt lat="44.74931" lon="5.86808">
        <ele>1691.1</ele>
        <time>2020-09-17T08:39:24Z</time>
      </trkpt>
      <trkpt lat="44.74929" lon="5.86797">
        <ele>1693.5</ele>
        <time>2020-09-17T08:39:40Z</time>
      </trkpt>
      <trkpt lat="44.74931" lon="5.86785">
        <ele>1695.9</ele>
        <time>2020-09-17T08:39:58Z</time>
      </trkpt>
      <trkpt lat="44.74931" lon="5.86774">
        <ele>1698.31</ele>
        <time>2020-09-17T08:40:12Z</time>
      </trkpt>
      <trkpt lat="44.7493" lon="5.86764">
        <ele>1701.19</ele>
        <time>2020-09-17T08:40:29Z</time>
      </trkpt>
      <trkpt lat="44.74931" lon="5.86758">
        <ele>1703.11</ele>
        <time>2020-09-17T08:40:41Z</time>
      </trkpt>
      <trkpt lat="44.7493" lon="5.86749">
        <ele>1706</ele>
        <time>2020-09-17T08:40:58Z</time>
      </trkpt>
      <trkpt lat="44.74931" lon="5.86741">
        <ele>1707.44</ele>
        <time>2020-09-17T08:41:11Z</time>
      </trkpt>
      <trkpt lat="44.74932" lon="5.86729">
        <ele>1710.8</ele>
        <time>2020-09-17T08:41:29Z</time>
      </trkpt>
      <trkpt lat="44.74936" lon="5.86718">
        <ele>1713.21</ele>
        <time>2020-09-17T08:41:44Z</time>
      </trkpt>
      <trkpt lat="44.74939" lon="5.86708">
        <ele>1716.09</ele>
        <time>2020-09-17T08:42:00Z</time>
      </trkpt>
      <trkpt lat="44.74938" lon="5.86698">
        <ele>1718.49</ele>
        <time>2020-09-17T08:42:17Z</time>
      </trkpt>
      <trkpt lat="44.74936" lon="5.86692">
        <ele>1720.42</ele>
        <time>2020-09-17T08:42:30Z</time>
      </trkpt>
      <trkpt lat="44.74936" lon="5.86683">
        <ele>1722.82</ele>
        <time>2020-09-17T08:42:46Z</time>
      </trkpt>
      <trkpt lat="44.74934" lon="5.86675">
        <ele>1725.22</ele>
        <time>2020-09-17T08:43:01Z</time>
      </trkpt>
      <trkpt lat="44.74934" lon="5.86668">
        <ele>1727.63</ele>
        <time>2020-09-17T08:43:19Z</time>
      </trkpt>
      <trkpt lat="44.7493" lon="5.8666">
        <ele>1730.03</ele>
        <time>2020-09-17T08:43:35Z</time>
      </trkpt>
      <trkpt lat="44.74927" lon="5.86654">
        <ele>1731.95</ele>
        <time>2020-09-17T08:43:48Z</time>
      </trkpt>
      <trkpt lat="44.74926" lon="5.86647">
        <ele>1734.36</ele>
        <time>2020-09-17T08:44:05Z</time>
      </trkpt>
      <trkpt lat="44.74925" lon="5.86641">
        <ele>1736.76</ele>
        <time>2020-09-17T08:44:19Z</time>
      </trkpt>
      <trkpt lat="44.74925" lon="5.86633">
        <ele>1739.16</ele>
        <time>2020-09-17T08:44:36Z</time>
      </trkpt>
      <trkpt lat="44.74925" lon="5.86625">
        <ele>1742.05</ele>
        <time>2020-09-17T08:44:54Z</time>
      </trkpt>
      <trkpt lat="44.74925" lon="5.86618">
        <ele>1744.45</ele>
        <time>2020-09-17T08:45:10Z</time>
      </trkpt>
      <trkpt lat="44.74925" lon="5.86611">
        <ele>1746.37</ele>
        <time>2020-09-17T08:45:24Z</time>
      </trkpt>
      <trkpt lat="44.74924" lon="5.86604">
        <ele>1749.74</ele>
        <time>2020-09-17T08:45:39Z</time>
      </trkpt>
      <trkpt lat="44.74924" lon="5.86598">
        <ele>1751.18</ele>
        <time>2020-09-17T08:45:51Z</time>
      </trkpt>
      <trkpt lat="44.74926" lon="5.86591">
        <ele>1753.58</ele>
        <time>2020-09-17T08:46:07Z</time>
      </trkpt>
      <trkpt lat="44.74925" lon="5.86583">
        <ele>1755.99</ele>
        <time>2020-09-17T08:46:23Z</time>
      </trkpt>
      <trkpt lat="44.74924" lon="5.86577">
        <ele>1757.91</ele>
        <time>2020-09-17T08:46:38Z</time>
      </trkpt>
      <trkpt lat="44.74925" lon="5.86571">
        <ele>1759.83</ele>
        <time>2020-09-17T08:46:52Z</time>
      </trkpt>
      <trkpt lat="44.74922" lon="5.86565">
        <ele>1762.23</ele>
        <time>2020-09-17T08:47:07Z</time>
      </trkpt>
      <trkpt lat="44.74925" lon="5.86558">
        <ele>1764.64</ele>
        <time>2020-09-17T08:47:23Z</time>
      </trkpt>
      <trkpt lat="44.74921" lon="5.8655">
        <ele>1766.56</ele>
        <time>2020-09-17T08:47:38Z</time>
      </trkpt>
      <trkpt lat="44.7492" lon="5.86544">
        <ele>1768.96</ele>
        <time>2020-09-17T08:47:53Z</time>
      </trkpt>
      <trkpt lat="44.7492" lon="5.86537">
        <ele>1770.89</ele>
        <time>2020-09-17T08:48:07Z</time>
      </trkpt>
      <trkpt lat="44.74918" lon="5.8653">
        <ele>1772.81</ele>
        <time>2020-09-17T08:48:22Z</time>
      </trkpt>
      <trkpt lat="44.74917" lon="5.8652">
        <ele>1775.69</ele>
        <time>2020-09-17T08:48:40Z</time>
      </trkpt>
      <trkpt lat="44.74914" lon="5.8651">
        <ele>1778.1</ele>
        <time>2020-09-17T08:48:57Z</time>
      </trkpt>
      <trkpt lat="44.74914" lon="5.86499">
        <ele>1780.5</ele>
        <time>2020-09-17T08:49:15Z</time>
      </trkpt>
      <trkpt lat="44.74911" lon="5.86487">
        <ele>1783.38</ele>
        <time>2020-09-17T08:49:34Z</time>
      </trkpt>
      <trkpt lat="44.74908" lon="5.86476">
        <ele>1786.27</ele>
        <time>2020-09-17T08:49:51Z</time>
      </trkpt>
      <trkpt lat="44.74906" lon="5.86464">
        <ele>1789.15</ele>
        <time>2020-09-17T08:50:09Z</time>
      </trkpt>
      <trkpt lat="44.74905" lon="5.86453">
        <ele>1791.07</ele>
        <time>2020-09-17T08:50:26Z</time>
      </trkpt>
      <trkpt lat="44.74906" lon="5.86446">
        <ele>1792.52</ele>
        <time>2020-09-17T08:50:40Z</time>
      </trkpt>
      <trkpt lat="44.74907" lon="5.86439">
        <ele>1794.92</ele>
        <time>2020-09-17T08:50:55Z</time>
      </trkpt>
      <trkpt lat="44.74902" lon="5.86429">
        <ele>1797.8</ele>
        <time>2020-09-17T08:51:13Z</time>
      </trkpt>
      <trkpt lat="44.74902" lon="5.86422">
        <ele>1799.24</ele>
        <time>2020-09-17T08:51:27Z</time>
      </trkpt>
      <trkpt lat="44.749" lon="5.86412">
        <ele>1801.17</ele>
        <time>2020-09-17T08:51:43Z</time>
      </trkpt>
      <trkpt lat="44.74898" lon="5.86404">
        <ele>1804.05</ele>
        <time>2020-09-17T08:51:59Z</time>
      </trkpt>
      <trkpt lat="44.74894" lon="5.86395">
        <ele>1806.45</ele>
        <time>2020-09-17T08:52:15Z</time>
      </trkpt>
      <trkpt lat="44.74887" lon="5.86387">
        <ele>1808.86</ele>
        <time>2020-09-17T08:52:33Z</time>
      </trkpt>
      <trkpt lat="44.74888" lon="5.86377">
        <ele>1811.26</ele>
        <time>2020-09-17T08:52:49Z</time>
      </trkpt>
      <trkpt lat="44.74885" lon="5.86366">
        <ele>1813.66</ele>
        <time>2020-09-17T08:53:07Z</time>
      </trkpt>
      <trkpt lat="44.74878" lon="5.86356">
        <ele>1816.55</ele>
        <time>2020-09-17T08:53:25Z</time>
      </trkpt>
      <trkpt lat="44.74875" lon="5.86349">
        <ele>1818.47</ele>
        <time>2020-09-17T08:53:42Z</time>
      </trkpt>
      <trkpt lat="44.74872" lon="5.86344">
        <ele>1819.91</ele>
        <time>2020-09-17T08:54:01Z</time>
      </trkpt>
      <trkpt lat="44.74871" lon="5.86343">
        <ele>1819.91</ele>
        <time>2020-09-17T08:54:21Z</time>
      </trkpt>
      <trkpt lat="44.74872" lon="5.86343">
        <ele>1819.43</ele>
        <time>2020-09-17T08:54:45Z</time>
      </trkpt>
      <trkpt lat="44.74871" lon="5.86343">
        <ele>1820.39</ele>
        <time>2020-09-17T08:55:24Z</time>
      </trkpt>
      <trkpt lat="44.74871" lon="5.86343">
        <ele>1817.03</ele>
        <time>2020-09-17T08:55:42Z</time>
      </trkpt>
      <trkpt lat="44.74871" lon="5.86343">
        <ele>1816.55</ele>
        <time>2020-09-17T08:55:44Z</time>
      </trkpt>
      <trkpt lat="44.74871" lon="5.86343">
        <ele>1818.47</ele>
        <time>2020-09-17T08:55:48Z</time>
      </trkpt>
      <trkpt lat="44.74872" lon="5.86343">
        <ele>1821.84</ele>
        <time>2020-09-17T08:55:59Z</time>
      </trkpt>
      <trkpt lat="44.74872" lon="5.86343">
        <ele>1825.2</ele>
        <time>2020-09-17T08:56:02Z</time>
      </trkpt>
      <trkpt lat="44.74872" lon="5.86342">
        <ele>1825.68</ele>
        <time>2020-09-17T08:56:03Z</time>
      </trkpt>
      <trkpt lat="44.74872" lon="5.86342">
        <ele>1822.8</ele>
        <time>2020-09-17T08:56:12Z</time>
      </trkpt>
      <trkpt lat="44.74872" lon="5.86342">
        <ele>1820.39</ele>
        <time>2020-09-17T08:56:46Z</time>
      </trkpt>
      <trkpt lat="44.74871" lon="5.86342">
        <ele>1820.39</ele>
        <time>2020-09-17T08:57:31Z</time>
      </trkpt>
      <trkpt lat="44.74872" lon="5.86332">
        <ele>1820.39</ele>
        <time>2020-09-17T08:57:52Z</time>
      </trkpt>
      <trkpt lat="44.74871" lon="5.86324">
        <ele>1820.39</ele>
        <time>2020-09-17T08:58:04Z</time>
      </trkpt>
      <trkpt lat="44.74868" lon="5.86316">
        <ele>1820.39</ele>
        <time>2020-09-17T08:58:19Z</time>
      </trkpt>
      <trkpt lat="44.74866" lon="5.86314">
        <ele>1825.68</ele>
        <time>2020-09-17T08:58:25Z</time>
      </trkpt>
      <trkpt lat="44.74866" lon="5.86313">
        <ele>1825.68</ele>
        <time>2020-09-17T08:58:26Z</time>
      </trkpt>
      <trkpt lat="44.74865" lon="5.86306">
        <ele>1826.64</ele>
        <time>2020-09-17T08:58:38Z</time>
      </trkpt>
      <trkpt lat="44.74862" lon="5.86299">
        <ele>1829.53</ele>
        <time>2020-09-17T08:58:54Z</time>
      </trkpt>
      <trkpt lat="44.74859" lon="5.86291">
        <ele>1830.97</ele>
        <time>2020-09-17T08:59:10Z</time>
      </trkpt>
      <trkpt lat="44.7486" lon="5.86281">
        <ele>1833.37</ele>
        <time>2020-09-17T08:59:28Z</time>
      </trkpt>
      <trkpt lat="44.74854" lon="5.86264">
        <ele>1835.29</ele>
        <time>2020-09-17T08:59:46Z</time>
      </trkpt>
      <trkpt lat="44.74853" lon="5.86248">
        <ele>1836.26</ele>
        <time>2020-09-17T09:00:01Z</time>
      </trkpt>
      <trkpt lat="44.74849" lon="5.86236">
        <ele>1838.18</ele>
        <time>2020-09-17T09:00:18Z</time>
      </trkpt>
      <trkpt lat="44.74847" lon="5.86227">
        <ele>1840.58</ele>
        <time>2020-09-17T09:00:34Z</time>
      </trkpt>
      <trkpt lat="44.74846" lon="5.86218">
        <ele>1842.98</ele>
        <time>2020-09-17T09:00:51Z</time>
      </trkpt>
      <trkpt lat="44.74847" lon="5.8621">
        <ele>1844.91</ele>
        <time>2020-09-17T09:01:07Z</time>
      </trkpt>
      <trkpt lat="44.74845" lon="5.862">
        <ele>1847.31</ele>
        <time>2020-09-17T09:01:25Z</time>
      </trkpt>
      <trkpt lat="44.74848" lon="5.86193">
        <ele>1850.19</ele>
        <time>2020-09-17T09:01:40Z</time>
      </trkpt>
      <trkpt lat="44.74848" lon="5.86187">
        <ele>1851.64</ele>
        <time>2020-09-17T09:01:54Z</time>
      </trkpt>
      <trkpt lat="44.74852" lon="5.86182">
        <ele>1854.52</ele>
        <time>2020-09-17T09:02:10Z</time>
      </trkpt>
      <trkpt lat="44.74852" lon="5.86173">
        <ele>1856.44</ele>
        <time>2020-09-17T09:02:25Z</time>
      </trkpt>
      <trkpt lat="44.74852" lon="5.86164">
        <ele>1859.33</ele>
        <time>2020-09-17T09:02:47Z</time>
      </trkpt>
      <trkpt lat="44.74855" lon="5.86157">
        <ele>1862.21</ele>
        <time>2020-09-17T09:03:07Z</time>
      </trkpt>
      <trkpt lat="44.74858" lon="5.86152">
        <ele>1864.13</ele>
        <time>2020-09-17T09:03:21Z</time>
      </trkpt>
      <trkpt lat="44.74859" lon="5.86146">
        <ele>1866.54</ele>
        <time>2020-09-17T09:03:38Z</time>
      </trkpt>
      <trkpt lat="44.74861" lon="5.86138">
        <ele>1869.9</ele>
        <time>2020-09-17T09:03:59Z</time>
      </trkpt>
      <trkpt lat="44.74863" lon="5.86133">
        <ele>1871.82</ele>
        <time>2020-09-17T09:04:15Z</time>
      </trkpt>
      <trkpt lat="44.74864" lon="5.86129">
        <ele>1873.75</ele>
        <time>2020-09-17T09:04:29Z</time>
      </trkpt>
      <trkpt lat="44.74865" lon="5.86121">
        <ele>1876.15</ele>
        <time>2020-09-17T09:04:47Z</time>
      </trkpt>
      <trkpt lat="44.7487" lon="5.86117">
        <ele>1878.07</ele>
        <time>2020-09-17T09:05:01Z</time>
      </trkpt>
      <trkpt lat="44.74869" lon="5.86111">
        <ele>1880</ele>
        <time>2020-09-17T09:05:15Z</time>
      </trkpt>
      <trkpt lat="44.7487" lon="5.86104">
        <ele>1882.88</ele>
        <time>2020-09-17T09:05:34Z</time>
      </trkpt>
      <trkpt lat="44.74869" lon="5.86098">
        <ele>1885.28</ele>
        <time>2020-09-17T09:05:50Z</time>
      </trkpt>
      <trkpt lat="44.74872" lon="5.86092">
        <ele>1888.17</ele>
        <time>2020-09-17T09:06:11Z</time>
      </trkpt>
      <trkpt lat="44.74874" lon="5.86087">
        <ele>1890.57</ele>
        <time>2020-09-17T09:06:26Z</time>
      </trkpt>
      <trkpt lat="44.74876" lon="5.86081">
        <ele>1892.97</ele>
        <time>2020-09-17T09:06:42Z</time>
      </trkpt>
      <trkpt lat="44.74877" lon="5.86075">
        <ele>1894.9</ele>
        <time>2020-09-17T09:06:56Z</time>
      </trkpt>
      <trkpt lat="44.74877" lon="5.86072">
        <ele>1896.82</ele>
        <time>2020-09-17T09:07:12Z</time>
      </trkpt>
      <trkpt lat="44.74877" lon="5.86067">
        <ele>1898.74</ele>
        <time>2020-09-17T09:07:28Z</time>
      </trkpt>
      <trkpt lat="44.74875" lon="5.86061">
        <ele>1901.14</ele>
        <time>2020-09-17T09:07:45Z</time>
      </trkpt>
      <trkpt lat="44.74874" lon="5.86054">
        <ele>1903.55</ele>
        <time>2020-09-17T09:08:03Z</time>
      </trkpt>
      <trkpt lat="44.74873" lon="5.8605">
        <ele>1905.47</ele>
        <time>2020-09-17T09:08:16Z</time>
      </trkpt>
      <trkpt lat="44.74873" lon="5.86044">
        <ele>1907.39</ele>
        <time>2020-09-17T09:08:31Z</time>
      </trkpt>
      <trkpt lat="44.74873" lon="5.86039">
        <ele>1909.32</ele>
        <time>2020-09-17T09:08:47Z</time>
      </trkpt>
      <trkpt lat="44.74874" lon="5.86034">
        <ele>1911.24</ele>
        <time>2020-09-17T09:09:01Z</time>
      </trkpt>
      <trkpt lat="44.74875" lon="5.86028">
        <ele>1913.16</ele>
        <time>2020-09-17T09:09:17Z</time>
      </trkpt>
      <trkpt lat="44.74875" lon="5.86024">
        <ele>1914.6</ele>
        <time>2020-09-17T09:09:29Z</time>
      </trkpt>
      <trkpt lat="44.74873" lon="5.86017">
        <ele>1917.49</ele>
        <time>2020-09-17T09:09:46Z</time>
      </trkpt>
      <trkpt lat="44.74873" lon="5.86012">
        <ele>1919.41</ele>
        <time>2020-09-17T09:10:03Z</time>
      </trkpt>
      <trkpt lat="44.74874" lon="5.86005">
        <ele>1921.81</ele>
        <time>2020-09-17T09:10:19Z</time>
      </trkpt>
      <trkpt lat="44.74871" lon="5.85999">
        <ele>1924.22</ele>
        <time>2020-09-17T09:10:33Z</time>
      </trkpt>
      <trkpt lat="44.74871" lon="5.85994">
        <ele>1925.66</ele>
        <time>2020-09-17T09:10:47Z</time>
      </trkpt>
      <trkpt lat="44.7487" lon="5.85988">
        <ele>1928.06</ele>
        <time>2020-09-17T09:11:03Z</time>
      </trkpt>
      <trkpt lat="44.74868" lon="5.85983">
        <ele>1930.46</ele>
        <time>2020-09-17T09:11:19Z</time>
      </trkpt>
      <trkpt lat="44.74866" lon="5.85976">
        <ele>1932.39</ele>
        <time>2020-09-17T09:11:33Z</time>
      </trkpt>
      <trkpt lat="44.74864" lon="5.8597">
        <ele>1934.79</ele>
        <time>2020-09-17T09:11:48Z</time>
      </trkpt>
      <trkpt lat="44.74863" lon="5.85964">
        <ele>1936.71</ele>
        <time>2020-09-17T09:12:02Z</time>
      </trkpt>
      <trkpt lat="44.74866" lon="5.8596">
        <ele>1938.64</ele>
        <time>2020-09-17T09:12:16Z</time>
      </trkpt>
      <trkpt lat="44.74867" lon="5.85954">
        <ele>1940.56</ele>
        <time>2020-09-17T09:12:32Z</time>
      </trkpt>
      <trkpt lat="44.74864" lon="5.85948">
        <ele>1942.48</ele>
        <time>2020-09-17T09:12:48Z</time>
      </trkpt>
      <trkpt lat="44.74868" lon="5.85943">
        <ele>1944.4</ele>
        <time>2020-09-17T09:13:04Z</time>
      </trkpt>
      <trkpt lat="44.74868" lon="5.85937">
        <ele>1946.81</ele>
        <time>2020-09-17T09:13:20Z</time>
      </trkpt>
      <trkpt lat="44.74868" lon="5.85932">
        <ele>1948.73</ele>
        <time>2020-09-17T09:13:35Z</time>
      </trkpt>
      <trkpt lat="44.7487" lon="5.85926">
        <ele>1950.17</ele>
        <time>2020-09-17T09:13:48Z</time>
      </trkpt>
      <trkpt lat="44.74869" lon="5.8592">
        <ele>1952.57</ele>
        <time>2020-09-17T09:14:04Z</time>
      </trkpt>
      <trkpt lat="44.7487" lon="5.85914">
        <ele>1954.98</ele>
        <time>2020-09-17T09:14:20Z</time>
      </trkpt>
      <trkpt lat="44.74866" lon="5.85904">
        <ele>1956.9</ele>
        <time>2020-09-17T09:14:38Z</time>
      </trkpt>
      <trkpt lat="44.74868" lon="5.85899">
        <ele>1959.78</ele>
        <time>2020-09-17T09:14:55Z</time>
      </trkpt>
      <trkpt lat="44.74863" lon="5.8589">
        <ele>1961.71</ele>
        <time>2020-09-17T09:15:14Z</time>
      </trkpt>
      <trkpt lat="44.74862" lon="5.85884">
        <ele>1964.11</ele>
        <time>2020-09-17T09:15:29Z</time>
      </trkpt>
      <trkpt lat="44.74857" lon="5.85876">
        <ele>1966.99</ele>
        <time>2020-09-17T09:15:47Z</time>
      </trkpt>
      <trkpt lat="44.74858" lon="5.85871">
        <ele>1968.92</ele>
        <time>2020-09-17T09:16:02Z</time>
      </trkpt>
      <trkpt lat="44.74857" lon="5.85864">
        <ele>1971.32</ele>
        <time>2020-09-17T09:16:21Z</time>
      </trkpt>
      <trkpt lat="44.74855" lon="5.85858">
        <ele>1973.24</ele>
        <time>2020-09-17T09:16:35Z</time>
      </trkpt>
      <trkpt lat="44.74854" lon="5.85853">
        <ele>1975.17</ele>
        <time>2020-09-17T09:16:50Z</time>
      </trkpt>
      <trkpt lat="44.74851" lon="5.85848">
        <ele>1976.61</ele>
        <time>2020-09-17T09:17:05Z</time>
      </trkpt>
      <trkpt lat="44.74847" lon="5.85842">
        <ele>1979.01</ele>
        <time>2020-09-17T09:17:22Z</time>
      </trkpt>
      <trkpt lat="44.74845" lon="5.85837">
        <ele>1981.9</ele>
        <time>2020-09-17T09:17:40Z</time>
      </trkpt>
      <trkpt lat="44.74842" lon="5.85832">
        <ele>1983.82</ele>
        <time>2020-09-17T09:17:56Z</time>
      </trkpt>
      <trkpt lat="44.74838" lon="5.85827">
        <ele>1985.74</ele>
        <time>2020-09-17T09:18:13Z</time>
      </trkpt>
      <trkpt lat="44.74836" lon="5.85823">
        <ele>1988.14</ele>
        <time>2020-09-17T09:18:27Z</time>
      </trkpt>
      <trkpt lat="44.74832" lon="5.85818">
        <ele>1989.59</ele>
        <time>2020-09-17T09:18:42Z</time>
      </trkpt>
      <trkpt lat="44.74829" lon="5.85812">
        <ele>1991.51</ele>
        <time>2020-09-17T09:18:58Z</time>
      </trkpt>
      <trkpt lat="44.74827" lon="5.85806">
        <ele>1993.43</ele>
        <time>2020-09-17T09:19:15Z</time>
      </trkpt>
      <trkpt lat="44.74825" lon="5.85798">
        <ele>1996.8</ele>
        <time>2020-09-17T09:19:37Z</time>
      </trkpt>
      <trkpt lat="44.74824" lon="5.85794">
        <ele>1998.72</ele>
        <time>2020-09-17T09:19:54Z</time>
      </trkpt>
      <trkpt lat="44.74822" lon="5.85787">
        <ele>2001.6</ele>
        <time>2020-09-17T09:20:11Z</time>
      </trkpt>
      <trkpt lat="44.74824" lon="5.85783">
        <ele>2004.01</ele>
        <time>2020-09-17T09:20:29Z</time>
      </trkpt>
      <trkpt lat="44.74824" lon="5.85779">
        <ele>2006.41</ele>
        <time>2020-09-17T09:20:46Z</time>
      </trkpt>
      <trkpt lat="44.74824" lon="5.85773">
        <ele>2007.85</ele>
        <time>2020-09-17T09:21:02Z</time>
      </trkpt>
      <trkpt lat="44.74822" lon="5.85764">
        <ele>2010.25</ele>
        <time>2020-09-17T09:21:21Z</time>
      </trkpt>
      <trkpt lat="44.74824" lon="5.85758">
        <ele>2012.66</ele>
        <time>2020-09-17T09:21:38Z</time>
      </trkpt>
      <trkpt lat="44.74826" lon="5.85754">
        <ele>2014.58</ele>
        <time>2020-09-17T09:21:51Z</time>
      </trkpt>
      <trkpt lat="44.74826" lon="5.85748">
        <ele>2016.98</ele>
        <time>2020-09-17T09:22:09Z</time>
      </trkpt>
      <trkpt lat="44.74825" lon="5.85743">
        <ele>2018.43</ele>
        <time>2020-09-17T09:22:22Z</time>
      </trkpt>
      <trkpt lat="44.74825" lon="5.85736">
        <ele>2020.83</ele>
        <time>2020-09-17T09:22:40Z</time>
      </trkpt>
      <trkpt lat="44.74827" lon="5.85733">
        <ele>2022.75</ele>
        <time>2020-09-17T09:22:57Z</time>
      </trkpt>
      <trkpt lat="44.74827" lon="5.85728">
        <ele>2024.19</ele>
        <time>2020-09-17T09:23:23Z</time>
      </trkpt>
      <trkpt lat="44.74827" lon="5.85721">
        <ele>2026.6</ele>
        <time>2020-09-17T09:23:41Z</time>
      </trkpt>
      <trkpt lat="44.74826" lon="5.85714">
        <ele>2029</ele>
        <time>2020-09-17T09:23:56Z</time>
      </trkpt>
      <trkpt lat="44.74831" lon="5.8571">
        <ele>2031.4</ele>
        <time>2020-09-17T09:24:12Z</time>
      </trkpt>
      <trkpt lat="44.74833" lon="5.85705">
        <ele>2033.81</ele>
        <time>2020-09-17T09:24:27Z</time>
      </trkpt>
      <trkpt lat="44.74837" lon="5.85702">
        <ele>2035.73</ele>
        <time>2020-09-17T09:24:43Z</time>
      </trkpt>
      <trkpt lat="44.74836" lon="5.85693">
        <ele>2038.61</ele>
        <time>2020-09-17T09:25:01Z</time>
      </trkpt>
      <trkpt lat="44.74835" lon="5.85686">
        <ele>2040.05</ele>
        <time>2020-09-17T09:25:15Z</time>
      </trkpt>
      <trkpt lat="44.74837" lon="5.85679">
        <ele>2042.46</ele>
        <time>2020-09-17T09:25:29Z</time>
      </trkpt>
      <trkpt lat="44.7484" lon="5.85673">
        <ele>2045.34</ele>
        <time>2020-09-17T09:25:44Z</time>
      </trkpt>
      <trkpt lat="44.74841" lon="5.85665">
        <ele>2047.75</ele>
        <time>2020-09-17T09:26:00Z</time>
      </trkpt>
      <trkpt lat="44.74842" lon="5.85658">
        <ele>2049.67</ele>
        <time>2020-09-17T09:26:15Z</time>
      </trkpt>
      <trkpt lat="44.74844" lon="5.8565">
        <ele>2051.59</ele>
        <time>2020-09-17T09:26:31Z</time>
      </trkpt>
      <trkpt lat="44.74842" lon="5.85641">
        <ele>2053.51</ele>
        <time>2020-09-17T09:26:48Z</time>
      </trkpt>
      <trkpt lat="44.74841" lon="5.85631">
        <ele>2056.4</ele>
        <time>2020-09-17T09:27:06Z</time>
      </trkpt>
      <trkpt lat="44.74841" lon="5.85623">
        <ele>2057.84</ele>
        <time>2020-09-17T09:27:21Z</time>
      </trkpt>
      <trkpt lat="44.74841" lon="5.85614">
        <ele>2059.76</ele>
        <time>2020-09-17T09:27:36Z</time>
      </trkpt>
      <trkpt lat="44.7484" lon="5.85607">
        <ele>2061.68</ele>
        <time>2020-09-17T09:27:51Z</time>
      </trkpt>
      <trkpt lat="44.74841" lon="5.85604">
        <ele>2063.13</ele>
        <time>2020-09-17T09:28:24Z</time>
      </trkpt>
      <trkpt lat="44.74842" lon="5.85597">
        <ele>2065.05</ele>
        <time>2020-09-17T09:28:38Z</time>
      </trkpt>
      <trkpt lat="44.74843" lon="5.85588">
        <ele>2067.45</ele>
        <time>2020-09-17T09:28:56Z</time>
      </trkpt>
      <trkpt lat="44.74845" lon="5.85581">
        <ele>2069.86</ele>
        <time>2020-09-17T09:29:13Z</time>
      </trkpt>
      <trkpt lat="44.74847" lon="5.85573">
        <ele>2071.78</ele>
        <time>2020-09-17T09:29:30Z</time>
      </trkpt>
      <trkpt lat="44.74849" lon="5.85567">
        <ele>2074.18</ele>
        <time>2020-09-17T09:29:45Z</time>
      </trkpt>
      <trkpt lat="44.74851" lon="5.85561">
        <ele>2076.1</ele>
        <time>2020-09-17T09:30:00Z</time>
      </trkpt>
      <trkpt lat="44.74852" lon="5.85555">
        <ele>2077.55</ele>
        <time>2020-09-17T09:30:15Z</time>
      </trkpt>
      <trkpt lat="44.74854" lon="5.85549">
        <ele>2079.47</ele>
        <time>2020-09-17T09:30:31Z</time>
      </trkpt>
      <trkpt lat="44.74854" lon="5.85544">
        <ele>2080.91</ele>
        <time>2020-09-17T09:30:43Z</time>
      </trkpt>
      <trkpt lat="44.74855" lon="5.85539">
        <ele>2082.83</ele>
        <time>2020-09-17T09:30:55Z</time>
      </trkpt>
      <trkpt lat="44.74856" lon="5.85533">
        <ele>2084.28</ele>
        <time>2020-09-17T09:31:09Z</time>
      </trkpt>
      <trkpt lat="44.74858" lon="5.85527">
        <ele>2086.2</ele>
        <time>2020-09-17T09:31:22Z</time>
      </trkpt>
      <trkpt lat="44.74857" lon="5.85519">
        <ele>2088.6</ele>
        <time>2020-09-17T09:31:37Z</time>
      </trkpt>
      <trkpt lat="44.74859" lon="5.85512">
        <ele>2090.04</ele>
        <time>2020-09-17T09:31:51Z</time>
      </trkpt>
      <trkpt lat="44.74862" lon="5.85505">
        <ele>2092.45</ele>
        <time>2020-09-17T09:32:05Z</time>
      </trkpt>
      <trkpt lat="44.74865" lon="5.85497">
        <ele>2094.85</ele>
        <time>2020-09-17T09:32:22Z</time>
      </trkpt>
      <trkpt lat="44.74868" lon="5.85489">
        <ele>2096.77</ele>
        <time>2020-09-17T09:32:38Z</time>
      </trkpt>
      <trkpt lat="44.7487" lon="5.85483">
        <ele>2098.21</ele>
        <time>2020-09-17T09:32:51Z</time>
      </trkpt>
      <trkpt lat="44.74871" lon="5.85475">
        <ele>2100.14</ele>
        <time>2020-09-17T09:33:07Z</time>
      </trkpt>
      <trkpt lat="44.74874" lon="5.85467">
        <ele>2102.06</ele>
        <time>2020-09-17T09:33:23Z</time>
      </trkpt>
      <trkpt lat="44.74876" lon="5.85459">
        <ele>2104.46</ele>
        <time>2020-09-17T09:33:41Z</time>
      </trkpt>
      <trkpt lat="44.74878" lon="5.85454">
        <ele>2106.39</ele>
        <time>2020-09-17T09:33:57Z</time>
      </trkpt>
      <trkpt lat="44.74881" lon="5.85447">
        <ele>2108.31</ele>
        <time>2020-09-17T09:34:14Z</time>
      </trkpt>
      <trkpt lat="44.74882" lon="5.85441">
        <ele>2110.71</ele>
        <time>2020-09-17T09:34:30Z</time>
      </trkpt>
      <trkpt lat="44.74885" lon="5.85433">
        <ele>2113.6</ele>
        <time>2020-09-17T09:34:49Z</time>
      </trkpt>
      <trkpt lat="44.74887" lon="5.85428">
        <ele>2115.04</ele>
        <time>2020-09-17T09:35:05Z</time>
      </trkpt>
      <trkpt lat="44.74887" lon="5.85421">
        <ele>2116.96</ele>
        <time>2020-09-17T09:35:19Z</time>
      </trkpt>
      <trkpt lat="44.74888" lon="5.85416">
        <ele>2118.88</ele>
        <time>2020-09-17T09:35:34Z</time>
      </trkpt>
      <trkpt lat="44.74887" lon="5.8541">
        <ele>2121.29</ele>
        <time>2020-09-17T09:35:49Z</time>
      </trkpt>
      <trkpt lat="44.74891" lon="5.85406">
        <ele>2123.21</ele>
        <time>2020-09-17T09:36:05Z</time>
      </trkpt>
      <trkpt lat="44.74893" lon="5.85401">
        <ele>2125.13</ele>
        <time>2020-09-17T09:36:21Z</time>
      </trkpt>
      <trkpt lat="44.74894" lon="5.85394">
        <ele>2126.57</ele>
        <time>2020-09-17T09:36:35Z</time>
      </trkpt>
      <trkpt lat="44.74897" lon="5.85391">
        <ele>2128.02</ele>
        <time>2020-09-17T09:36:48Z</time>
      </trkpt>
      <trkpt lat="44.74897" lon="5.85382">
        <ele>2130.42</ele>
        <time>2020-09-17T09:37:06Z</time>
      </trkpt>
      <trkpt lat="44.74898" lon="5.85376">
        <ele>2132.34</ele>
        <time>2020-09-17T09:37:22Z</time>
      </trkpt>
      <trkpt lat="44.74902" lon="5.85372">
        <ele>2133.78</ele>
        <time>2020-09-17T09:37:37Z</time>
      </trkpt>
      <trkpt lat="44.74903" lon="5.85364">
        <ele>2136.19</ele>
        <time>2020-09-17T09:37:54Z</time>
      </trkpt>
      <trkpt lat="44.74904" lon="5.85359">
        <ele>2138.59</ele>
        <time>2020-09-17T09:38:10Z</time>
      </trkpt>
      <trkpt lat="44.7491" lon="5.85354">
        <ele>2140.99</ele>
        <time>2020-09-17T09:38:27Z</time>
      </trkpt>
      <trkpt lat="44.74913" lon="5.85347">
        <ele>2143.4</ele>
        <time>2020-09-17T09:38:43Z</time>
      </trkpt>
      <trkpt lat="44.74912" lon="5.85341">
        <ele>2144.84</ele>
        <time>2020-09-17T09:38:56Z</time>
      </trkpt>
      <trkpt lat="44.74916" lon="5.85335">
        <ele>2147.24</ele>
        <time>2020-09-17T09:39:14Z</time>
      </trkpt>
      <trkpt lat="44.74918" lon="5.85329">
        <ele>2149.16</ele>
        <time>2020-09-17T09:39:30Z</time>
      </trkpt>
      <trkpt lat="44.7492" lon="5.85324">
        <ele>2151.09</ele>
        <time>2020-09-17T09:39:41Z</time>
      </trkpt>
      <trkpt lat="44.74918" lon="5.85317">
        <ele>2153.01</ele>
        <time>2020-09-17T09:39:55Z</time>
      </trkpt>
      <trkpt lat="44.74918" lon="5.85311">
        <ele>2155.41</ele>
        <time>2020-09-17T09:40:09Z</time>
      </trkpt>
      <trkpt lat="44.74921" lon="5.85305">
        <ele>2156.86</ele>
        <time>2020-09-17T09:40:23Z</time>
      </trkpt>
      <trkpt lat="44.74919" lon="5.85298">
        <ele>2159.26</ele>
        <time>2020-09-17T09:40:37Z</time>
      </trkpt>
      <trkpt lat="44.74923" lon="5.85293">
        <ele>2161.18</ele>
        <time>2020-09-17T09:40:52Z</time>
      </trkpt>
      <trkpt lat="44.74926" lon="5.85288">
        <ele>2163.1</ele>
        <time>2020-09-17T09:41:06Z</time>
      </trkpt>
      <trkpt lat="44.74928" lon="5.85282">
        <ele>2164.55</ele>
        <time>2020-09-17T09:41:19Z</time>
      </trkpt>
      <trkpt lat="44.74929" lon="5.85275">
        <ele>2166.47</ele>
        <time>2020-09-17T09:41:33Z</time>
      </trkpt>
      <trkpt lat="44.7493" lon="5.85268">
        <ele>2168.39</ele>
        <time>2020-09-17T09:41:47Z</time>
      </trkpt>
      <trkpt lat="44.74934" lon="5.85262">
        <ele>2170.31</ele>
        <time>2020-09-17T09:42:01Z</time>
      </trkpt>
      <trkpt lat="44.74938" lon="5.85256">
        <ele>2172.24</ele>
        <time>2020-09-17T09:42:18Z</time>
      </trkpt>
      <trkpt lat="44.74942" lon="5.8525">
        <ele>2174.16</ele>
        <time>2020-09-17T09:42:33Z</time>
      </trkpt>
      <trkpt lat="44.74949" lon="5.85244">
        <ele>2177.04</ele>
        <time>2020-09-17T09:42:52Z</time>
      </trkpt>
      <trkpt lat="44.74955" lon="5.85238">
        <ele>2178.97</ele>
        <time>2020-09-17T09:43:09Z</time>
      </trkpt>
      <trkpt lat="44.74959" lon="5.85233">
        <ele>2180.89</ele>
        <time>2020-09-17T09:43:23Z</time>
      </trkpt>
      <trkpt lat="44.74962" lon="5.85226">
        <ele>2182.81</ele>
        <time>2020-09-17T09:43:38Z</time>
      </trkpt>
      <trkpt lat="44.74966" lon="5.85222">
        <ele>2184.73</ele>
        <time>2020-09-17T09:43:52Z</time>
      </trkpt>
      <trkpt lat="44.74973" lon="5.85222">
        <ele>2187.14</ele>
        <time>2020-09-17T09:44:09Z</time>
      </trkpt>
      <trkpt lat="44.74977" lon="5.85217">
        <ele>2188.58</ele>
        <time>2020-09-17T09:44:22Z</time>
      </trkpt>
      <trkpt lat="44.74982" lon="5.85208">
        <ele>2190.5</ele>
        <time>2020-09-17T09:44:36Z</time>
      </trkpt>
      <trkpt lat="44.7499" lon="5.85208">
        <ele>2192.42</ele>
        <time>2020-09-17T09:44:52Z</time>
      </trkpt>
      <trkpt lat="44.74996" lon="5.85204">
        <ele>2193.87</ele>
        <time>2020-09-17T09:45:07Z</time>
      </trkpt>
      <trkpt lat="44.74996" lon="5.85204">
        <ele>2194.35</ele>
        <time>2020-09-17T09:45:30Z</time>
      </trkpt>
      <trkpt lat="44.74996" lon="5.85203">
        <ele>2194.35</ele>
        <time>2020-09-17T09:46:04Z</time>
      </trkpt>
      <trkpt lat="44.74996" lon="5.85203">
        <ele>2194.35</ele>
        <time>2020-09-17T09:46:32Z</time>
      </trkpt>
      <trkpt lat="44.74996" lon="5.85203">
        <ele>2194.35</ele>
        <time>2020-09-17T09:47:21Z</time>
      </trkpt>
      <trkpt lat="44.74997" lon="5.85202">
        <ele>2194.35</ele>
        <time>2020-09-17T09:47:44Z</time>
      </trkpt>
      <trkpt lat="44.75001" lon="5.85192">
        <ele>2193.87</ele>
        <time>2020-09-17T09:48:03Z</time>
      </trkpt>
      <trkpt lat="44.75004" lon="5.85182">
        <ele>2194.35</ele>
        <time>2020-09-17T09:48:19Z</time>
      </trkpt>
      <trkpt lat="44.75006" lon="5.85171">
        <ele>2195.79</ele>
        <time>2020-09-17T09:48:35Z</time>
      </trkpt>
      <trkpt lat="44.75008" lon="5.85164">
        <ele>2197.71</ele>
        <time>2020-09-17T09:48:51Z</time>
      </trkpt>
      <trkpt lat="44.75009" lon="5.85156">
        <ele>2199.15</ele>
        <time>2020-09-17T09:49:07Z</time>
      </trkpt>
      <trkpt lat="44.75011" lon="5.85153">
        <ele>2200.59</ele>
        <time>2020-09-17T09:49:19Z</time>
      </trkpt>
      <trkpt lat="44.75015" lon="5.8515">
        <ele>2203.48</ele>
        <time>2020-09-17T09:49:36Z</time>
      </trkpt>
      <trkpt lat="44.75018" lon="5.85145">
        <ele>2205.4</ele>
        <time>2020-09-17T09:49:56Z</time>
      </trkpt>
      <trkpt lat="44.75019" lon="5.85138">
        <ele>2207.81</ele>
        <time>2020-09-17T09:50:15Z</time>
      </trkpt>
      <trkpt lat="44.75025" lon="5.85134">
        <ele>2210.21</ele>
        <time>2020-09-17T09:50:33Z</time>
      </trkpt>
      <trkpt lat="44.75028" lon="5.85129">
        <ele>2211.17</ele>
        <time>2020-09-17T09:50:46Z</time>
      </trkpt>
      <trkpt lat="44.75032" lon="5.85124">
        <ele>2213.57</ele>
        <time>2020-09-17T09:51:04Z</time>
      </trkpt>
      <trkpt lat="44.75035" lon="5.85119">
        <ele>2215.01</ele>
        <time>2020-09-17T09:51:18Z</time>
      </trkpt>
      <trkpt lat="44.75037" lon="5.85115">
        <ele>2217.9</ele>
        <time>2020-09-17T09:51:34Z</time>
      </trkpt>
      <trkpt lat="44.7504" lon="5.85112">
        <ele>2220.3</ele>
        <time>2020-09-17T09:51:48Z</time>
      </trkpt>
      <trkpt lat="44.75044" lon="5.85105">
        <ele>2223.19</ele>
        <time>2020-09-17T09:52:06Z</time>
      </trkpt>
      <trkpt lat="44.75047" lon="5.85099">
        <ele>2225.11</ele>
        <time>2020-09-17T09:52:20Z</time>
      </trkpt>
      <trkpt lat="44.75051" lon="5.85094">
        <ele>2226.55</ele>
        <time>2020-09-17T09:52:34Z</time>
      </trkpt>
      <trkpt lat="44.75055" lon="5.85089">
        <ele>2228.95</ele>
        <time>2020-09-17T09:52:51Z</time>
      </trkpt>
      <trkpt lat="44.75059" lon="5.85084">
        <ele>2230.4</ele>
        <time>2020-09-17T09:53:05Z</time>
      </trkpt>
      <trkpt lat="44.75063" lon="5.85079">
        <ele>2232.32</ele>
        <time>2020-09-17T09:53:22Z</time>
      </trkpt>
      <trkpt lat="44.75066" lon="5.85077">
        <ele>2233.76</ele>
        <time>2020-09-17T09:53:34Z</time>
      </trkpt>
      <trkpt lat="44.7507" lon="5.85072">
        <ele>2236.16</ele>
        <time>2020-09-17T09:53:48Z</time>
      </trkpt>
      <trkpt lat="44.75074" lon="5.85067">
        <ele>2237.61</ele>
        <time>2020-09-17T09:54:03Z</time>
      </trkpt>
      <trkpt lat="44.75077" lon="5.85061">
        <ele>2240.01</ele>
        <time>2020-09-17T09:54:18Z</time>
      </trkpt>
      <trkpt lat="44.7508" lon="5.85056">
        <ele>2241.93</ele>
        <time>2020-09-17T09:54:33Z</time>
      </trkpt>
      <trkpt lat="44.75085" lon="5.8505">
        <ele>2244.33</ele>
        <time>2020-09-17T09:54:52Z</time>
      </trkpt>
      <trkpt lat="44.75089" lon="5.85044">
        <ele>2245.78</ele>
        <time>2020-09-17T09:55:05Z</time>
      </trkpt>
      <trkpt lat="44.75093" lon="5.85036">
        <ele>2248.18</ele>
        <time>2020-09-17T09:55:21Z</time>
      </trkpt>
      <trkpt lat="44.75094" lon="5.85029">
        <ele>2249.62</ele>
        <time>2020-09-17T09:55:34Z</time>
      </trkpt>
      <trkpt lat="44.75097" lon="5.85023">
        <ele>2252.03</ele>
        <time>2020-09-17T09:55:50Z</time>
      </trkpt>
      <trkpt lat="44.751" lon="5.85012">
        <ele>2253.95</ele>
        <time>2020-09-17T09:56:07Z</time>
      </trkpt>
      <trkpt lat="44.75102" lon="5.85003">
        <ele>2255.87</ele>
        <time>2020-09-17T09:56:22Z</time>
      </trkpt>
      <trkpt lat="44.75105" lon="5.84991">
        <ele>2257.79</ele>
        <time>2020-09-17T09:56:36Z</time>
      </trkpt>
      <trkpt lat="44.75108" lon="5.84981">
        <ele>2259.72</ele>
        <time>2020-09-17T09:56:52Z</time>
      </trkpt>
      <trkpt lat="44.75108" lon="5.84967">
        <ele>2261.64</ele>
        <time>2020-09-17T09:57:07Z</time>
      </trkpt>
      <trkpt lat="44.75114" lon="5.84958">
        <ele>2263.56</ele>
        <time>2020-09-17T09:57:21Z</time>
      </trkpt>
      <trkpt lat="44.75121" lon="5.8495">
        <ele>2265.48</ele>
        <time>2020-09-17T09:57:36Z</time>
      </trkpt>
      <trkpt lat="44.75122" lon="5.84933">
        <ele>2267.41</ele>
        <time>2020-09-17T09:57:52Z</time>
      </trkpt>
      <trkpt lat="44.75123" lon="5.8492">
        <ele>2265.48</ele>
        <time>2020-09-17T09:58:07Z</time>
      </trkpt>
      <trkpt lat="44.75126" lon="5.84907">
        <ele>2266.93</ele>
        <time>2020-09-17T09:58:24Z</time>
      </trkpt>
      <trkpt lat="44.75127" lon="5.84896">
        <ele>2269.81</ele>
        <time>2020-09-17T09:58:41Z</time>
      </trkpt>
      <trkpt lat="44.75129" lon="5.84886">
        <ele>2271.25</ele>
        <time>2020-09-17T09:58:58Z</time>
      </trkpt>
      <trkpt lat="44.75129" lon="5.8487">
        <ele>2273.17</ele>
        <time>2020-09-17T09:59:19Z</time>
      </trkpt>
      <trkpt lat="44.75129" lon="5.84867">
        <ele>2276.06</ele>
        <time>2020-09-17T09:59:44Z</time>
      </trkpt>
      <trkpt lat="44.75129" lon="5.84867">
        <ele>2275.1</ele>
        <time>2020-09-17T10:00:13Z</time>
      </trkpt>
      <trkpt lat="44.75129" lon="5.84867">
        <ele>2275.1</ele>
        <time>2020-09-17T10:00:46Z</time>
      </trkpt>
      <trkpt lat="44.75129" lon="5.84863">
        <ele>2274.62</ele>
        <time>2020-09-17T10:01:07Z</time>
      </trkpt>
      <trkpt lat="44.7513" lon="5.84858">
        <ele>2274.14</ele>
        <time>2020-09-17T10:01:24Z</time>
      </trkpt>
      <trkpt lat="44.75131" lon="5.84849">
        <ele>2272.69</ele>
        <time>2020-09-17T10:01:38Z</time>
      </trkpt>
      <trkpt lat="44.75134" lon="5.84839">
        <ele>2272.21</ele>
        <time>2020-09-17T10:01:48Z</time>
      </trkpt>
      <trkpt lat="44.75135" lon="5.84836">
        <ele>2271.73</ele>
        <time>2020-09-17T10:01:51Z</time>
      </trkpt>
      <trkpt lat="44.75138" lon="5.84824">
        <ele>2272.69</ele>
        <time>2020-09-17T10:02:06Z</time>
      </trkpt>
      <trkpt lat="44.7514" lon="5.84814">
        <ele>2273.17</ele>
        <time>2020-09-17T10:02:20Z</time>
      </trkpt>
      <trkpt lat="44.75142" lon="5.84801">
        <ele>2274.62</ele>
        <time>2020-09-17T10:02:35Z</time>
      </trkpt>
      <trkpt lat="44.75145" lon="5.84788">
        <ele>2275.58</ele>
        <time>2020-09-17T10:02:49Z</time>
      </trkpt>
      <trkpt lat="44.75149" lon="5.84779">
        <ele>2275.58</ele>
        <time>2020-09-17T10:03:03Z</time>
      </trkpt>
      <trkpt lat="44.75154" lon="5.84767">
        <ele>2275.58</ele>
        <time>2020-09-17T10:03:17Z</time>
      </trkpt>
      <trkpt lat="44.75159" lon="5.84751">
        <ele>2276.06</ele>
        <time>2020-09-17T10:03:33Z</time>
      </trkpt>
      <trkpt lat="44.75161" lon="5.8474">
        <ele>2277.02</ele>
        <time>2020-09-17T10:03:45Z</time>
      </trkpt>
      <trkpt lat="44.75165" lon="5.84728">
        <ele>2278.94</ele>
        <time>2020-09-17T10:04:01Z</time>
      </trkpt>
      <trkpt lat="44.75168" lon="5.84715">
        <ele>2279.9</ele>
        <time>2020-09-17T10:04:16Z</time>
      </trkpt>
      <trkpt lat="44.75173" lon="5.84702">
        <ele>2282.31</ele>
        <time>2020-09-17T10:04:35Z</time>
      </trkpt>
      <trkpt lat="44.75176" lon="5.84691">
        <ele>2284.23</ele>
        <time>2020-09-17T10:04:54Z</time>
      </trkpt>
      <trkpt lat="44.75176" lon="5.84682">
        <ele>2286.63</ele>
        <time>2020-09-17T10:05:13Z</time>
      </trkpt>
      <trkpt lat="44.7518" lon="5.84672">
        <ele>2289.52</ele>
        <time>2020-09-17T10:05:30Z</time>
      </trkpt>
      <trkpt lat="44.75185" lon="5.84664">
        <ele>2290.48</ele>
        <time>2020-09-17T10:05:44Z</time>
      </trkpt>
      <trkpt lat="44.7519" lon="5.84652">
        <ele>2291.92</ele>
        <time>2020-09-17T10:06:00Z</time>
      </trkpt>
      <trkpt lat="44.75195" lon="5.8464">
        <ele>2293.36</ele>
        <time>2020-09-17T10:06:16Z</time>
      </trkpt>
      <trkpt lat="44.75197" lon="5.8463">
        <ele>2295.77</ele>
        <time>2020-09-17T10:06:31Z</time>
      </trkpt>
      <trkpt lat="44.75201" lon="5.84623">
        <ele>2298.17</ele>
        <time>2020-09-17T10:06:48Z</time>
      </trkpt>
      <trkpt lat="44.75204" lon="5.84616">
        <ele>2300.57</ele>
        <time>2020-09-17T10:07:03Z</time>
      </trkpt>
      <trkpt lat="44.75205" lon="5.8461">
        <ele>2302.98</ele>
        <time>2020-09-17T10:07:18Z</time>
      </trkpt>
      <trkpt lat="44.75207" lon="5.84605">
        <ele>2304.9</ele>
        <time>2020-09-17T10:07:32Z</time>
      </trkpt>
      <trkpt lat="44.75212" lon="5.84594">
        <ele>2306.82</ele>
        <time>2020-09-17T10:07:49Z</time>
      </trkpt>
      <trkpt lat="44.75214" lon="5.84586">
        <ele>2308.74</ele>
        <time>2020-09-17T10:08:04Z</time>
      </trkpt>
      <trkpt lat="44.75217" lon="5.8458">
        <ele>2310.19</ele>
        <time>2020-09-17T10:08:18Z</time>
      </trkpt>
      <trkpt lat="44.75221" lon="5.84574">
        <ele>2312.59</ele>
        <time>2020-09-17T10:08:34Z</time>
      </trkpt>
      <trkpt lat="44.75224" lon="5.84571">
        <ele>2314.03</ele>
        <time>2020-09-17T10:08:48Z</time>
      </trkpt>
      <trkpt lat="44.75229" lon="5.84566">
        <ele>2316.91</ele>
        <time>2020-09-17T10:09:08Z</time>
      </trkpt>
      <trkpt lat="44.75231" lon="5.84561">
        <ele>2318.84</ele>
        <time>2020-09-17T10:09:23Z</time>
      </trkpt>
      <trkpt lat="44.75234" lon="5.84558">
        <ele>2320.76</ele>
        <time>2020-09-17T10:09:39Z</time>
      </trkpt>
      <trkpt lat="44.75237" lon="5.84554">
        <ele>2323.16</ele>
        <time>2020-09-17T10:09:53Z</time>
      </trkpt>
      <trkpt lat="44.75242" lon="5.84549">
        <ele>2325.57</ele>
        <time>2020-09-17T10:10:14Z</time>
      </trkpt>
      <trkpt lat="44.75242" lon="5.84547">
        <ele>2327.49</ele>
        <time>2020-09-17T10:10:28Z</time>
      </trkpt>
      <trkpt lat="44.75244" lon="5.84543">
        <ele>2329.41</ele>
        <time>2020-09-17T10:10:42Z</time>
      </trkpt>
      <trkpt lat="44.75245" lon="5.84539">
        <ele>2332.3</ele>
        <time>2020-09-17T10:10:56Z</time>
      </trkpt>
      <trkpt lat="44.75248" lon="5.84534">
        <ele>2334.7</ele>
        <time>2020-09-17T10:11:14Z</time>
      </trkpt>
      <trkpt lat="44.75249" lon="5.84529">
        <ele>2336.62</ele>
        <time>2020-09-17T10:11:30Z</time>
      </trkpt>
      <trkpt lat="44.75253" lon="5.84524">
        <ele>2339.02</ele>
        <time>2020-09-17T10:11:49Z</time>
      </trkpt>
      <trkpt lat="44.75257" lon="5.84519">
        <ele>2341.43</ele>
        <time>2020-09-17T10:12:05Z</time>
      </trkpt>
      <trkpt lat="44.75261" lon="5.84515">
        <ele>2343.35</ele>
        <time>2020-09-17T10:12:21Z</time>
      </trkpt>
      <trkpt lat="44.75262" lon="5.84511">
        <ele>2345.27</ele>
        <time>2020-09-17T10:12:37Z</time>
      </trkpt>
      <trkpt lat="44.75265" lon="5.84507">
        <ele>2347.2</ele>
        <time>2020-09-17T10:12:52Z</time>
      </trkpt>
      <trkpt lat="44.75266" lon="5.84503">
        <ele>2349.6</ele>
        <time>2020-09-17T10:13:09Z</time>
      </trkpt>
      <trkpt lat="44.75268" lon="5.84501">
        <ele>2352</ele>
        <time>2020-09-17T10:13:24Z</time>
      </trkpt>
      <trkpt lat="44.75271" lon="5.84495">
        <ele>2354.41</ele>
        <time>2020-09-17T10:13:40Z</time>
      </trkpt>
      <trkpt lat="44.75276" lon="5.84492">
        <ele>2356.81</ele>
        <time>2020-09-17T10:13:57Z</time>
      </trkpt>
      <trkpt lat="44.7528" lon="5.8449">
        <ele>2358.25</ele>
        <time>2020-09-17T10:14:12Z</time>
      </trkpt>
      <trkpt lat="44.75283" lon="5.84485">
        <ele>2360.17</ele>
        <time>2020-09-17T10:14:29Z</time>
      </trkpt>
      <trkpt lat="44.75286" lon="5.84481">
        <ele>2362.1</ele>
        <time>2020-09-17T10:14:44Z</time>
      </trkpt>
      <trkpt lat="44.7529" lon="5.84475">
        <ele>2364.98</ele>
        <time>2020-09-17T10:15:01Z</time>
      </trkpt>
      <trkpt lat="44.75291" lon="5.84471">
        <ele>2366.42</ele>
        <time>2020-09-17T10:15:13Z</time>
      </trkpt>
      <trkpt lat="44.75294" lon="5.84468">
        <ele>2367.86</ele>
        <time>2020-09-17T10:15:30Z</time>
      </trkpt>
      <trkpt lat="44.75294" lon="5.84464">
        <ele>2370.27</ele>
        <time>2020-09-17T10:15:47Z</time>
      </trkpt>
      <trkpt lat="44.75299" lon="5.84459">
        <ele>2372.19</ele>
        <time>2020-09-17T10:16:02Z</time>
      </trkpt>
      <trkpt lat="44.75306" lon="5.84454">
        <ele>2374.59</ele>
        <time>2020-09-17T10:16:22Z</time>
      </trkpt>
      <trkpt lat="44.75312" lon="5.84449">
        <ele>2377</ele>
        <time>2020-09-17T10:16:40Z</time>
      </trkpt>
      <trkpt lat="44.75319" lon="5.84443">
        <ele>2380.36</ele>
        <time>2020-09-17T10:16:58Z</time>
      </trkpt>
      <trkpt lat="44.75328" lon="5.84437">
        <ele>2382.76</ele>
        <time>2020-09-17T10:17:15Z</time>
      </trkpt>
      <trkpt lat="44.75337" lon="5.84432">
        <ele>2385.17</ele>
        <time>2020-09-17T10:17:34Z</time>
      </trkpt>
      <trkpt lat="44.75347" lon="5.84425">
        <ele>2387.57</ele>
        <time>2020-09-17T10:17:53Z</time>
      </trkpt>
      <trkpt lat="44.75357" lon="5.84418">
        <ele>2389.49</ele>
        <time>2020-09-17T10:18:11Z</time>
      </trkpt>
      <trkpt lat="44.75363" lon="5.84409">
        <ele>2391.9</ele>
        <time>2020-09-17T10:18:28Z</time>
      </trkpt>
      <trkpt lat="44.7537" lon="5.84402">
        <ele>2394.78</ele>
        <time>2020-09-17T10:18:47Z</time>
      </trkpt>
      <trkpt lat="44.75377" lon="5.84395">
        <ele>2397.67</ele>
        <time>2020-09-17T10:19:03Z</time>
      </trkpt>
      <trkpt lat="44.75385" lon="5.84388">
        <ele>2401.03</ele>
        <time>2020-09-17T10:19:18Z</time>
      </trkpt>
      <trkpt lat="44.75391" lon="5.84383">
        <ele>2403.43</ele>
        <time>2020-09-17T10:19:34Z</time>
      </trkpt>
      <trkpt lat="44.75399" lon="5.84376">
        <ele>2406.8</ele>
        <time>2020-09-17T10:19:55Z</time>
      </trkpt>
      <trkpt lat="44.75403" lon="5.84371">
        <ele>2409.2</ele>
        <time>2020-09-17T10:20:13Z</time>
      </trkpt>
      <trkpt lat="44.75409" lon="5.84365">
        <ele>2411.12</ele>
        <time>2020-09-17T10:20:29Z</time>
      </trkpt>
      <trkpt lat="44.75414" lon="5.8436">
        <ele>2413.05</ele>
        <time>2020-09-17T10:20:43Z</time>
      </trkpt>
      <trkpt lat="44.75422" lon="5.8435">
        <ele>2415.45</ele>
        <time>2020-09-17T10:21:03Z</time>
      </trkpt>
      <trkpt lat="44.75426" lon="5.84344">
        <ele>2417.85</ele>
        <time>2020-09-17T10:21:16Z</time>
      </trkpt>
      <trkpt lat="44.75432" lon="5.84337">
        <ele>2419.3</ele>
        <time>2020-09-17T10:21:31Z</time>
      </trkpt>
      <trkpt lat="44.75437" lon="5.84332">
        <ele>2421.22</ele>
        <time>2020-09-17T10:21:45Z</time>
      </trkpt>
      <trkpt lat="44.75444" lon="5.84328">
        <ele>2423.62</ele>
        <time>2020-09-17T10:22:03Z</time>
      </trkpt>
      <trkpt lat="44.75444" lon="5.84329">
        <ele>2425.06</ele>
        <time>2020-09-17T10:22:28Z</time>
      </trkpt>
      <trkpt lat="44.75445" lon="5.84329">
        <ele>2424.58</ele>
        <time>2020-09-17T10:23:00Z</time>
      </trkpt>
      <trkpt lat="44.75444" lon="5.8433">
        <ele>2425.54</ele>
        <time>2020-09-17T10:23:19Z</time>
      </trkpt>
      <trkpt lat="44.75445" lon="5.8433">
        <ele>2426.02</ele>
        <time>2020-09-17T10:23:46Z</time>
      </trkpt>
      <trkpt lat="44.75444" lon="5.8433">
        <ele>2425.06</ele>
        <time>2020-09-17T10:24:08Z</time>
      </trkpt>
      <trkpt lat="44.75443" lon="5.84328">
        <ele>2424.58</ele>
        <time>2020-09-17T10:24:39Z</time>
      </trkpt>
      <trkpt lat="44.75444" lon="5.84327">
        <ele>2426.02</ele>
        <time>2020-09-17T10:24:59Z</time>
      </trkpt>
      <trkpt lat="44.75447" lon="5.84325">
        <ele>2426.5</ele>
        <time>2020-09-17T10:25:31Z</time>
      </trkpt>
      <trkpt lat="44.75457" lon="5.84322">
        <ele>2427.47</ele>
        <time>2020-09-17T10:25:47Z</time>
      </trkpt>
      <trkpt lat="44.75461" lon="5.84319">
        <ele>2427.47</ele>
        <time>2020-09-17T10:25:53Z</time>
      </trkpt>
      <trkpt lat="44.75471" lon="5.84305">
        <ele>2426.5</ele>
        <time>2020-09-17T10:26:09Z</time>
      </trkpt>
      <trkpt lat="44.75477" lon="5.84296">
        <ele>2426.5</ele>
        <time>2020-09-17T10:26:24Z</time>
      </trkpt>
      <trkpt lat="44.75483" lon="5.84285">
        <ele>2428.43</ele>
        <time>2020-09-17T10:26:40Z</time>
      </trkpt>
      <trkpt lat="44.75492" lon="5.84271">
        <ele>2430.35</ele>
        <time>2020-09-17T10:27:00Z</time>
      </trkpt>
      <trkpt lat="44.75499" lon="5.84263">
        <ele>2431.79</ele>
        <time>2020-09-17T10:27:15Z</time>
      </trkpt>
      <trkpt lat="44.75506" lon="5.84255">
        <ele>2434.2</ele>
        <time>2020-09-17T10:27:35Z</time>
      </trkpt>
      <trkpt lat="44.75512" lon="5.84247">
        <ele>2436.12</ele>
        <time>2020-09-17T10:27:50Z</time>
      </trkpt>
      <trkpt lat="44.75517" lon="5.84245">
        <ele>2438.04</ele>
        <time>2020-09-17T10:28:05Z</time>
      </trkpt>
      <trkpt lat="44.75524" lon="5.84245">
        <ele>2440.92</ele>
        <time>2020-09-17T10:28:20Z</time>
      </trkpt>
      <trkpt lat="44.7553" lon="5.84246">
        <ele>2442.85</ele>
        <time>2020-09-17T10:28:37Z</time>
      </trkpt>
      <trkpt lat="44.75536" lon="5.84244">
        <ele>2444.77</ele>
        <time>2020-09-17T10:28:55Z</time>
      </trkpt>
      <trkpt lat="44.75537" lon="5.84241">
        <ele>2445.73</ele>
        <time>2020-09-17T10:29:07Z</time>
      </trkpt>
      <trkpt lat="44.75539" lon="5.84237">
        <ele>2447.17</ele>
        <time>2020-09-17T10:29:20Z</time>
      </trkpt>
      <trkpt lat="44.75539" lon="5.84232">
        <ele>2448.13</ele>
        <time>2020-09-17T10:29:32Z</time>
      </trkpt>
      <trkpt lat="44.75542" lon="5.84229">
        <ele>2449.58</ele>
        <time>2020-09-17T10:29:48Z</time>
      </trkpt>
      <trkpt lat="44.75544" lon="5.84225">
        <ele>2451.5</ele>
        <time>2020-09-17T10:30:02Z</time>
      </trkpt>
      <trkpt lat="44.75547" lon="5.84219">
        <ele>2453.42</ele>
        <time>2020-09-17T10:30:21Z</time>
      </trkpt>
      <trkpt lat="44.75547" lon="5.84218">
        <ele>2455.82</ele>
        <time>2020-09-17T10:30:37Z</time>
      </trkpt>
      <trkpt lat="44.75547" lon="5.84216">
        <ele>2457.27</ele>
        <time>2020-09-17T10:30:49Z</time>
      </trkpt>
      <trkpt lat="44.75547" lon="5.84212">
        <ele>2459.19</ele>
        <time>2020-09-17T10:31:00Z</time>
      </trkpt>
      <trkpt lat="44.75549" lon="5.84208">
        <ele>2461.59</ele>
        <time>2020-09-17T10:31:18Z</time>
      </trkpt>
      <trkpt lat="44.75552" lon="5.84206">
        <ele>2463.52</ele>
        <time>2020-09-17T10:31:35Z</time>
      </trkpt>
      <trkpt lat="44.75555" lon="5.84199">
        <ele>2465.92</ele>
        <time>2020-09-17T10:31:54Z</time>
      </trkpt>
      <trkpt lat="44.75559" lon="5.84196">
        <ele>2468.32</ele>
        <time>2020-09-17T10:32:10Z</time>
      </trkpt>
      <trkpt lat="44.75564" lon="5.8419">
        <ele>2471.21</ele>
        <time>2020-09-17T10:32:25Z</time>
      </trkpt>
      <trkpt lat="44.7557" lon="5.84185">
        <ele>2473.61</ele>
        <time>2020-09-17T10:32:41Z</time>
      </trkpt>
      <trkpt lat="44.75577" lon="5.84186">
        <ele>2476.01</ele>
        <time>2020-09-17T10:32:59Z</time>
      </trkpt>
      <trkpt lat="44.75586" lon="5.84188">
        <ele>2477.94</ele>
        <time>2020-09-17T10:33:16Z</time>
      </trkpt>
      <trkpt lat="44.75593" lon="5.84182">
        <ele>2480.34</ele>
        <time>2020-09-17T10:33:32Z</time>
      </trkpt>
      <trkpt lat="44.75604" lon="5.84173">
        <ele>2483.22</ele>
        <time>2020-09-17T10:33:54Z</time>
      </trkpt>
      <trkpt lat="44.75612" lon="5.84169">
        <ele>2484.18</ele>
        <time>2020-09-17T10:34:09Z</time>
      </trkpt>
      <trkpt lat="44.75621" lon="5.84168">
        <ele>2486.11</ele>
        <time>2020-09-17T10:34:25Z</time>
      </trkpt>
      <trkpt lat="44.75629" lon="5.84165">
        <ele>2488.03</ele>
        <time>2020-09-17T10:34:39Z</time>
      </trkpt>
      <trkpt lat="44.75636" lon="5.84157">
        <ele>2489.47</ele>
        <time>2020-09-17T10:34:55Z</time>
      </trkpt>
      <trkpt lat="44.75643" lon="5.84154">
        <ele>2491.87</ele>
        <time>2020-09-17T10:35:11Z</time>
      </trkpt>
      <trkpt lat="44.75649" lon="5.8415">
        <ele>2493.8</ele>
        <time>2020-09-17T10:35:26Z</time>
      </trkpt>
      <trkpt lat="44.75653" lon="5.84143">
        <ele>2496.2</ele>
        <time>2020-09-17T10:35:39Z</time>
      </trkpt>
      <trkpt lat="44.75659" lon="5.84141">
        <ele>2498.6</ele>
        <time>2020-09-17T10:35:54Z</time>
      </trkpt>
      <trkpt lat="44.75664" lon="5.84134">
        <ele>2500.53</ele>
        <time>2020-09-17T10:36:11Z</time>
      </trkpt>
      <trkpt lat="44.7567" lon="5.84132">
        <ele>2502.45</ele>
        <time>2020-09-17T10:36:26Z</time>
      </trkpt>
      <trkpt lat="44.75675" lon="5.84128">
        <ele>2503.89</ele>
        <time>2020-09-17T10:36:38Z</time>
      </trkpt>
      <trkpt lat="44.75679" lon="5.84121">
        <ele>2505.81</ele>
        <time>2020-09-17T10:36:52Z</time>
      </trkpt>
      <trkpt lat="44.75688" lon="5.84113">
        <ele>2508.22</ele>
        <time>2020-09-17T10:37:09Z</time>
      </trkpt>
      <trkpt lat="44.75694" lon="5.84103">
        <ele>2508.7</ele>
        <time>2020-09-17T10:37:24Z</time>
      </trkpt>
      <trkpt lat="44.75699" lon="5.84097">
        <ele>2510.62</ele>
        <time>2020-09-17T10:37:41Z</time>
      </trkpt>
      <trkpt lat="44.75705" lon="5.84094">
        <ele>2512.54</ele>
        <time>2020-09-17T10:37:58Z</time>
      </trkpt>
      <trkpt lat="44.75707" lon="5.84091">
        <ele>2512.54</ele>
        <time>2020-09-17T10:38:09Z</time>
      </trkpt>
      <trkpt lat="44.75707" lon="5.84091">
        <ele>2510.62</ele>
        <time>2020-09-17T10:38:12Z</time>
      </trkpt>
      <trkpt lat="44.75707" lon="5.84091">
        <ele>2509.18</ele>
        <time>2020-09-17T10:38:23Z</time>
      </trkpt>
      <trkpt lat="44.75706" lon="5.84091">
        <ele>2512.54</ele>
        <time>2020-09-17T10:38:33Z</time>
      </trkpt>
      <trkpt lat="44.75706" lon="5.84091">
        <ele>2509.18</ele>
        <time>2020-09-17T10:38:39Z</time>
      </trkpt>
      <trkpt lat="44.75706" lon="5.84091">
        <ele>2508.22</ele>
        <time>2020-09-17T10:38:41Z</time>
      </trkpt>
      <trkpt lat="44.75706" lon="5.84091">
        <ele>2509.66</ele>
        <time>2020-09-17T10:38:46Z</time>
      </trkpt>
      <trkpt lat="44.75706" lon="5.84091">
        <ele>2513.02</ele>
        <time>2020-09-17T10:39:03Z</time>
      </trkpt>
      <trkpt lat="44.75706" lon="5.84091">
        <ele>2513.98</ele>
        <time>2020-09-17T10:39:05Z</time>
      </trkpt>
      <trkpt lat="44.75705" lon="5.84091">
        <ele>2511.1</ele>
        <time>2020-09-17T10:39:23Z</time>
      </trkpt>
      <trkpt lat="44.75705" lon="5.84091">
        <ele>2511.58</ele>
        <time>2020-09-17T10:39:59Z</time>
      </trkpt>
      <trkpt lat="44.75703" lon="5.84084">
        <ele>2511.58</ele>
        <time>2020-09-17T10:40:16Z</time>
      </trkpt>
      <trkpt lat="44.75705" lon="5.84077">
        <ele>2511.58</ele>
        <time>2020-09-17T10:40:29Z</time>
      </trkpt>
      <trkpt lat="44.75705" lon="5.84072">
        <ele>2511.58</ele>
        <time>2020-09-17T10:40:44Z</time>
      </trkpt>
      <trkpt lat="44.75703" lon="5.84071">
        <ele>2508.22</ele>
        <time>2020-09-17T10:40:48Z</time>
      </trkpt>
      <trkpt lat="44.75703" lon="5.84071">
        <ele>2507.74</ele>
        <time>2020-09-17T10:40:49Z</time>
      </trkpt>
      <trkpt lat="44.75702" lon="5.84065">
        <ele>2505.81</ele>
        <time>2020-09-17T10:41:03Z</time>
      </trkpt>
      <trkpt lat="44.75703" lon="5.84056">
        <ele>2504.37</ele>
        <time>2020-09-17T10:41:18Z</time>
      </trkpt>
      <trkpt lat="44.75705" lon="5.84054">
        <ele>2502.93</ele>
        <time>2020-09-17T10:41:34Z</time>
      </trkpt>
      <trkpt lat="44.75703" lon="5.84055">
        <ele>2502.45</ele>
        <time>2020-09-17T10:41:38Z</time>
      </trkpt>
      <trkpt lat="44.75702" lon="5.84057">
        <ele>2502.93</ele>
        <time>2020-09-17T10:41:51Z</time>
      </trkpt>
      <trkpt lat="44.75703" lon="5.84057">
        <ele>2502.45</ele>
        <time>2020-09-17T10:42:12Z</time>
      </trkpt>
      <trkpt lat="44.75703" lon="5.84056">
        <ele>2502.45</ele>
        <time>2020-09-17T10:42:44Z</time>
      </trkpt>
      <trkpt lat="44.75704" lon="5.84054">
        <ele>2501.97</ele>
        <time>2020-09-17T10:43:16Z</time>
      </trkpt>
      <trkpt lat="44.75704" lon="5.84054">
        <ele>2501.01</ele>
        <time>2020-09-17T10:44:14Z</time>
      </trkpt>
      <trkpt lat="44.75701" lon="5.84057">
        <ele>2501.49</ele>
        <time>2020-09-17T10:44:58Z</time>
      </trkpt>
      <trkpt lat="44.75697" lon="5.84056">
        <ele>2501.01</ele>
        <time>2020-09-17T10:46:04Z</time>
      </trkpt>
      <trkpt lat="44.75702" lon="5.84056">
        <ele>2501.01</ele>
        <time>2020-09-17T10:46:57Z</time>
      </trkpt>
      <trkpt lat="44.75699" lon="5.84053">
        <ele>2501.01</ele>
        <time>2020-09-17T10:47:33Z</time>
      </trkpt>
      <trkpt lat="44.75702" lon="5.84054">
        <ele>2501.01</ele>
        <time>2020-09-17T10:47:59Z</time>
      </trkpt>
      <trkpt lat="44.75707" lon="5.84053">
        <ele>2501.01</ele>
        <time>2020-09-17T10:48:16Z</time>
      </trkpt>
      <trkpt lat="44.75697" lon="5.84061">
        <ele>2500.53</ele>
        <time>2020-09-17T10:48:34Z</time>
      </trkpt>
      <trkpt lat="44.75695" lon="5.84067">
        <ele>2501.01</ele>
        <time>2020-09-17T10:48:48Z</time>
      </trkpt>
      <trkpt lat="44.75695" lon="5.84073">
        <ele>2501.01</ele>
        <time>2020-09-17T10:49:02Z</time>
      </trkpt>
      <trkpt lat="44.75699" lon="5.8406">
        <ele>2501.49</ele>
        <time>2020-09-17T10:49:15Z</time>
      </trkpt>
      <trkpt lat="44.75693" lon="5.84053">
        <ele>2500.53</ele>
        <time>2020-09-17T10:49:34Z</time>
      </trkpt>
      <trkpt lat="44.75697" lon="5.84057">
        <ele>2500.53</ele>
        <time>2020-09-17T10:49:46Z</time>
      </trkpt>
      <trkpt lat="44.75701" lon="5.84053">
        <ele>2501.01</ele>
        <time>2020-09-17T10:50:02Z</time>
      </trkpt>
      <trkpt lat="44.75701" lon="5.84054">
        <ele>2501.01</ele>
        <time>2020-09-17T10:50:14Z</time>
      </trkpt>
      <trkpt lat="44.757" lon="5.84058">
        <ele>2501.01</ele>
        <time>2020-09-17T10:50:27Z</time>
      </trkpt>
      <trkpt lat="44.7571" lon="5.84068">
        <ele>2501.97</ele>
        <time>2020-09-17T10:50:43Z</time>
      </trkpt>
      <trkpt lat="44.7571" lon="5.84065">
        <ele>2501.49</ele>
        <time>2020-09-17T10:50:52Z</time>
      </trkpt>
      <trkpt lat="44.7571" lon="5.84069">
        <ele>2501.49</ele>
        <time>2020-09-17T10:50:55Z</time>
      </trkpt>
      <trkpt lat="44.75716" lon="5.84079">
        <ele>2501.49</ele>
        <time>2020-09-17T10:51:04Z</time>
      </trkpt>
      <trkpt lat="44.75715" lon="5.84052">
        <ele>2501.49</ele>
        <time>2020-09-17T10:51:18Z</time>
      </trkpt>
      <trkpt lat="44.75715" lon="5.84051">
        <ele>2501.01</ele>
        <time>2020-09-17T10:51:34Z</time>
      </trkpt>
      <trkpt lat="44.75722" lon="5.84041">
        <ele>2501.49</ele>
        <time>2020-09-17T10:51:54Z</time>
      </trkpt>
      <trkpt lat="44.75726" lon="5.84028">
        <ele>2501.49</ele>
        <time>2020-09-17T10:52:14Z</time>
      </trkpt>
      <trkpt lat="44.7573" lon="5.84024">
        <ele>2501.49</ele>
        <time>2020-09-17T10:52:29Z</time>
      </trkpt>
      <trkpt lat="44.7573" lon="5.84024">
        <ele>2501.49</ele>
        <time>2020-09-17T10:52:57Z</time>
      </trkpt>
      <trkpt lat="44.7573" lon="5.84024">
        <ele>2501.49</ele>
        <time>2020-09-17T10:52:58Z</time>
      </trkpt>
      <trkpt lat="44.75708" lon="5.8405">
        <ele>2501.49</ele>
        <time>2020-09-17T10:52:59Z</time>
      </trkpt>
      <trkpt lat="44.75708" lon="5.84062">
        <ele>2501.97</ele>
        <time>2020-09-17T10:53:14Z</time>
      </trkpt>
      <trkpt lat="44.75705" lon="5.84061">
        <ele>2501.01</ele>
        <time>2020-09-17T10:53:31Z</time>
      </trkpt>
      <trkpt lat="44.75707" lon="5.84056">
        <ele>2501.01</ele>
        <time>2020-09-17T10:53:47Z</time>
      </trkpt>
      <trkpt lat="44.75705" lon="5.84043">
        <ele>2501.01</ele>
        <time>2020-09-17T10:54:03Z</time>
      </trkpt>
      <trkpt lat="44.75707" lon="5.84045">
        <ele>2501.01</ele>
        <time>2020-09-17T10:54:20Z</time>
      </trkpt>
      <trkpt lat="44.75706" lon="5.84047">
        <ele>2501.01</ele>
        <time>2020-09-17T10:54:39Z</time>
      </trkpt>
      <trkpt lat="44.75711" lon="5.84045">
        <ele>2501.01</ele>
        <time>2020-09-17T10:54:55Z</time>
      </trkpt>
      <trkpt lat="44.7572" lon="5.84037">
        <ele>2501.49</ele>
        <time>2020-09-17T10:55:14Z</time>
      </trkpt>
      <trkpt lat="44.75724" lon="5.84033">
        <ele>2501.97</ele>
        <time>2020-09-17T10:55:32Z</time>
      </trkpt>
      <trkpt lat="44.7571" lon="5.84036">
        <ele>2501.97</ele>
        <time>2020-09-17T10:55:50Z</time>
      </trkpt>
      <trkpt lat="44.75706" lon="5.84038">
        <ele>2501.01</ele>
        <time>2020-09-17T10:56:09Z</time>
      </trkpt>
      <trkpt lat="44.75699" lon="5.8406">
        <ele>2501.01</ele>
        <time>2020-09-17T10:56:27Z</time>
      </trkpt>
      <trkpt lat="44.75696" lon="5.84065">
        <ele>2501.01</ele>
        <time>2020-09-17T10:56:37Z</time>
      </trkpt>
      <trkpt lat="44.75693" lon="5.84083">
        <ele>2501.01</ele>
        <time>2020-09-17T10:56:49Z</time>
      </trkpt>
      <trkpt lat="44.75687" lon="5.84087">
        <ele>2500.53</ele>
        <time>2020-09-17T10:56:59Z</time>
      </trkpt>
      <trkpt lat="44.75685" lon="5.84086">
        <ele>2501.01</ele>
        <time>2020-09-17T10:57:10Z</time>
      </trkpt>
      <trkpt lat="44.75689" lon="5.84078">
        <ele>2501.01</ele>
        <time>2020-09-17T10:57:26Z</time>
      </trkpt>
      <trkpt lat="44.75692" lon="5.84081">
        <ele>2501.01</ele>
        <time>2020-09-17T10:57:42Z</time>
      </trkpt>
      <trkpt lat="44.75698" lon="5.84068">
        <ele>2501.01</ele>
        <time>2020-09-17T10:57:58Z</time>
      </trkpt>
      <trkpt lat="44.75705" lon="5.84061">
        <ele>2501.01</ele>
        <time>2020-09-17T10:58:13Z</time>
      </trkpt>
      <trkpt lat="44.75708" lon="5.84061">
        <ele>2501.01</ele>
        <time>2020-09-17T10:58:29Z</time>
      </trkpt>
      <trkpt lat="44.75711" lon="5.84046">
        <ele>2501.01</ele>
        <time>2020-09-17T10:58:44Z</time>
      </trkpt>
      <trkpt lat="44.75711" lon="5.84046">
        <ele>2501.01</ele>
        <time>2020-09-17T10:59:17Z</time>
      </trkpt>
      <trkpt lat="44.75711" lon="5.84046">
        <ele>2501.01</ele>
        <time>2020-09-17T10:59:18Z</time>
      </trkpt>
      <trkpt lat="44.75711" lon="5.84046">
        <ele>2501.01</ele>
        <time>2020-09-17T10:59:19Z</time>
      </trkpt>
      <trkpt lat="44.75711" lon="5.84046">
        <ele>2501.01</ele>
        <time>2020-09-17T10:59:20Z</time>
      </trkpt>
      <trkpt lat="44.75711" lon="5.84046">
        <ele>2501.01</ele>
        <time>2020-09-17T10:59:21Z</time>
      </trkpt>
      <trkpt lat="44.75711" lon="5.84046">
        <ele>2501.01</ele>
        <time>2020-09-17T10:59:22Z</time>
      </trkpt>
      <trkpt lat="44.75711" lon="5.84046">
        <ele>2501.01</ele>
        <time>2020-09-17T10:59:23Z</time>
      </trkpt>
      <trkpt lat="44.75699" lon="5.8405">
        <ele>2501.01</ele>
        <time>2020-09-17T10:59:24Z</time>
      </trkpt>
      <trkpt lat="44.75704" lon="5.84056">
        <ele>2500.05</ele>
        <time>2020-09-17T10:59:34Z</time>
      </trkpt>
      <trkpt lat="44.75704" lon="5.84055">
        <ele>2497.16</ele>
        <time>2020-09-17T11:00:12Z</time>
      </trkpt>
      <trkpt lat="44.75704" lon="5.84055">
        <ele>2500.53</ele>
        <time>2020-09-17T11:00:31Z</time>
      </trkpt>
      <trkpt lat="44.75704" lon="5.84055">
        <ele>2500.53</ele>
        <time>2020-09-17T11:00:43Z</time>
      </trkpt>
      <trkpt lat="44.75704" lon="5.84055">
        <ele>2502.45</ele>
        <time>2020-09-17T11:00:48Z</time>
      </trkpt>
      <trkpt lat="44.75704" lon="5.84055">
        <ele>2499.08</ele>
        <time>2020-09-17T11:01:30Z</time>
      </trkpt>
      <trkpt lat="44.75704" lon="5.84055">
        <ele>2499.08</ele>
        <time>2020-09-17T11:02:46Z</time>
      </trkpt>
      <trkpt lat="44.75701" lon="5.84055">
        <ele>2499.57</ele>
        <time>2020-09-17T11:03:32Z</time>
      </trkpt>
      <trkpt lat="44.75702" lon="5.84052">
        <ele>2500.53</ele>
        <time>2020-09-17T11:04:28Z</time>
      </trkpt>
      <trkpt lat="44.75699" lon="5.84051">
        <ele>2500.05</ele>
        <time>2020-09-17T11:04:37Z</time>
      </trkpt>
      <trkpt lat="44.75699" lon="5.84059">
        <ele>2499.57</ele>
        <time>2020-09-17T11:05:11Z</time>
      </trkpt>
      <trkpt lat="44.75702" lon="5.84059">
        <ele>2499.57</ele>
        <time>2020-09-17T11:05:47Z</time>
      </trkpt>
      <trkpt lat="44.75704" lon="5.84058">
        <ele>2499.57</ele>
        <time>2020-09-17T11:06:22Z</time>
      </trkpt>
      <trkpt lat="44.75706" lon="5.8406">
        <ele>2502.45</ele>
        <time>2020-09-17T11:06:46Z</time>
      </trkpt>
      <trkpt lat="44.75705" lon="5.84059">
        <ele>2501.97</ele>
        <time>2020-09-17T11:06:52Z</time>
      </trkpt>
      <trkpt lat="44.75705" lon="5.84058">
        <ele>2500.53</ele>
        <time>2020-09-17T11:07:38Z</time>
      </trkpt>
      <trkpt lat="44.75705" lon="5.84058">
        <ele>2499.57</ele>
        <time>2020-09-17T11:07:40Z</time>
      </trkpt>
      <trkpt lat="44.75704" lon="5.84058">
        <ele>2502.45</ele>
        <time>2020-09-17T11:08:06Z</time>
      </trkpt>
      <trkpt lat="44.75704" lon="5.84058">
        <ele>2500.05</ele>
        <time>2020-09-17T11:08:28Z</time>
      </trkpt>
      <trkpt lat="44.75704" lon="5.84059">
        <ele>2503.89</ele>
        <time>2020-09-17T11:08:45Z</time>
      </trkpt>
      <trkpt lat="44.75704" lon="5.84059">
        <ele>2500.53</ele>
        <time>2020-09-17T11:08:59Z</time>
      </trkpt>
      <trkpt lat="44.75704" lon="5.84059">
        <ele>2498.6</ele>
        <time>2020-09-17T11:09:02Z</time>
      </trkpt>
      <trkpt lat="44.75704" lon="5.84058">
        <ele>2501.97</ele>
        <time>2020-09-17T11:09:07Z</time>
      </trkpt>
      <trkpt lat="44.75704" lon="5.84059">
        <ele>2504.85</ele>
        <time>2020-09-17T11:09:10Z</time>
      </trkpt>
      <trkpt lat="44.75704" lon="5.84059">
        <ele>2501.49</ele>
        <time>2020-09-17T11:09:16Z</time>
      </trkpt>
      <trkpt lat="44.75704" lon="5.84059">
        <ele>2498.12</ele>
        <time>2020-09-17T11:09:21Z</time>
      </trkpt>
      <trkpt lat="44.75704" lon="5.84059">
        <ele>2497.16</ele>
        <time>2020-09-17T11:09:23Z</time>
      </trkpt>
      <trkpt lat="44.75704" lon="5.84059">
        <ele>2499.08</ele>
        <time>2020-09-17T11:09:29Z</time>
      </trkpt>
      <trkpt lat="44.75704" lon="5.84058">
        <ele>2502.45</ele>
        <time>2020-09-17T11:09:34Z</time>
      </trkpt>
      <trkpt lat="44.75705" lon="5.84058">
        <ele>2501.01</ele>
        <time>2020-09-17T11:10:14Z</time>
      </trkpt>
      <trkpt lat="44.75705" lon="5.84058">
        <ele>2504.37</ele>
        <time>2020-09-17T11:10:22Z</time>
      </trkpt>
      <trkpt lat="44.75705" lon="5.84058">
        <ele>2504.37</ele>
        <time>2020-09-17T11:10:23Z</time>
      </trkpt>
      <trkpt lat="44.75705" lon="5.84058">
        <ele>2501.49</ele>
        <time>2020-09-17T11:11:09Z</time>
      </trkpt>
      <trkpt lat="44.75704" lon="5.84058">
        <ele>2501.97</ele>
        <time>2020-09-17T11:12:14Z</time>
      </trkpt>
      <trkpt lat="44.75704" lon="5.84059">
        <ele>2502.93</ele>
        <time>2020-09-17T11:13:08Z</time>
      </trkpt>
      <trkpt lat="44.75704" lon="5.8406">
        <ele>2502.93</ele>
        <time>2020-09-17T11:14:06Z</time>
      </trkpt>
      <trkpt lat="44.75704" lon="5.84061">
        <ele>2502.45</ele>
        <time>2020-09-17T11:15:05Z</time>
      </trkpt>
      <trkpt lat="44.75704" lon="5.84062">
        <ele>2501.97</ele>
        <time>2020-09-17T11:15:56Z</time>
      </trkpt>
      <trkpt lat="44.75703" lon="5.84064">
        <ele>2501.97</ele>
        <time>2020-09-17T11:16:42Z</time>
      </trkpt>
      <trkpt lat="44.75705" lon="5.84064">
        <ele>2501.97</ele>
        <time>2020-09-17T11:17:18Z</time>
      </trkpt>
      <trkpt lat="44.75702" lon="5.84058">
        <ele>2501.97</ele>
        <time>2020-09-17T11:17:56Z</time>
      </trkpt>
      <trkpt lat="44.75703" lon="5.84056">
        <ele>2501.97</ele>
        <time>2020-09-17T11:18:31Z</time>
      </trkpt>
      <trkpt lat="44.75704" lon="5.84056">
        <ele>2501.97</ele>
        <time>2020-09-17T11:19:00Z</time>
      </trkpt>
      <trkpt lat="44.75704" lon="5.84055">
        <ele>2501.97</ele>
        <time>2020-09-17T11:19:32Z</time>
      </trkpt>
      <trkpt lat="44.75705" lon="5.84056">
        <ele>2501.97</ele>
        <time>2020-09-17T11:20:44Z</time>
      </trkpt>
      <trkpt lat="44.75702" lon="5.84055">
        <ele>2501.97</ele>
        <time>2020-09-17T11:21:18Z</time>
      </trkpt>
      <trkpt lat="44.75703" lon="5.84055">
        <ele>2501.97</ele>
        <time>2020-09-17T11:21:51Z</time>
      </trkpt>
      <trkpt lat="44.75699" lon="5.84053">
        <ele>2501.97</ele>
        <time>2020-09-17T11:22:18Z</time>
      </trkpt>
      <trkpt lat="44.757" lon="5.84046">
        <ele>2501.97</ele>
        <time>2020-09-17T11:22:32Z</time>
      </trkpt>
      <trkpt lat="44.757" lon="5.84039">
        <ele>2501.97</ele>
        <time>2020-09-17T11:22:45Z</time>
      </trkpt>
      <trkpt lat="44.75699" lon="5.84033">
        <ele>2501.97</ele>
        <time>2020-09-17T11:22:57Z</time>
      </trkpt>
      <trkpt lat="44.757" lon="5.84032">
        <ele>2491.39</ele>
        <time>2020-09-17T11:23:01Z</time>
      </trkpt>
      <trkpt lat="44.757" lon="5.84031">
        <ele>2492.84</ele>
        <time>2020-09-17T11:23:02Z</time>
      </trkpt>
      <trkpt lat="44.75698" lon="5.84025">
        <ele>2494.76</ele>
        <time>2020-09-17T11:23:16Z</time>
      </trkpt>
      <trkpt lat="44.75696" lon="5.84017">
        <ele>2491.39</ele>
        <time>2020-09-17T11:23:27Z</time>
      </trkpt>
      <trkpt lat="44.75695" lon="5.84006">
        <ele>2488.03</ele>
        <time>2020-09-17T11:23:39Z</time>
      </trkpt>
      <trkpt lat="44.75695" lon="5.83994">
        <ele>2485.63</ele>
        <time>2020-09-17T11:23:52Z</time>
      </trkpt>
      <trkpt lat="44.75695" lon="5.83993">
        <ele>2484.18</ele>
        <time>2020-09-17T11:23:54Z</time>
      </trkpt>
      <trkpt lat="44.75692" lon="5.83981">
        <ele>2481.3</ele>
        <time>2020-09-17T11:24:11Z</time>
      </trkpt>
      <trkpt lat="44.75691" lon="5.83972">
        <ele>2478.9</ele>
        <time>2020-09-17T11:24:27Z</time>
      </trkpt>
      <trkpt lat="44.75689" lon="5.83955">
        <ele>2477.45</ele>
        <time>2020-09-17T11:24:42Z</time>
      </trkpt>
      <trkpt lat="44.75689" lon="5.83944">
        <ele>2476.01</ele>
        <time>2020-09-17T11:24:57Z</time>
      </trkpt>
      <trkpt lat="44.75691" lon="5.8393">
        <ele>2476.01</ele>
        <time>2020-09-17T11:25:11Z</time>
      </trkpt>
      <trkpt lat="44.7569" lon="5.83918">
        <ele>2473.61</ele>
        <time>2020-09-17T11:25:25Z</time>
      </trkpt>
      <trkpt lat="44.75691" lon="5.8391">
        <ele>2472.17</ele>
        <time>2020-09-17T11:25:32Z</time>
      </trkpt>
      <trkpt lat="44.75694" lon="5.83887">
        <ele>2469.76</ele>
        <time>2020-09-17T11:25:51Z</time>
      </trkpt>
      <trkpt lat="44.75695" lon="5.83872">
        <ele>2468.32</ele>
        <time>2020-09-17T11:26:06Z</time>
      </trkpt>
      <trkpt lat="44.75697" lon="5.8386">
        <ele>2466.88</ele>
        <time>2020-09-17T11:26:17Z</time>
      </trkpt>
      <trkpt lat="44.75701" lon="5.83844">
        <ele>2466.4</ele>
        <time>2020-09-17T11:26:32Z</time>
      </trkpt>
      <trkpt lat="44.75704" lon="5.8382">
        <ele>2465.44</ele>
        <time>2020-09-17T11:26:49Z</time>
      </trkpt>
      <trkpt lat="44.75707" lon="5.83796">
        <ele>2464.48</ele>
        <time>2020-09-17T11:27:06Z</time>
      </trkpt>
      <trkpt lat="44.75711" lon="5.83773">
        <ele>2464.96</ele>
        <time>2020-09-17T11:27:22Z</time>
      </trkpt>
      <trkpt lat="44.75712" lon="5.83768">
        <ele>2464.96</ele>
        <time>2020-09-17T11:27:25Z</time>
      </trkpt>
      <trkpt lat="44.75715" lon="5.83752">
        <ele>2464.48</ele>
        <time>2020-09-17T11:27:40Z</time>
      </trkpt>
      <trkpt lat="44.7572" lon="5.83727">
        <ele>2463.04</ele>
        <time>2020-09-17T11:27:57Z</time>
      </trkpt>
      <trkpt lat="44.75721" lon="5.83717">
        <ele>2460.63</ele>
        <time>2020-09-17T11:28:15Z</time>
      </trkpt>
      <trkpt lat="44.7572" lon="5.83718">
        <ele>2460.63</ele>
        <time>2020-09-17T11:28:16Z</time>
      </trkpt>
      <trkpt lat="44.75706" lon="5.83729">
        <ele>2459.67</ele>
        <time>2020-09-17T11:28:34Z</time>
      </trkpt>
      <trkpt lat="44.75701" lon="5.83734">
        <ele>2459.67</ele>
        <time>2020-09-17T11:28:48Z</time>
      </trkpt>
      <trkpt lat="44.75699" lon="5.83734">
        <ele>2460.63</ele>
        <time>2020-09-17T11:29:03Z</time>
      </trkpt>
      <trkpt lat="44.75696" lon="5.83732">
        <ele>2460.63</ele>
        <time>2020-09-17T11:29:19Z</time>
      </trkpt>
      <trkpt lat="44.75694" lon="5.83733">
        <ele>2461.11</ele>
        <time>2020-09-17T11:29:35Z</time>
      </trkpt>
      <trkpt lat="44.75691" lon="5.83737">
        <ele>2461.59</ele>
        <time>2020-09-17T11:29:50Z</time>
      </trkpt>
      <trkpt lat="44.75692" lon="5.83735">
        <ele>2461.59</ele>
        <time>2020-09-17T11:30:07Z</time>
      </trkpt>
      <trkpt lat="44.75688" lon="5.8374">
        <ele>2461.59</ele>
        <time>2020-09-17T11:30:26Z</time>
      </trkpt>
      <trkpt lat="44.75682" lon="5.83745">
        <ele>2462.55</ele>
        <time>2020-09-17T11:30:35Z</time>
      </trkpt>
      <trkpt lat="44.75677" lon="5.8375">
        <ele>2462.55</ele>
        <time>2020-09-17T11:30:40Z</time>
      </trkpt>
      <trkpt lat="44.75674" lon="5.83753">
        <ele>2462.07</ele>
        <time>2020-09-17T11:30:43Z</time>
      </trkpt>
      <trkpt lat="44.7567" lon="5.8376">
        <ele>2461.59</ele>
        <time>2020-09-17T11:30:49Z</time>
      </trkpt>
      <trkpt lat="44.75669" lon="5.83768">
        <ele>2461.59</ele>
        <time>2020-09-17T11:30:54Z</time>
      </trkpt>
      <trkpt lat="44.75673" lon="5.83788">
        <ele>2458.23</ele>
        <time>2020-09-17T11:31:09Z</time>
      </trkpt>
      <trkpt lat="44.75675" lon="5.83799">
        <ele>2460.63</ele>
        <time>2020-09-17T11:31:18Z</time>
      </trkpt>
      <trkpt lat="44.75674" lon="5.83807">
        <ele>2457.75</ele>
        <time>2020-09-17T11:31:30Z</time>
      </trkpt>
      <trkpt lat="44.75674" lon="5.83807">
        <ele>2458.23</ele>
        <time>2020-09-17T11:31:38Z</time>
      </trkpt>
      <trkpt lat="44.75674" lon="5.83809">
        <ele>2458.71</ele>
        <time>2020-09-17T11:31:40Z</time>
      </trkpt>
      <trkpt lat="44.75674" lon="5.83812">
        <ele>2459.19</ele>
        <time>2020-09-17T11:31:42Z</time>
      </trkpt>
      <trkpt lat="44.75671" lon="5.83823">
        <ele>2458.23</ele>
        <time>2020-09-17T11:31:50Z</time>
      </trkpt>
      <trkpt lat="44.75667" lon="5.83833">
        <ele>2456.31</ele>
        <time>2020-09-17T11:32:03Z</time>
      </trkpt>
      <trkpt lat="44.75662" lon="5.83845">
        <ele>2456.79</ele>
        <time>2020-09-17T11:32:30Z</time>
      </trkpt>
      <trkpt lat="44.75651" lon="5.83856">
        <ele>2453.9</ele>
        <time>2020-09-17T11:32:44Z</time>
      </trkpt>
      <trkpt lat="44.75645" lon="5.83862">
        <ele>2453.9</ele>
        <time>2020-09-17T11:32:58Z</time>
      </trkpt>
      <trkpt lat="44.7564" lon="5.83869">
        <ele>2451.98</ele>
        <time>2020-09-17T11:33:18Z</time>
      </trkpt>
      <trkpt lat="44.75639" lon="5.8387">
        <ele>2451.98</ele>
        <time>2020-09-17T11:33:19Z</time>
      </trkpt>
      <trkpt lat="44.75637" lon="5.83875">
        <ele>2450.54</ele>
        <time>2020-09-17T11:33:24Z</time>
      </trkpt>
      <trkpt lat="44.75634" lon="5.83879">
        <ele>2450.06</ele>
        <time>2020-09-17T11:33:28Z</time>
      </trkpt>
      <trkpt lat="44.75632" lon="5.83884">
        <ele>2451.02</ele>
        <time>2020-09-17T11:33:33Z</time>
      </trkpt>
      <trkpt lat="44.75623" lon="5.83899">
        <ele>2448.13</ele>
        <time>2020-09-17T11:33:47Z</time>
      </trkpt>
      <trkpt lat="44.75621" lon="5.83901">
        <ele>2447.65</ele>
        <time>2020-09-17T11:33:49Z</time>
      </trkpt>
      <trkpt lat="44.75619" lon="5.83901">
        <ele>2447.17</ele>
        <time>2020-09-17T11:33:51Z</time>
      </trkpt>
      <trkpt lat="44.75605" lon="5.83914">
        <ele>2444.77</ele>
        <time>2020-09-17T11:34:08Z</time>
      </trkpt>
      <trkpt lat="44.75593" lon="5.83917">
        <ele>2442.37</ele>
        <time>2020-09-17T11:34:23Z</time>
      </trkpt>
      <trkpt lat="44.75583" lon="5.83909">
        <ele>2440.44</ele>
        <time>2020-09-17T11:34:39Z</time>
      </trkpt>
      <trkpt lat="44.75582" lon="5.83909">
        <ele>2438.52</ele>
        <time>2020-09-17T11:34:58Z</time>
      </trkpt>
      <trkpt lat="44.75577" lon="5.83912">
        <ele>2438.52</ele>
        <time>2020-09-17T11:35:11Z</time>
      </trkpt>
      <trkpt lat="44.75577" lon="5.8391">
        <ele>2438.52</ele>
        <time>2020-09-17T11:35:26Z</time>
      </trkpt>
      <trkpt lat="44.75577" lon="5.83913">
        <ele>2439</ele>
        <time>2020-09-17T11:35:42Z</time>
      </trkpt>
      <trkpt lat="44.75578" lon="5.83922">
        <ele>2439</ele>
        <time>2020-09-17T11:35:57Z</time>
      </trkpt>
      <trkpt lat="44.75578" lon="5.83936">
        <ele>2437.56</ele>
        <time>2020-09-17T11:36:12Z</time>
      </trkpt>
      <trkpt lat="44.75571" lon="5.83944">
        <ele>2435.64</ele>
        <time>2020-09-17T11:36:28Z</time>
      </trkpt>
      <trkpt lat="44.75569" lon="5.83946">
        <ele>2433.23</ele>
        <time>2020-09-17T11:36:35Z</time>
      </trkpt>
      <trkpt lat="44.75566" lon="5.83951">
        <ele>2430.35</ele>
        <time>2020-09-17T11:36:48Z</time>
      </trkpt>
      <trkpt lat="44.75562" lon="5.83947">
        <ele>2427.47</ele>
        <time>2020-09-17T11:37:01Z</time>
      </trkpt>
      <trkpt lat="44.75559" lon="5.83947">
        <ele>2424.58</ele>
        <time>2020-09-17T11:37:12Z</time>
      </trkpt>
      <trkpt lat="44.75555" lon="5.83947">
        <ele>2421.7</ele>
        <time>2020-09-17T11:37:25Z</time>
      </trkpt>
      <trkpt lat="44.75553" lon="5.83947">
        <ele>2419.78</ele>
        <time>2020-09-17T11:37:37Z</time>
      </trkpt>
      <trkpt lat="44.75549" lon="5.83944">
        <ele>2417.37</ele>
        <time>2020-09-17T11:37:50Z</time>
      </trkpt>
      <trkpt lat="44.75548" lon="5.83945">
        <ele>2415.93</ele>
        <time>2020-09-17T11:37:55Z</time>
      </trkpt>
      <trkpt lat="44.75546" lon="5.83946">
        <ele>2413.53</ele>
        <time>2020-09-17T11:38:07Z</time>
      </trkpt>
      <trkpt lat="44.75543" lon="5.83942">
        <ele>2412.09</ele>
        <time>2020-09-17T11:38:21Z</time>
      </trkpt>
      <trkpt lat="44.7554" lon="5.83943">
        <ele>2410.64</ele>
        <time>2020-09-17T11:38:34Z</time>
      </trkpt>
      <trkpt lat="44.75537" lon="5.83941">
        <ele>2407.76</ele>
        <time>2020-09-17T11:38:48Z</time>
      </trkpt>
      <trkpt lat="44.75533" lon="5.8394">
        <ele>2405.36</ele>
        <time>2020-09-17T11:39:03Z</time>
      </trkpt>
      <trkpt lat="44.75529" lon="5.8394">
        <ele>2402.95</ele>
        <time>2020-09-17T11:39:16Z</time>
      </trkpt>
      <trkpt lat="44.75527" lon="5.8394">
        <ele>2399.59</ele>
        <time>2020-09-17T11:39:29Z</time>
      </trkpt>
      <trkpt lat="44.75526" lon="5.83938">
        <ele>2398.15</ele>
        <time>2020-09-17T11:39:41Z</time>
      </trkpt>
      <trkpt lat="44.75522" lon="5.8394">
        <ele>2396.22</ele>
        <time>2020-09-17T11:39:55Z</time>
      </trkpt>
      <trkpt lat="44.75518" lon="5.83942">
        <ele>2392.86</ele>
        <time>2020-09-17T11:40:10Z</time>
      </trkpt>
      <trkpt lat="44.75515" lon="5.83942">
        <ele>2390.94</ele>
        <time>2020-09-17T11:40:24Z</time>
      </trkpt>
      <trkpt lat="44.75511" lon="5.83941">
        <ele>2389.49</ele>
        <time>2020-09-17T11:40:42Z</time>
      </trkpt>
      <trkpt lat="44.75508" lon="5.83935">
        <ele>2388.53</ele>
        <time>2020-09-17T11:40:58Z</time>
      </trkpt>
      <trkpt lat="44.75504" lon="5.83934">
        <ele>2385.65</ele>
        <time>2020-09-17T11:41:13Z</time>
      </trkpt>
      <trkpt lat="44.75501" lon="5.83929">
        <ele>2383.25</ele>
        <time>2020-09-17T11:41:28Z</time>
      </trkpt>
      <trkpt lat="44.75498" lon="5.83933">
        <ele>2381.32</ele>
        <time>2020-09-17T11:41:40Z</time>
      </trkpt>
      <trkpt lat="44.75495" lon="5.83937">
        <ele>2378.44</ele>
        <time>2020-09-17T11:41:56Z</time>
      </trkpt>
      <trkpt lat="44.75492" lon="5.83941">
        <ele>2375.55</ele>
        <time>2020-09-17T11:42:11Z</time>
      </trkpt>
      <trkpt lat="44.7549" lon="5.83943">
        <ele>2373.15</ele>
        <time>2020-09-17T11:42:23Z</time>
      </trkpt>
      <trkpt lat="44.75487" lon="5.83951">
        <ele>2370.75</ele>
        <time>2020-09-17T11:42:35Z</time>
      </trkpt>
      <trkpt lat="44.75484" lon="5.83954">
        <ele>2368.83</ele>
        <time>2020-09-17T11:42:50Z</time>
      </trkpt>
      <trkpt lat="44.7548" lon="5.83956">
        <ele>2367.38</ele>
        <time>2020-09-17T11:43:04Z</time>
      </trkpt>
      <trkpt lat="44.75478" lon="5.83957">
        <ele>2365.94</ele>
        <time>2020-09-17T11:43:18Z</time>
      </trkpt>
      <trkpt lat="44.75475" lon="5.83956">
        <ele>2364.02</ele>
        <time>2020-09-17T11:43:36Z</time>
      </trkpt>
      <trkpt lat="44.75473" lon="5.83953">
        <ele>2361.62</ele>
        <time>2020-09-17T11:43:54Z</time>
      </trkpt>
      <trkpt lat="44.75472" lon="5.8395">
        <ele>2361.14</ele>
        <time>2020-09-17T11:44:15Z</time>
      </trkpt>
      <trkpt lat="44.75469" lon="5.83946">
        <ele>2357.77</ele>
        <time>2020-09-17T11:44:33Z</time>
      </trkpt>
      <trkpt lat="44.75468" lon="5.83941">
        <ele>2355.85</ele>
        <time>2020-09-17T11:44:48Z</time>
      </trkpt>
      <trkpt lat="44.75464" lon="5.83942">
        <ele>2353.93</ele>
        <time>2020-09-17T11:45:01Z</time>
      </trkpt>
      <trkpt lat="44.75462" lon="5.83939">
        <ele>2351.52</ele>
        <time>2020-09-17T11:45:16Z</time>
      </trkpt>
      <trkpt lat="44.75456" lon="5.83943">
        <ele>2349.6</ele>
        <time>2020-09-17T11:45:32Z</time>
      </trkpt>
      <trkpt lat="44.75455" lon="5.8394">
        <ele>2347.2</ele>
        <time>2020-09-17T11:45:45Z</time>
      </trkpt>
      <trkpt lat="44.75453" lon="5.83936">
        <ele>2345.75</ele>
        <time>2020-09-17T11:46:00Z</time>
      </trkpt>
      <trkpt lat="44.75451" lon="5.8393">
        <ele>2344.79</ele>
        <time>2020-09-17T11:46:12Z</time>
      </trkpt>
      <trkpt lat="44.75447" lon="5.83924">
        <ele>2342.39</ele>
        <time>2020-09-17T11:46:27Z</time>
      </trkpt>
      <trkpt lat="44.75446" lon="5.83918">
        <ele>2339.99</ele>
        <time>2020-09-17T11:46:42Z</time>
      </trkpt>
      <trkpt lat="44.75445" lon="5.83913">
        <ele>2338.06</ele>
        <time>2020-09-17T11:46:56Z</time>
      </trkpt>
      <trkpt lat="44.75443" lon="5.8391">
        <ele>2336.14</ele>
        <time>2020-09-17T11:47:09Z</time>
      </trkpt>
      <trkpt lat="44.75436" lon="5.83907">
        <ele>2334.22</ele>
        <time>2020-09-17T11:47:23Z</time>
      </trkpt>
      <trkpt lat="44.75429" lon="5.83902">
        <ele>2331.81</ele>
        <time>2020-09-17T11:47:36Z</time>
      </trkpt>
      <trkpt lat="44.75428" lon="5.839">
        <ele>2328.93</ele>
        <time>2020-09-17T11:47:50Z</time>
      </trkpt>
      <trkpt lat="44.75428" lon="5.839">
        <ele>2331.33</ele>
        <time>2020-09-17T11:48:14Z</time>
      </trkpt>
      <trkpt lat="44.75425" lon="5.83896">
        <ele>2328.45</ele>
        <time>2020-09-17T11:48:26Z</time>
      </trkpt>
      <trkpt lat="44.75424" lon="5.83885">
        <ele>2326.53</ele>
        <time>2020-09-17T11:48:38Z</time>
      </trkpt>
      <trkpt lat="44.75424" lon="5.83884">
        <ele>2326.53</ele>
        <time>2020-09-17T11:48:39Z</time>
      </trkpt>
      <trkpt lat="44.75425" lon="5.83869">
        <ele>2325.57</ele>
        <time>2020-09-17T11:48:52Z</time>
      </trkpt>
      <trkpt lat="44.75419" lon="5.83848">
        <ele>2325.57</ele>
        <time>2020-09-17T11:49:08Z</time>
      </trkpt>
      <trkpt lat="44.75418" lon="5.83844">
        <ele>2325.57</ele>
        <time>2020-09-17T11:49:11Z</time>
      </trkpt>
      <trkpt lat="44.75416" lon="5.83834">
        <ele>2326.05</ele>
        <time>2020-09-17T11:49:19Z</time>
      </trkpt>
      <trkpt lat="44.75409" lon="5.83811">
        <ele>2327.01</ele>
        <time>2020-09-17T11:49:38Z</time>
      </trkpt>
      <trkpt lat="44.75408" lon="5.83803">
        <ele>2328.45</ele>
        <time>2020-09-17T11:49:47Z</time>
      </trkpt>
      <trkpt lat="44.75403" lon="5.83783">
        <ele>2330.37</ele>
        <time>2020-09-17T11:50:02Z</time>
      </trkpt>
      <trkpt lat="44.75397" lon="5.83759">
        <ele>2331.81</ele>
        <time>2020-09-17T11:50:20Z</time>
      </trkpt>
      <trkpt lat="44.75394" lon="5.83734">
        <ele>2330.37</ele>
        <time>2020-09-17T11:50:38Z</time>
      </trkpt>
      <trkpt lat="44.75394" lon="5.83729">
        <ele>2330.37</ele>
        <time>2020-09-17T11:50:49Z</time>
      </trkpt>
      <trkpt lat="44.7539" lon="5.83718">
        <ele>2331.33</ele>
        <time>2020-09-17T11:50:57Z</time>
      </trkpt>
      <trkpt lat="44.75387" lon="5.83713">
        <ele>2331.81</ele>
        <time>2020-09-17T11:51:06Z</time>
      </trkpt>
      <trkpt lat="44.75389" lon="5.83708">
        <ele>2331.33</ele>
        <time>2020-09-17T11:51:10Z</time>
      </trkpt>
      <trkpt lat="44.75394" lon="5.83687">
        <ele>2329.41</ele>
        <time>2020-09-17T11:51:25Z</time>
      </trkpt>
      <trkpt lat="44.75394" lon="5.83686">
        <ele>2328.93</ele>
        <time>2020-09-17T11:51:36Z</time>
      </trkpt>
      <trkpt lat="44.75395" lon="5.83672">
        <ele>2328.93</ele>
        <time>2020-09-17T11:51:52Z</time>
      </trkpt>
      <trkpt lat="44.75397" lon="5.83642">
        <ele>2329.89</ele>
        <time>2020-09-17T11:52:12Z</time>
      </trkpt>
      <trkpt lat="44.75398" lon="5.83634">
        <ele>2330.37</ele>
        <time>2020-09-17T11:52:19Z</time>
      </trkpt>
      <trkpt lat="44.75403" lon="5.83618">
        <ele>2332.78</ele>
        <time>2020-09-17T11:52:37Z</time>
      </trkpt>
      <trkpt lat="44.75403" lon="5.83616">
        <ele>2333.26</ele>
        <time>2020-09-17T11:53:03Z</time>
      </trkpt>
      <trkpt lat="44.75402" lon="5.83615">
        <ele>2332.78</ele>
        <time>2020-09-17T11:53:27Z</time>
      </trkpt>
      <trkpt lat="44.75403" lon="5.83615">
        <ele>2332.78</ele>
        <time>2020-09-17T11:54:06Z</time>
      </trkpt>
      <trkpt lat="44.75403" lon="5.83615">
        <ele>2328.93</ele>
        <time>2020-09-17T11:54:24Z</time>
      </trkpt>
      <trkpt lat="44.75403" lon="5.83615">
        <ele>2327.97</ele>
        <time>2020-09-17T11:54:26Z</time>
      </trkpt>
      <trkpt lat="44.75403" lon="5.83616">
        <ele>2331.33</ele>
        <time>2020-09-17T11:54:39Z</time>
      </trkpt>
      <trkpt lat="44.75403" lon="5.83615">
        <ele>2331.81</ele>
        <time>2020-09-17T11:54:40Z</time>
      </trkpt>
      <trkpt lat="44.75403" lon="5.83615">
        <ele>2334.7</ele>
        <time>2020-09-17T11:54:45Z</time>
      </trkpt>
      <trkpt lat="44.75404" lon="5.83614">
        <ele>2332.78</ele>
        <time>2020-09-17T11:55:15Z</time>
      </trkpt>
      <trkpt lat="44.75403" lon="5.83614">
        <ele>2329.89</ele>
        <time>2020-09-17T11:55:36Z</time>
      </trkpt>
      <trkpt lat="44.75404" lon="5.83615">
        <ele>2331.81</ele>
        <time>2020-09-17T11:56:00Z</time>
      </trkpt>
      <trkpt lat="44.75403" lon="5.83615">
        <ele>2331.81</ele>
        <time>2020-09-17T11:56:24Z</time>
      </trkpt>
      <trkpt lat="44.75404" lon="5.83616">
        <ele>2332.3</ele>
        <time>2020-09-17T11:56:53Z</time>
      </trkpt>
      <trkpt lat="44.75404" lon="5.83616">
        <ele>2332.3</ele>
        <time>2020-09-17T11:57:24Z</time>
      </trkpt>
      <trkpt lat="44.75404" lon="5.83616">
        <ele>2332.3</ele>
        <time>2020-09-17T11:58:10Z</time>
      </trkpt>
      <trkpt lat="44.75404" lon="5.83618">
        <ele>2332.3</ele>
        <time>2020-09-17T11:58:39Z</time>
      </trkpt>
      <trkpt lat="44.75404" lon="5.83619">
        <ele>2332.3</ele>
        <time>2020-09-17T11:59:02Z</time>
      </trkpt>
      <trkpt lat="44.75404" lon="5.83619">
        <ele>2332.3</ele>
        <time>2020-09-17T11:59:40Z</time>
      </trkpt>
      <trkpt lat="44.75404" lon="5.8362">
        <ele>2332.3</ele>
        <time>2020-09-17T12:00:13Z</time>
      </trkpt>
      <trkpt lat="44.75403" lon="5.8362">
        <ele>2332.3</ele>
        <time>2020-09-17T12:00:51Z</time>
      </trkpt>
      <trkpt lat="44.75403" lon="5.83621">
        <ele>2332.3</ele>
        <time>2020-09-17T12:01:26Z</time>
      </trkpt>
      <trkpt lat="44.75403" lon="5.83621">
        <ele>2332.3</ele>
        <time>2020-09-17T12:01:54Z</time>
      </trkpt>
      <trkpt lat="44.75398" lon="5.8363">
        <ele>2332.3</ele>
        <time>2020-09-17T12:02:09Z</time>
      </trkpt>
      <trkpt lat="44.75397" lon="5.83635">
        <ele>2331.33</ele>
        <time>2020-09-17T12:02:26Z</time>
      </trkpt>
      <trkpt lat="44.75394" lon="5.83653">
        <ele>2329.89</ele>
        <time>2020-09-17T12:02:42Z</time>
      </trkpt>
      <trkpt lat="44.75399" lon="5.83669">
        <ele>2327.97</ele>
        <time>2020-09-17T12:02:55Z</time>
      </trkpt>
      <trkpt lat="44.75401" lon="5.83674">
        <ele>2327.97</ele>
        <time>2020-09-17T12:02:59Z</time>
      </trkpt>
      <trkpt lat="44.75403" lon="5.83688">
        <ele>2327.49</ele>
        <time>2020-09-17T12:03:16Z</time>
      </trkpt>
      <trkpt lat="44.75405" lon="5.83689">
        <ele>2327.01</ele>
        <time>2020-09-17T12:03:39Z</time>
      </trkpt>
      <trkpt lat="44.75406" lon="5.83688">
        <ele>2326.05</ele>
        <time>2020-09-17T12:03:59Z</time>
      </trkpt>
      <trkpt lat="44.75406" lon="5.83688">
        <ele>2325.57</ele>
        <time>2020-09-17T12:04:18Z</time>
      </trkpt>
      <trkpt lat="44.75402" lon="5.83695">
        <ele>2325.57</ele>
        <time>2020-09-17T12:04:33Z</time>
      </trkpt>
      <trkpt lat="44.75397" lon="5.83702">
        <ele>2327.01</ele>
        <time>2020-09-17T12:04:49Z</time>
      </trkpt>
      <trkpt lat="44.75393" lon="5.83707">
        <ele>2327.01</ele>
        <time>2020-09-17T12:04:55Z</time>
      </trkpt>
      <trkpt lat="44.75386" lon="5.83716">
        <ele>2328.45</ele>
        <time>2020-09-17T12:05:08Z</time>
      </trkpt>
      <trkpt lat="44.75381" lon="5.83722">
        <ele>2329.41</ele>
        <time>2020-09-17T12:05:17Z</time>
      </trkpt>
      <trkpt lat="44.7537" lon="5.83734">
        <ele>2329.41</ele>
        <time>2020-09-17T12:05:33Z</time>
      </trkpt>
      <trkpt lat="44.75363" lon="5.83738">
        <ele>2328.93</ele>
        <time>2020-09-17T12:05:41Z</time>
      </trkpt>
      <trkpt lat="44.75351" lon="5.83751">
        <ele>2327.97</ele>
        <time>2020-09-17T12:05:57Z</time>
      </trkpt>
      <trkpt lat="44.75343" lon="5.83771">
        <ele>2325.57</ele>
        <time>2020-09-17T12:06:14Z</time>
      </trkpt>
      <trkpt lat="44.7534" lon="5.8379">
        <ele>2324.12</ele>
        <time>2020-09-17T12:06:29Z</time>
      </trkpt>
      <trkpt lat="44.75344" lon="5.83806">
        <ele>2322.68</ele>
        <time>2020-09-17T12:06:44Z</time>
      </trkpt>
      <trkpt lat="44.75353" lon="5.83814">
        <ele>2320.76</ele>
        <time>2020-09-17T12:07:00Z</time>
      </trkpt>
      <trkpt lat="44.75352" lon="5.83826">
        <ele>2318.36</ele>
        <time>2020-09-17T12:07:14Z</time>
      </trkpt>
      <trkpt lat="44.75352" lon="5.83829">
        <ele>2317.88</ele>
        <time>2020-09-17T12:07:16Z</time>
      </trkpt>
      <trkpt lat="44.75354" lon="5.83836">
        <ele>2316.43</ele>
        <time>2020-09-17T12:07:22Z</time>
      </trkpt>
      <trkpt lat="44.75362" lon="5.83847">
        <ele>2314.99</ele>
        <time>2020-09-17T12:07:34Z</time>
      </trkpt>
      <trkpt lat="44.75363" lon="5.8385">
        <ele>2314.51</ele>
        <time>2020-09-17T12:07:36Z</time>
      </trkpt>
      <trkpt lat="44.75366" lon="5.83859">
        <ele>2312.59</ele>
        <time>2020-09-17T12:07:44Z</time>
      </trkpt>
      <trkpt lat="44.75372" lon="5.83868">
        <ele>2311.15</ele>
        <time>2020-09-17T12:07:58Z</time>
      </trkpt>
      <trkpt lat="44.75368" lon="5.83877">
        <ele>2308.74</ele>
        <time>2020-09-17T12:08:11Z</time>
      </trkpt>
      <trkpt lat="44.75365" lon="5.83885">
        <ele>2305.86</ele>
        <time>2020-09-17T12:08:21Z</time>
      </trkpt>
      <trkpt lat="44.75364" lon="5.83894">
        <ele>2302.98</ele>
        <time>2020-09-17T12:08:32Z</time>
      </trkpt>
      <trkpt lat="44.75364" lon="5.83902">
        <ele>2299.61</ele>
        <time>2020-09-17T12:08:43Z</time>
      </trkpt>
      <trkpt lat="44.75364" lon="5.8391">
        <ele>2297.69</ele>
        <time>2020-09-17T12:08:54Z</time>
      </trkpt>
      <trkpt lat="44.75367" lon="5.83915">
        <ele>2295.28</ele>
        <time>2020-09-17T12:09:07Z</time>
      </trkpt>
      <trkpt lat="44.75366" lon="5.8392">
        <ele>2293.84</ele>
        <time>2020-09-17T12:09:22Z</time>
      </trkpt>
      <trkpt lat="44.75366" lon="5.83923">
        <ele>2292.4</ele>
        <time>2020-09-17T12:09:33Z</time>
      </trkpt>
      <trkpt lat="44.75367" lon="5.83929">
        <ele>2290</ele>
        <time>2020-09-17T12:09:44Z</time>
      </trkpt>
      <trkpt lat="44.75365" lon="5.8393">
        <ele>2289.52</ele>
        <time>2020-09-17T12:09:46Z</time>
      </trkpt>
      <trkpt lat="44.75363" lon="5.83931">
        <ele>2289.04</ele>
        <time>2020-09-17T12:09:48Z</time>
      </trkpt>
      <trkpt lat="44.75359" lon="5.83943">
        <ele>2285.67</ele>
        <time>2020-09-17T12:10:00Z</time>
      </trkpt>
      <trkpt lat="44.75356" lon="5.83949">
        <ele>2283.27</ele>
        <time>2020-09-17T12:10:06Z</time>
      </trkpt>
      <trkpt lat="44.75347" lon="5.83951">
        <ele>2279.9</ele>
        <time>2020-09-17T12:10:19Z</time>
      </trkpt>
      <trkpt lat="44.75341" lon="5.83949">
        <ele>2277.98</ele>
        <time>2020-09-17T12:10:33Z</time>
      </trkpt>
      <trkpt lat="44.75337" lon="5.83941">
        <ele>2275.58</ele>
        <time>2020-09-17T12:10:47Z</time>
      </trkpt>
      <trkpt lat="44.75332" lon="5.83944">
        <ele>2274.14</ele>
        <time>2020-09-17T12:11:02Z</time>
      </trkpt>
      <trkpt lat="44.75326" lon="5.83942">
        <ele>2272.21</ele>
        <time>2020-09-17T12:11:15Z</time>
      </trkpt>
      <trkpt lat="44.75323" lon="5.83945">
        <ele>2271.25</ele>
        <time>2020-09-17T12:11:31Z</time>
      </trkpt>
      <trkpt lat="44.75319" lon="5.8395">
        <ele>2270.77</ele>
        <time>2020-09-17T12:11:51Z</time>
      </trkpt>
      <trkpt lat="44.75312" lon="5.83962">
        <ele>2268.37</ele>
        <time>2020-09-17T12:12:05Z</time>
      </trkpt>
      <trkpt lat="44.75308" lon="5.83972">
        <ele>2267.41</ele>
        <time>2020-09-17T12:12:19Z</time>
      </trkpt>
      <trkpt lat="44.75307" lon="5.83984">
        <ele>2264.04</ele>
        <time>2020-09-17T12:12:32Z</time>
      </trkpt>
      <trkpt lat="44.75307" lon="5.83995">
        <ele>2261.16</ele>
        <time>2020-09-17T12:12:48Z</time>
      </trkpt>
      <trkpt lat="44.75306" lon="5.83999">
        <ele>2263.56</ele>
        <time>2020-09-17T12:13:05Z</time>
      </trkpt>
      <trkpt lat="44.75306" lon="5.84005">
        <ele>2263.08</ele>
        <time>2020-09-17T12:13:23Z</time>
      </trkpt>
      <trkpt lat="44.75299" lon="5.84018">
        <ele>2260.2</ele>
        <time>2020-09-17T12:13:39Z</time>
      </trkpt>
      <trkpt lat="44.753" lon="5.84038">
        <ele>2258.27</ele>
        <time>2020-09-17T12:13:57Z</time>
      </trkpt>
      <trkpt lat="44.75301" lon="5.84041">
        <ele>2257.31</ele>
        <time>2020-09-17T12:14:12Z</time>
      </trkpt>
      <trkpt lat="44.753" lon="5.84041">
        <ele>2257.31</ele>
        <time>2020-09-17T12:14:52Z</time>
      </trkpt>
      <trkpt lat="44.75298" lon="5.84039">
        <ele>2257.31</ele>
        <time>2020-09-17T12:14:54Z</time>
      </trkpt>
      <trkpt lat="44.75296" lon="5.84037">
        <ele>2257.31</ele>
        <time>2020-09-17T12:14:57Z</time>
      </trkpt>
      <trkpt lat="44.75285" lon="5.84029">
        <ele>2256.83</ele>
        <time>2020-09-17T12:15:11Z</time>
      </trkpt>
      <trkpt lat="44.75276" lon="5.84025">
        <ele>2255.39</ele>
        <time>2020-09-17T12:15:23Z</time>
      </trkpt>
      <trkpt lat="44.75268" lon="5.84031">
        <ele>2252.03</ele>
        <time>2020-09-17T12:15:36Z</time>
      </trkpt>
      <trkpt lat="44.75268" lon="5.84028">
        <ele>2250.1</ele>
        <time>2020-09-17T12:15:52Z</time>
      </trkpt>
      <trkpt lat="44.75268" lon="5.84023">
        <ele>2248.66</ele>
        <time>2020-09-17T12:16:07Z</time>
      </trkpt>
      <trkpt lat="44.75267" lon="5.84016">
        <ele>2247.22</ele>
        <time>2020-09-17T12:16:19Z</time>
      </trkpt>
      <trkpt lat="44.75266" lon="5.84011">
        <ele>2245.78</ele>
        <time>2020-09-17T12:16:26Z</time>
      </trkpt>
      <trkpt lat="44.75256" lon="5.84004">
        <ele>2242.41</ele>
        <time>2020-09-17T12:16:38Z</time>
      </trkpt>
      <trkpt lat="44.75254" lon="5.84004">
        <ele>2240.97</ele>
        <time>2020-09-17T12:16:41Z</time>
      </trkpt>
      <trkpt lat="44.75249" lon="5.84003">
        <ele>2239.53</ele>
        <time>2020-09-17T12:16:46Z</time>
      </trkpt>
      <trkpt lat="44.75239" lon="5.84013">
        <ele>2236.16</ele>
        <time>2020-09-17T12:16:58Z</time>
      </trkpt>
      <trkpt lat="44.75229" lon="5.84024">
        <ele>2232.8</ele>
        <time>2020-09-17T12:17:11Z</time>
      </trkpt>
      <trkpt lat="44.75222" lon="5.84026">
        <ele>2230.88</ele>
        <time>2020-09-17T12:17:20Z</time>
      </trkpt>
      <trkpt lat="44.75219" lon="5.84031">
        <ele>2228.47</ele>
        <time>2020-09-17T12:17:33Z</time>
      </trkpt>
      <trkpt lat="44.75222" lon="5.84032">
        <ele>2227.51</ele>
        <time>2020-09-17T12:17:48Z</time>
      </trkpt>
      <trkpt lat="44.75227" lon="5.84037">
        <ele>2227.03</ele>
        <time>2020-09-17T12:18:01Z</time>
      </trkpt>
      <trkpt lat="44.75229" lon="5.84039">
        <ele>2227.03</ele>
        <time>2020-09-17T12:18:16Z</time>
      </trkpt>
      <trkpt lat="44.75229" lon="5.84042">
        <ele>2225.11</ele>
        <time>2020-09-17T12:18:31Z</time>
      </trkpt>
      <trkpt lat="44.75233" lon="5.84043">
        <ele>2224.15</ele>
        <time>2020-09-17T12:18:48Z</time>
      </trkpt>
      <trkpt lat="44.75236" lon="5.84044">
        <ele>2222.71</ele>
        <time>2020-09-17T12:19:03Z</time>
      </trkpt>
      <trkpt lat="44.75238" lon="5.84044">
        <ele>2221.26</ele>
        <time>2020-09-17T12:19:16Z</time>
      </trkpt>
      <trkpt lat="44.75241" lon="5.84045">
        <ele>2219.82</ele>
        <time>2020-09-17T12:19:31Z</time>
      </trkpt>
      <trkpt lat="44.75244" lon="5.84048">
        <ele>2217.9</ele>
        <time>2020-09-17T12:19:51Z</time>
      </trkpt>
      <trkpt lat="44.75246" lon="5.84052">
        <ele>2215.98</ele>
        <time>2020-09-17T12:20:05Z</time>
      </trkpt>
      <trkpt lat="44.75243" lon="5.84051">
        <ele>2214.05</ele>
        <time>2020-09-17T12:20:21Z</time>
      </trkpt>
      <trkpt lat="44.75242" lon="5.84056">
        <ele>2211.17</ele>
        <time>2020-09-17T12:20:44Z</time>
      </trkpt>
      <trkpt lat="44.75239" lon="5.84063">
        <ele>2210.21</ele>
        <time>2020-09-17T12:21:02Z</time>
      </trkpt>
      <trkpt lat="44.75238" lon="5.84063">
        <ele>2209.73</ele>
        <time>2020-09-17T12:21:05Z</time>
      </trkpt>
      <trkpt lat="44.75234" lon="5.84063">
        <ele>2208.77</ele>
        <time>2020-09-17T12:21:36Z</time>
      </trkpt>
      <trkpt lat="44.75228" lon="5.84061">
        <ele>2206.84</ele>
        <time>2020-09-17T12:21:55Z</time>
      </trkpt>
      <trkpt lat="44.75223" lon="5.84058">
        <ele>2204.44</ele>
        <time>2020-09-17T12:22:08Z</time>
      </trkpt>
      <trkpt lat="44.75214" lon="5.84054">
        <ele>2201.56</ele>
        <time>2020-09-17T12:22:22Z</time>
      </trkpt>
      <trkpt lat="44.75207" lon="5.84051">
        <ele>2198.67</ele>
        <time>2020-09-17T12:22:34Z</time>
      </trkpt>
      <trkpt lat="44.75203" lon="5.84051">
        <ele>2195.31</ele>
        <time>2020-09-17T12:22:43Z</time>
      </trkpt>
      <trkpt lat="44.75193" lon="5.84049">
        <ele>2192.42</ele>
        <time>2020-09-17T12:22:57Z</time>
      </trkpt>
      <trkpt lat="44.75183" lon="5.84044">
        <ele>2189.06</ele>
        <time>2020-09-17T12:23:11Z</time>
      </trkpt>
      <trkpt lat="44.75173" lon="5.84039">
        <ele>2186.18</ele>
        <time>2020-09-17T12:23:24Z</time>
      </trkpt>
      <trkpt lat="44.75165" lon="5.84038">
        <ele>2183.29</ele>
        <time>2020-09-17T12:23:39Z</time>
      </trkpt>
      <trkpt lat="44.75162" lon="5.84042">
        <ele>2180.41</ele>
        <time>2020-09-17T12:23:51Z</time>
      </trkpt>
      <trkpt lat="44.75155" lon="5.84043">
        <ele>2177.52</ele>
        <time>2020-09-17T12:24:03Z</time>
      </trkpt>
      <trkpt lat="44.75147" lon="5.84044">
        <ele>2174.64</ele>
        <time>2020-09-17T12:24:17Z</time>
      </trkpt>
      <trkpt lat="44.7514" lon="5.84044">
        <ele>2171.27</ele>
        <time>2020-09-17T12:24:29Z</time>
      </trkpt>
      <trkpt lat="44.75135" lon="5.84043">
        <ele>2169.83</ele>
        <time>2020-09-17T12:24:37Z</time>
      </trkpt>
      <trkpt lat="44.75127" lon="5.84038">
        <ele>2168.39</ele>
        <time>2020-09-17T12:24:47Z</time>
      </trkpt>
      <trkpt lat="44.75115" lon="5.8404">
        <ele>2165.03</ele>
        <time>2020-09-17T12:25:02Z</time>
      </trkpt>
      <trkpt lat="44.75105" lon="5.84043">
        <ele>2162.14</ele>
        <time>2020-09-17T12:25:14Z</time>
      </trkpt>
      <trkpt lat="44.75104" lon="5.84044">
        <ele>2161.66</ele>
        <time>2020-09-17T12:25:16Z</time>
      </trkpt>
      <trkpt lat="44.75092" lon="5.84046">
        <ele>2158.3</ele>
        <time>2020-09-17T12:25:29Z</time>
      </trkpt>
      <trkpt lat="44.75086" lon="5.8405">
        <ele>2156.37</ele>
        <time>2020-09-17T12:25:38Z</time>
      </trkpt>
      <trkpt lat="44.75076" lon="5.84056">
        <ele>2153.49</ele>
        <time>2020-09-17T12:25:53Z</time>
      </trkpt>
      <trkpt lat="44.75069" lon="5.84067">
        <ele>2151.09</ele>
        <time>2020-09-17T12:26:08Z</time>
      </trkpt>
      <trkpt lat="44.75067" lon="5.84067">
        <ele>2150.61</ele>
        <time>2020-09-17T12:26:14Z</time>
      </trkpt>
      <trkpt lat="44.75058" lon="5.84074">
        <ele>2147.24</ele>
        <time>2020-09-17T12:26:29Z</time>
      </trkpt>
      <trkpt lat="44.75057" lon="5.84074">
        <ele>2146.76</ele>
        <time>2020-09-17T12:26:30Z</time>
      </trkpt>
      <trkpt lat="44.75054" lon="5.84077">
        <ele>2143.88</ele>
        <time>2020-09-17T12:26:36Z</time>
      </trkpt>
      <trkpt lat="44.75052" lon="5.84087">
        <ele>2144.36</ele>
        <time>2020-09-17T12:26:52Z</time>
      </trkpt>
      <trkpt lat="44.75051" lon="5.84087">
        <ele>2144.36</ele>
        <time>2020-09-17T12:27:09Z</time>
      </trkpt>
      <trkpt lat="44.75047" lon="5.84092">
        <ele>2141.95</ele>
        <time>2020-09-17T12:27:23Z</time>
      </trkpt>
      <trkpt lat="44.75049" lon="5.84094">
        <ele>2142.44</ele>
        <time>2020-09-17T12:27:39Z</time>
      </trkpt>
      <trkpt lat="44.75049" lon="5.84094">
        <ele>2139.55</ele>
        <time>2020-09-17T12:28:06Z</time>
      </trkpt>
      <trkpt lat="44.75049" lon="5.84094">
        <ele>2142.92</ele>
        <time>2020-09-17T12:28:11Z</time>
      </trkpt>
      <trkpt lat="44.75048" lon="5.84094">
        <ele>2142.92</ele>
        <time>2020-09-17T12:28:12Z</time>
      </trkpt>
      <trkpt lat="44.75043" lon="5.84099">
        <ele>2142.92</ele>
        <time>2020-09-17T12:28:29Z</time>
      </trkpt>
      <trkpt lat="44.75038" lon="5.84102">
        <ele>2139.07</ele>
        <time>2020-09-17T12:28:37Z</time>
      </trkpt>
      <trkpt lat="44.75037" lon="5.84102">
        <ele>2138.59</ele>
        <time>2020-09-17T12:28:39Z</time>
      </trkpt>
      <trkpt lat="44.75034" lon="5.84102">
        <ele>2138.59</ele>
        <time>2020-09-17T12:28:44Z</time>
      </trkpt>
      <trkpt lat="44.75021" lon="5.84112">
        <ele>2138.11</ele>
        <time>2020-09-17T12:29:01Z</time>
      </trkpt>
      <trkpt lat="44.75013" lon="5.84119">
        <ele>2137.15</ele>
        <time>2020-09-17T12:29:18Z</time>
      </trkpt>
      <trkpt lat="44.75013" lon="5.84119">
        <ele>2136.67</ele>
        <time>2020-09-17T12:29:36Z</time>
      </trkpt>
      <trkpt lat="44.75013" lon="5.84118">
        <ele>2137.63</ele>
        <time>2020-09-17T12:30:01Z</time>
      </trkpt>
      <trkpt lat="44.75012" lon="5.84118">
        <ele>2136.67</ele>
        <time>2020-09-17T12:30:23Z</time>
      </trkpt>
      <trkpt lat="44.75012" lon="5.84117">
        <ele>2136.19</ele>
        <time>2020-09-17T12:30:47Z</time>
      </trkpt>
      <trkpt lat="44.75011" lon="5.84119">
        <ele>2136.19</ele>
        <time>2020-09-17T12:31:13Z</time>
      </trkpt>
      <trkpt lat="44.75013" lon="5.84117">
        <ele>2136.19</ele>
        <time>2020-09-17T12:31:23Z</time>
      </trkpt>
      <trkpt lat="44.75013" lon="5.84117">
        <ele>2136.19</ele>
        <time>2020-09-17T12:32:01Z</time>
      </trkpt>
      <trkpt lat="44.75012" lon="5.84117">
        <ele>2136.19</ele>
        <time>2020-09-17T12:32:30Z</time>
      </trkpt>
      <trkpt lat="44.75011" lon="5.84119">
        <ele>2136.19</ele>
        <time>2020-09-17T12:33:01Z</time>
      </trkpt>
      <trkpt lat="44.75005" lon="5.84127">
        <ele>2135.71</ele>
        <time>2020-09-17T12:33:13Z</time>
      </trkpt>
      <trkpt lat="44.74992" lon="5.84142">
        <ele>2135.23</ele>
        <time>2020-09-17T12:33:31Z</time>
      </trkpt>
      <trkpt lat="44.74988" lon="5.84156">
        <ele>2132.82</ele>
        <time>2020-09-17T12:33:48Z</time>
      </trkpt>
      <trkpt lat="44.74988" lon="5.84156">
        <ele>2131.38</ele>
        <time>2020-09-17T12:34:17Z</time>
      </trkpt>
      <trkpt lat="44.74986" lon="5.84156">
        <ele>2131.38</ele>
        <time>2020-09-17T12:34:45Z</time>
      </trkpt>
      <trkpt lat="44.74987" lon="5.84156">
        <ele>2131.86</ele>
        <time>2020-09-17T12:35:03Z</time>
      </trkpt>
      <trkpt lat="44.74987" lon="5.84156">
        <ele>2132.82</ele>
        <time>2020-09-17T12:35:24Z</time>
      </trkpt>
      <trkpt lat="44.74986" lon="5.84157">
        <ele>2134.74</ele>
        <time>2020-09-17T12:35:43Z</time>
      </trkpt>
      <trkpt lat="44.74981" lon="5.8416">
        <ele>2131.86</ele>
        <time>2020-09-17T12:35:58Z</time>
      </trkpt>
      <trkpt lat="44.74981" lon="5.84163">
        <ele>2130.9</ele>
        <time>2020-09-17T12:36:00Z</time>
      </trkpt>
      <trkpt lat="44.74985" lon="5.84174">
        <ele>2130.42</ele>
        <time>2020-09-17T12:36:11Z</time>
      </trkpt>
      <trkpt lat="44.7499" lon="5.84178">
        <ele>2131.38</ele>
        <time>2020-09-17T12:36:19Z</time>
      </trkpt>
      <trkpt lat="44.74991" lon="5.8418">
        <ele>2131.38</ele>
        <time>2020-09-17T12:36:21Z</time>
      </trkpt>
      <trkpt lat="44.74993" lon="5.84184">
        <ele>2131.38</ele>
        <time>2020-09-17T12:36:24Z</time>
      </trkpt>
      <trkpt lat="44.75011" lon="5.84191">
        <ele>2131.38</ele>
        <time>2020-09-17T12:36:43Z</time>
      </trkpt>
      <trkpt lat="44.75021" lon="5.84201">
        <ele>2134.74</ele>
        <time>2020-09-17T12:36:58Z</time>
      </trkpt>
      <trkpt lat="44.75023" lon="5.84219">
        <ele>2136.67</ele>
        <time>2020-09-17T12:37:14Z</time>
      </trkpt>
      <trkpt lat="44.75019" lon="5.84231">
        <ele>2137.63</ele>
        <time>2020-09-17T12:37:28Z</time>
      </trkpt>
      <trkpt lat="44.75013" lon="5.84233">
        <ele>2139.07</ele>
        <time>2020-09-17T12:37:44Z</time>
      </trkpt>
      <trkpt lat="44.75006" lon="5.84239">
        <ele>2136.19</ele>
        <time>2020-09-17T12:37:57Z</time>
      </trkpt>
      <trkpt lat="44.75" lon="5.84245">
        <ele>2132.82</ele>
        <time>2020-09-17T12:38:07Z</time>
      </trkpt>
      <trkpt lat="44.74998" lon="5.84251">
        <ele>2129.46</ele>
        <time>2020-09-17T12:38:17Z</time>
      </trkpt>
      <trkpt lat="44.74994" lon="5.84259">
        <ele>2126.09</ele>
        <time>2020-09-17T12:38:27Z</time>
      </trkpt>
      <trkpt lat="44.74989" lon="5.84264">
        <ele>2123.21</ele>
        <time>2020-09-17T12:38:35Z</time>
      </trkpt>
      <trkpt lat="44.74983" lon="5.84267">
        <ele>2119.36</ele>
        <time>2020-09-17T12:38:43Z</time>
      </trkpt>
      <trkpt lat="44.7498" lon="5.84275">
        <ele>2116</ele>
        <time>2020-09-17T12:38:52Z</time>
      </trkpt>
      <trkpt lat="44.74974" lon="5.84278">
        <ele>2112.63</ele>
        <time>2020-09-17T12:39:00Z</time>
      </trkpt>
      <trkpt lat="44.7497" lon="5.84281">
        <ele>2109.75</ele>
        <time>2020-09-17T12:39:08Z</time>
      </trkpt>
      <trkpt lat="44.74969" lon="5.84284">
        <ele>2108.79</ele>
        <time>2020-09-17T12:39:11Z</time>
      </trkpt>
      <trkpt lat="44.74966" lon="5.84286">
        <ele>2107.35</ele>
        <time>2020-09-17T12:39:14Z</time>
      </trkpt>
      <trkpt lat="44.74963" lon="5.84298">
        <ele>2103.5</ele>
        <time>2020-09-17T12:39:23Z</time>
      </trkpt>
      <trkpt lat="44.74958" lon="5.843">
        <ele>2100.14</ele>
        <time>2020-09-17T12:39:34Z</time>
      </trkpt>
      <trkpt lat="44.74953" lon="5.84307">
        <ele>2096.77</ele>
        <time>2020-09-17T12:39:50Z</time>
      </trkpt>
      <trkpt lat="44.74949" lon="5.84314">
        <ele>2093.89</ele>
        <time>2020-09-17T12:40:00Z</time>
      </trkpt>
      <trkpt lat="44.74944" lon="5.84317">
        <ele>2090.52</ele>
        <time>2020-09-17T12:40:09Z</time>
      </trkpt>
      <trkpt lat="44.74932" lon="5.84318">
        <ele>2087.64</ele>
        <time>2020-09-17T12:40:26Z</time>
      </trkpt>
      <trkpt lat="44.7493" lon="5.84318">
        <ele>2086.2</ele>
        <time>2020-09-17T12:40:30Z</time>
      </trkpt>
      <trkpt lat="44.74925" lon="5.84319">
        <ele>2085.24</ele>
        <time>2020-09-17T12:40:35Z</time>
      </trkpt>
      <trkpt lat="44.74921" lon="5.84321">
        <ele>2084.28</ele>
        <time>2020-09-17T12:40:40Z</time>
      </trkpt>
      <trkpt lat="44.74917" lon="5.84326">
        <ele>2082.35</ele>
        <time>2020-09-17T12:40:45Z</time>
      </trkpt>
      <trkpt lat="44.74909" lon="5.84336">
        <ele>2078.99</ele>
        <time>2020-09-17T12:40:56Z</time>
      </trkpt>
      <trkpt lat="44.74905" lon="5.84338">
        <ele>2077.07</ele>
        <time>2020-09-17T12:41:01Z</time>
      </trkpt>
      <trkpt lat="44.74895" lon="5.84347">
        <ele>2073.22</ele>
        <time>2020-09-17T12:41:13Z</time>
      </trkpt>
      <trkpt lat="44.74887" lon="5.84354">
        <ele>2072.26</ele>
        <time>2020-09-17T12:41:23Z</time>
      </trkpt>
      <trkpt lat="44.74871" lon="5.84362">
        <ele>2070.82</ele>
        <time>2020-09-17T12:41:30Z</time>
      </trkpt>
      <trkpt lat="44.74864" lon="5.84362">
        <ele>2068.41</ele>
        <time>2020-09-17T12:41:41Z</time>
      </trkpt>
      <trkpt lat="44.74864" lon="5.84361">
        <ele>2067.93</ele>
        <time>2020-09-17T12:41:43Z</time>
      </trkpt>
      <trkpt lat="44.74855" lon="5.84373">
        <ele>2064.57</ele>
        <time>2020-09-17T12:41:58Z</time>
      </trkpt>
      <trkpt lat="44.74847" lon="5.84384">
        <ele>2062.65</ele>
        <time>2020-09-17T12:42:13Z</time>
      </trkpt>
      <trkpt lat="44.74844" lon="5.84396">
        <ele>2059.76</ele>
        <time>2020-09-17T12:42:29Z</time>
      </trkpt>
      <trkpt lat="44.74843" lon="5.84398">
        <ele>2059.76</ele>
        <time>2020-09-17T12:42:31Z</time>
      </trkpt>
      <trkpt lat="44.7484" lon="5.84405">
        <ele>2059.28</ele>
        <time>2020-09-17T12:42:36Z</time>
      </trkpt>
      <trkpt lat="44.7483" lon="5.84432">
        <ele>2056.4</ele>
        <time>2020-09-17T12:42:56Z</time>
      </trkpt>
      <trkpt lat="44.74829" lon="5.84435">
        <ele>2055.92</ele>
        <time>2020-09-17T12:42:58Z</time>
      </trkpt>
      <trkpt lat="44.74829" lon="5.8444">
        <ele>2055.44</ele>
        <time>2020-09-17T12:43:01Z</time>
      </trkpt>
      <trkpt lat="44.74825" lon="5.8446">
        <ele>2052.55</ele>
        <time>2020-09-17T12:43:16Z</time>
      </trkpt>
      <trkpt lat="44.74825" lon="5.84461">
        <ele>2052.55</ele>
        <time>2020-09-17T12:43:17Z</time>
      </trkpt>
      <trkpt lat="44.74825" lon="5.84465">
        <ele>2051.59</ele>
        <time>2020-09-17T12:43:21Z</time>
      </trkpt>
      <trkpt lat="44.74825" lon="5.84471">
        <ele>2051.11</ele>
        <time>2020-09-17T12:43:25Z</time>
      </trkpt>
      <trkpt lat="44.74824" lon="5.84489">
        <ele>2049.19</ele>
        <time>2020-09-17T12:43:37Z</time>
      </trkpt>
      <trkpt lat="44.74823" lon="5.84507">
        <ele>2046.78</ele>
        <time>2020-09-17T12:43:52Z</time>
      </trkpt>
      <trkpt lat="44.74819" lon="5.84511">
        <ele>2045.82</ele>
        <time>2020-09-17T12:43:59Z</time>
      </trkpt>
      <trkpt lat="44.74808" lon="5.84524">
        <ele>2041.98</ele>
        <time>2020-09-17T12:44:16Z</time>
      </trkpt>
      <trkpt lat="44.74803" lon="5.84531">
        <ele>2040.05</ele>
        <time>2020-09-17T12:44:24Z</time>
      </trkpt>
      <trkpt lat="44.74802" lon="5.84534">
        <ele>2039.09</ele>
        <time>2020-09-17T12:44:27Z</time>
      </trkpt>
      <trkpt lat="44.74795" lon="5.84545">
        <ele>2035.73</ele>
        <time>2020-09-17T12:44:38Z</time>
      </trkpt>
      <trkpt lat="44.7479" lon="5.84556">
        <ele>2032.36</ele>
        <time>2020-09-17T12:44:48Z</time>
      </trkpt>
      <trkpt lat="44.74789" lon="5.84557">
        <ele>2032.36</ele>
        <time>2020-09-17T12:44:49Z</time>
      </trkpt>
      <trkpt lat="44.74785" lon="5.84571">
        <ele>2029</ele>
        <time>2020-09-17T12:45:02Z</time>
      </trkpt>
      <trkpt lat="44.74785" lon="5.84572">
        <ele>2028.52</ele>
        <time>2020-09-17T12:45:03Z</time>
      </trkpt>
      <trkpt lat="44.74783" lon="5.84592">
        <ele>2025.15</ele>
        <time>2020-09-17T12:45:18Z</time>
      </trkpt>
      <trkpt lat="44.74782" lon="5.84594">
        <ele>2024.19</ele>
        <time>2020-09-17T12:45:20Z</time>
      </trkpt>
      <trkpt lat="44.74781" lon="5.846">
        <ele>2023.23</ele>
        <time>2020-09-17T12:45:24Z</time>
      </trkpt>
      <trkpt lat="44.74778" lon="5.84603">
        <ele>2022.27</ele>
        <time>2020-09-17T12:45:28Z</time>
      </trkpt>
      <trkpt lat="44.74775" lon="5.8461">
        <ele>2019.87</ele>
        <time>2020-09-17T12:45:34Z</time>
      </trkpt>
      <trkpt lat="44.74769" lon="5.84617">
        <ele>2017.94</ele>
        <time>2020-09-17T12:45:43Z</time>
      </trkpt>
      <trkpt lat="44.74763" lon="5.84628">
        <ele>2014.58</ele>
        <time>2020-09-17T12:45:54Z</time>
      </trkpt>
      <trkpt lat="44.74756" lon="5.84638">
        <ele>2011.22</ele>
        <time>2020-09-17T12:46:05Z</time>
      </trkpt>
      <trkpt lat="44.74751" lon="5.84649">
        <ele>2008.33</ele>
        <time>2020-09-17T12:46:15Z</time>
      </trkpt>
      <trkpt lat="44.74746" lon="5.84659">
        <ele>2004.97</ele>
        <time>2020-09-17T12:46:25Z</time>
      </trkpt>
      <trkpt lat="44.74744" lon="5.84668">
        <ele>2002.08</ele>
        <time>2020-09-17T12:46:33Z</time>
      </trkpt>
      <trkpt lat="44.74742" lon="5.84677">
        <ele>1999.68</ele>
        <time>2020-09-17T12:46:41Z</time>
      </trkpt>
      <trkpt lat="44.74742" lon="5.8468">
        <ele>1998.72</ele>
        <time>2020-09-17T12:46:44Z</time>
      </trkpt>
      <trkpt lat="44.74737" lon="5.84693">
        <ele>1995.35</ele>
        <time>2020-09-17T12:46:56Z</time>
      </trkpt>
      <trkpt lat="44.74736" lon="5.847">
        <ele>1993.91</ele>
        <time>2020-09-17T12:47:02Z</time>
      </trkpt>
      <trkpt lat="44.74734" lon="5.84713">
        <ele>1990.07</ele>
        <time>2020-09-17T12:47:12Z</time>
      </trkpt>
      <trkpt lat="44.74734" lon="5.8472">
        <ele>1988.62</ele>
        <time>2020-09-17T12:47:17Z</time>
      </trkpt>
      <trkpt lat="44.74734" lon="5.84723">
        <ele>1987.18</ele>
        <time>2020-09-17T12:47:20Z</time>
      </trkpt>
      <trkpt lat="44.74727" lon="5.84732">
        <ele>1983.34</ele>
        <time>2020-09-17T12:47:31Z</time>
      </trkpt>
      <trkpt lat="44.74724" lon="5.84742">
        <ele>1979.97</ele>
        <time>2020-09-17T12:47:40Z</time>
      </trkpt>
      <trkpt lat="44.74723" lon="5.84747">
        <ele>1977.57</ele>
        <time>2020-09-17T12:47:46Z</time>
      </trkpt>
      <trkpt lat="44.74723" lon="5.84753">
        <ele>1976.13</ele>
        <time>2020-09-17T12:47:51Z</time>
      </trkpt>
      <trkpt lat="44.74723" lon="5.84755">
        <ele>1975.17</ele>
        <time>2020-09-17T12:47:53Z</time>
      </trkpt>
      <trkpt lat="44.74719" lon="5.8478">
        <ele>1972.28</ele>
        <time>2020-09-17T12:48:10Z</time>
      </trkpt>
      <trkpt lat="44.74714" lon="5.848">
        <ele>1968.92</ele>
        <time>2020-09-17T12:48:23Z</time>
      </trkpt>
      <trkpt lat="44.74705" lon="5.84823">
        <ele>1966.03</ele>
        <time>2020-09-17T12:48:39Z</time>
      </trkpt>
      <trkpt lat="44.74697" lon="5.84844">
        <ele>1963.63</ele>
        <time>2020-09-17T12:48:55Z</time>
      </trkpt>
      <trkpt lat="44.74692" lon="5.84852">
        <ele>1962.67</ele>
        <time>2020-09-17T12:49:02Z</time>
      </trkpt>
      <trkpt lat="44.74689" lon="5.84854">
        <ele>1962.19</ele>
        <time>2020-09-17T12:49:05Z</time>
      </trkpt>
      <trkpt lat="44.74679" lon="5.84869">
        <ele>1958.82</ele>
        <time>2020-09-17T12:49:21Z</time>
      </trkpt>
      <trkpt lat="44.74677" lon="5.8487">
        <ele>1958.82</ele>
        <time>2020-09-17T12:49:23Z</time>
      </trkpt>
      <trkpt lat="44.74666" lon="5.84875">
        <ele>1955.46</ele>
        <time>2020-09-17T12:49:36Z</time>
      </trkpt>
      <trkpt lat="44.74657" lon="5.84875">
        <ele>1952.57</ele>
        <time>2020-09-17T12:49:49Z</time>
      </trkpt>
      <trkpt lat="44.74651" lon="5.84873">
        <ele>1950.17</ele>
        <time>2020-09-17T12:49:57Z</time>
      </trkpt>
      <trkpt lat="44.74643" lon="5.84869">
        <ele>1946.81</ele>
        <time>2020-09-17T12:50:08Z</time>
      </trkpt>
      <trkpt lat="44.74636" lon="5.84869">
        <ele>1943.44</ele>
        <time>2020-09-17T12:50:17Z</time>
      </trkpt>
      <trkpt lat="44.74628" lon="5.84872">
        <ele>1940.56</ele>
        <time>2020-09-17T12:50:27Z</time>
      </trkpt>
      <trkpt lat="44.74619" lon="5.84876">
        <ele>1937.19</ele>
        <time>2020-09-17T12:50:40Z</time>
      </trkpt>
      <trkpt lat="44.74611" lon="5.8487">
        <ele>1934.31</ele>
        <time>2020-09-17T12:50:51Z</time>
      </trkpt>
      <trkpt lat="44.74607" lon="5.84868">
        <ele>1930.95</ele>
        <time>2020-09-17T12:50:59Z</time>
      </trkpt>
      <trkpt lat="44.74607" lon="5.84868">
        <ele>1927.58</ele>
        <time>2020-09-17T12:51:05Z</time>
      </trkpt>
      <trkpt lat="44.74601" lon="5.84864">
        <ele>1927.58</ele>
        <time>2020-09-17T12:51:19Z</time>
      </trkpt>
      <trkpt lat="44.74594" lon="5.84869">
        <ele>1924.7</ele>
        <time>2020-09-17T12:51:29Z</time>
      </trkpt>
      <trkpt lat="44.74593" lon="5.84869">
        <ele>1924.22</ele>
        <time>2020-09-17T12:51:31Z</time>
      </trkpt>
      <trkpt lat="44.74585" lon="5.84867">
        <ele>1920.85</ele>
        <time>2020-09-17T12:51:44Z</time>
      </trkpt>
      <trkpt lat="44.74581" lon="5.84865">
        <ele>1917.97</ele>
        <time>2020-09-17T12:52:00Z</time>
      </trkpt>
      <trkpt lat="44.74574" lon="5.84869">
        <ele>1916.04</ele>
        <time>2020-09-17T12:52:15Z</time>
      </trkpt>
      <trkpt lat="44.74568" lon="5.84877">
        <ele>1913.16</ele>
        <time>2020-09-17T12:52:28Z</time>
      </trkpt>
      <trkpt lat="44.74562" lon="5.84881">
        <ele>1909.8</ele>
        <time>2020-09-17T12:52:39Z</time>
      </trkpt>
      <trkpt lat="44.74559" lon="5.84884">
        <ele>1906.91</ele>
        <time>2020-09-17T12:52:45Z</time>
      </trkpt>
      <trkpt lat="44.74556" lon="5.84896">
        <ele>1904.99</ele>
        <time>2020-09-17T12:53:00Z</time>
      </trkpt>
      <trkpt lat="44.74553" lon="5.849">
        <ele>1902.11</ele>
        <time>2020-09-17T12:53:10Z</time>
      </trkpt>
      <trkpt lat="44.74552" lon="5.84906">
        <ele>1899.22</ele>
        <time>2020-09-17T12:53:19Z</time>
      </trkpt>
      <trkpt lat="44.7455" lon="5.84907">
        <ele>1896.82</ele>
        <time>2020-09-17T12:53:24Z</time>
      </trkpt>
      <trkpt lat="44.74549" lon="5.84911">
        <ele>1896.82</ele>
        <time>2020-09-17T12:53:28Z</time>
      </trkpt>
      <trkpt lat="44.74547" lon="5.84918">
        <ele>1893.45</ele>
        <time>2020-09-17T12:53:37Z</time>
      </trkpt>
      <trkpt lat="44.74547" lon="5.84928">
        <ele>1890.09</ele>
        <time>2020-09-17T12:53:47Z</time>
      </trkpt>
      <trkpt lat="44.74548" lon="5.84933">
        <ele>1888.65</ele>
        <time>2020-09-17T12:53:51Z</time>
      </trkpt>
      <trkpt lat="44.74546" lon="5.84943">
        <ele>1885.76</ele>
        <time>2020-09-17T12:54:01Z</time>
      </trkpt>
      <trkpt lat="44.74545" lon="5.84956">
        <ele>1882.4</ele>
        <time>2020-09-17T12:54:12Z</time>
      </trkpt>
      <trkpt lat="44.74542" lon="5.84963">
        <ele>1879.03</ele>
        <time>2020-09-17T12:54:19Z</time>
      </trkpt>
      <trkpt lat="44.74541" lon="5.84964">
        <ele>1879.03</ele>
        <time>2020-09-17T12:54:20Z</time>
      </trkpt>
      <trkpt lat="44.74539" lon="5.84969">
        <ele>1877.59</ele>
        <time>2020-09-17T12:54:24Z</time>
      </trkpt>
      <trkpt lat="44.74536" lon="5.84981">
        <ele>1874.23</ele>
        <time>2020-09-17T12:54:34Z</time>
      </trkpt>
      <trkpt lat="44.74533" lon="5.84989">
        <ele>1871.82</ele>
        <time>2020-09-17T12:54:47Z</time>
      </trkpt>
      <trkpt lat="44.74529" lon="5.84991">
        <ele>1871.34</ele>
        <time>2020-09-17T12:54:51Z</time>
      </trkpt>
      <trkpt lat="44.7452" lon="5.85004">
        <ele>1867.98</ele>
        <time>2020-09-17T12:55:06Z</time>
      </trkpt>
      <trkpt lat="44.74515" lon="5.85011">
        <ele>1864.61</ele>
        <time>2020-09-17T12:55:17Z</time>
      </trkpt>
      <trkpt lat="44.74509" lon="5.85016">
        <ele>1861.25</ele>
        <time>2020-09-17T12:55:27Z</time>
      </trkpt>
      <trkpt lat="44.74507" lon="5.85024">
        <ele>1857.4</ele>
        <time>2020-09-17T12:55:37Z</time>
      </trkpt>
      <trkpt lat="44.745" lon="5.85031">
        <ele>1854.52</ele>
        <time>2020-09-17T12:55:50Z</time>
      </trkpt>
      <trkpt lat="44.74497" lon="5.85039">
        <ele>1851.16</ele>
        <time>2020-09-17T12:56:00Z</time>
      </trkpt>
      <trkpt lat="44.74495" lon="5.8505">
        <ele>1847.79</ele>
        <time>2020-09-17T12:56:10Z</time>
      </trkpt>
      <trkpt lat="44.74491" lon="5.85057">
        <ele>1844.91</ele>
        <time>2020-09-17T12:56:19Z</time>
      </trkpt>
      <trkpt lat="44.74491" lon="5.85058">
        <ele>1844.43</ele>
        <time>2020-09-17T12:56:20Z</time>
      </trkpt>
      <trkpt lat="44.74489" lon="5.85063">
        <ele>1842.5</ele>
        <time>2020-09-17T12:56:27Z</time>
      </trkpt>
      <trkpt lat="44.74487" lon="5.85072">
        <ele>1839.14</ele>
        <time>2020-09-17T12:56:41Z</time>
      </trkpt>
      <trkpt lat="44.74487" lon="5.85083">
        <ele>1835.77</ele>
        <time>2020-09-17T12:56:53Z</time>
      </trkpt>
      <trkpt lat="44.74487" lon="5.85094">
        <ele>1832.41</ele>
        <time>2020-09-17T12:57:07Z</time>
      </trkpt>
      <trkpt lat="44.74484" lon="5.85102">
        <ele>1829.53</ele>
        <time>2020-09-17T12:57:18Z</time>
      </trkpt>
      <trkpt lat="44.74483" lon="5.85108">
        <ele>1826.16</ele>
        <time>2020-09-17T12:57:27Z</time>
      </trkpt>
      <trkpt lat="44.74479" lon="5.85116">
        <ele>1822.8</ele>
        <time>2020-09-17T12:57:38Z</time>
      </trkpt>
      <trkpt lat="44.74478" lon="5.85118">
        <ele>1821.84</ele>
        <time>2020-09-17T12:57:41Z</time>
      </trkpt>
      <trkpt lat="44.74472" lon="5.85122">
        <ele>1818.47</ele>
        <time>2020-09-17T12:57:51Z</time>
      </trkpt>
      <trkpt lat="44.74468" lon="5.85127">
        <ele>1815.11</ele>
        <time>2020-09-17T12:58:00Z</time>
      </trkpt>
      <trkpt lat="44.74466" lon="5.85132">
        <ele>1812.22</ele>
        <time>2020-09-17T12:58:07Z</time>
      </trkpt>
      <trkpt lat="44.74461" lon="5.85136">
        <ele>1808.86</ele>
        <time>2020-09-17T12:58:16Z</time>
      </trkpt>
      <trkpt lat="44.74456" lon="5.85141">
        <ele>1805.49</ele>
        <time>2020-09-17T12:58:24Z</time>
      </trkpt>
      <trkpt lat="44.74453" lon="5.85151">
        <ele>1802.61</ele>
        <time>2020-09-17T12:58:33Z</time>
      </trkpt>
      <trkpt lat="44.74449" lon="5.85163">
        <ele>1799.24</ele>
        <time>2020-09-17T12:58:45Z</time>
      </trkpt>
      <trkpt lat="44.74445" lon="5.85169">
        <ele>1797.8</ele>
        <time>2020-09-17T12:58:51Z</time>
      </trkpt>
      <trkpt lat="44.7444" lon="5.85177">
        <ele>1794.44</ele>
        <time>2020-09-17T12:59:01Z</time>
      </trkpt>
      <trkpt lat="44.74434" lon="5.85182">
        <ele>1791.07</ele>
        <time>2020-09-17T12:59:11Z</time>
      </trkpt>
      <trkpt lat="44.74432" lon="5.85187">
        <ele>1787.71</ele>
        <time>2020-09-17T12:59:19Z</time>
      </trkpt>
      <trkpt lat="44.74428" lon="5.85193">
        <ele>1784.34</ele>
        <time>2020-09-17T12:59:28Z</time>
      </trkpt>
      <trkpt lat="44.74424" lon="5.852">
        <ele>1780.98</ele>
        <time>2020-09-17T12:59:38Z</time>
      </trkpt>
      <trkpt lat="44.74423" lon="5.85204">
        <ele>1777.61</ele>
        <time>2020-09-17T12:59:43Z</time>
      </trkpt>
      <trkpt lat="44.74416" lon="5.85214">
        <ele>1775.21</ele>
        <time>2020-09-17T12:59:56Z</time>
      </trkpt>
      <trkpt lat="44.74415" lon="5.85215">
        <ele>1775.21</ele>
        <time>2020-09-17T12:59:57Z</time>
      </trkpt>
      <trkpt lat="44.74415" lon="5.85223">
        <ele>1771.85</ele>
        <time>2020-09-17T13:00:06Z</time>
      </trkpt>
      <trkpt lat="44.74412" lon="5.85232">
        <ele>1768.96</ele>
        <time>2020-09-17T13:00:17Z</time>
      </trkpt>
      <trkpt lat="44.74412" lon="5.85238">
        <ele>1766.56</ele>
        <time>2020-09-17T13:00:23Z</time>
      </trkpt>
      <trkpt lat="44.74411" lon="5.85253">
        <ele>1762.71</ele>
        <time>2020-09-17T13:00:36Z</time>
      </trkpt>
      <trkpt lat="44.74411" lon="5.85261">
        <ele>1760.79</ele>
        <time>2020-09-17T13:00:42Z</time>
      </trkpt>
      <trkpt lat="44.74412" lon="5.85273">
        <ele>1757.91</ele>
        <time>2020-09-17T13:00:51Z</time>
      </trkpt>
      <trkpt lat="44.74411" lon="5.85276">
        <ele>1757.43</ele>
        <time>2020-09-17T13:00:54Z</time>
      </trkpt>
      <trkpt lat="44.74407" lon="5.85283">
        <ele>1755.5</ele>
        <time>2020-09-17T13:01:01Z</time>
      </trkpt>
      <trkpt lat="44.74406" lon="5.85287">
        <ele>1754.54</ele>
        <time>2020-09-17T13:01:04Z</time>
      </trkpt>
      <trkpt lat="44.74398" lon="5.85299">
        <ele>1752.62</ele>
        <time>2020-09-17T13:01:18Z</time>
      </trkpt>
      <trkpt lat="44.7439" lon="5.85304">
        <ele>1752.62</ele>
        <time>2020-09-17T13:01:29Z</time>
      </trkpt>
      <trkpt lat="44.7438" lon="5.85306">
        <ele>1752.14</ele>
        <time>2020-09-17T13:01:43Z</time>
      </trkpt>
      <trkpt lat="44.74376" lon="5.85308">
        <ele>1751.18</ele>
        <time>2020-09-17T13:01:51Z</time>
      </trkpt>
      <trkpt lat="44.74374" lon="5.8531">
        <ele>1751.18</ele>
        <time>2020-09-17T13:01:55Z</time>
      </trkpt>
      <trkpt lat="44.74366" lon="5.85327">
        <ele>1748.78</ele>
        <time>2020-09-17T13:02:11Z</time>
      </trkpt>
      <trkpt lat="44.74364" lon="5.85332">
        <ele>1746.85</ele>
        <time>2020-09-17T13:02:15Z</time>
      </trkpt>
      <trkpt lat="44.74363" lon="5.8534">
        <ele>1746.37</ele>
        <time>2020-09-17T13:02:21Z</time>
      </trkpt>
      <trkpt lat="44.74363" lon="5.85354">
        <ele>1743.49</ele>
        <time>2020-09-17T13:02:33Z</time>
      </trkpt>
      <trkpt lat="44.74363" lon="5.85371">
        <ele>1740.12</ele>
        <time>2020-09-17T13:02:48Z</time>
      </trkpt>
      <trkpt lat="44.74361" lon="5.8538">
        <ele>1737.24</ele>
        <time>2020-09-17T13:02:59Z</time>
      </trkpt>
      <trkpt lat="44.74357" lon="5.85394">
        <ele>1734.36</ele>
        <time>2020-09-17T13:03:13Z</time>
      </trkpt>
      <trkpt lat="44.74357" lon="5.85397">
        <ele>1733.88</ele>
        <time>2020-09-17T13:03:15Z</time>
      </trkpt>
      <trkpt lat="44.74355" lon="5.85405">
        <ele>1732.43</ele>
        <time>2020-09-17T13:03:21Z</time>
      </trkpt>
      <trkpt lat="44.74348" lon="5.85426">
        <ele>1728.59</ele>
        <time>2020-09-17T13:03:38Z</time>
      </trkpt>
      <trkpt lat="44.74342" lon="5.85448">
        <ele>1726.67</ele>
        <time>2020-09-17T13:03:53Z</time>
      </trkpt>
      <trkpt lat="44.74331" lon="5.85469">
        <ele>1724.74</ele>
        <time>2020-09-17T13:04:11Z</time>
      </trkpt>
      <trkpt lat="44.74326" lon="5.85477">
        <ele>1723.78</ele>
        <time>2020-09-17T13:04:18Z</time>
      </trkpt>
      <trkpt lat="44.74324" lon="5.85492">
        <ele>1721.38</ele>
        <time>2020-09-17T13:04:33Z</time>
      </trkpt>
      <trkpt lat="44.74319" lon="5.85504">
        <ele>1718.49</ele>
        <time>2020-09-17T13:04:46Z</time>
      </trkpt>
      <trkpt lat="44.74317" lon="5.85515">
        <ele>1715.13</ele>
        <time>2020-09-17T13:04:57Z</time>
      </trkpt>
      <trkpt lat="44.74315" lon="5.85524">
        <ele>1712.25</ele>
        <time>2020-09-17T13:05:08Z</time>
      </trkpt>
      <trkpt lat="44.7431" lon="5.85532">
        <ele>1709.36</ele>
        <time>2020-09-17T13:05:18Z</time>
      </trkpt>
      <trkpt lat="44.74308" lon="5.85537">
        <ele>1707.92</ele>
        <time>2020-09-17T13:05:23Z</time>
      </trkpt>
      <trkpt lat="44.74304" lon="5.85548">
        <ele>1704.07</ele>
        <time>2020-09-17T13:05:37Z</time>
      </trkpt>
      <trkpt lat="44.743" lon="5.85555">
        <ele>1701.19</ele>
        <time>2020-09-17T13:05:48Z</time>
      </trkpt>
      <trkpt lat="44.74298" lon="5.85568">
        <ele>1697.83</ele>
        <time>2020-09-17T13:06:00Z</time>
      </trkpt>
      <trkpt lat="44.74294" lon="5.8558">
        <ele>1694.46</ele>
        <time>2020-09-17T13:06:12Z</time>
      </trkpt>
      <trkpt lat="44.74292" lon="5.85587">
        <ele>1691.58</ele>
        <time>2020-09-17T13:06:22Z</time>
      </trkpt>
      <trkpt lat="44.7429" lon="5.85598">
        <ele>1688.69</ele>
        <time>2020-09-17T13:06:33Z</time>
      </trkpt>
      <trkpt lat="44.74289" lon="5.85605">
        <ele>1686.77</ele>
        <time>2020-09-17T13:06:44Z</time>
      </trkpt>
      <trkpt lat="44.74285" lon="5.8561">
        <ele>1684.37</ele>
        <time>2020-09-17T13:06:53Z</time>
      </trkpt>
      <trkpt lat="44.74285" lon="5.85622">
        <ele>1681.48</ele>
        <time>2020-09-17T13:07:06Z</time>
      </trkpt>
      <trkpt lat="44.74286" lon="5.85632">
        <ele>1678.6</ele>
        <time>2020-09-17T13:07:18Z</time>
      </trkpt>
      <trkpt lat="44.74283" lon="5.85644">
        <ele>1675.23</ele>
        <time>2020-09-17T13:07:29Z</time>
      </trkpt>
      <trkpt lat="44.7428" lon="5.85655">
        <ele>1671.87</ele>
        <time>2020-09-17T13:07:39Z</time>
      </trkpt>
      <trkpt lat="44.74278" lon="5.85665">
        <ele>1668.99</ele>
        <time>2020-09-17T13:07:52Z</time>
      </trkpt>
      <trkpt lat="44.74275" lon="5.85679">
        <ele>1665.62</ele>
        <time>2020-09-17T13:08:05Z</time>
      </trkpt>
      <trkpt lat="44.74276" lon="5.85687">
        <ele>1663.22</ele>
        <time>2020-09-17T13:08:12Z</time>
      </trkpt>
      <trkpt lat="44.74279" lon="5.85694">
        <ele>1660.81</ele>
        <time>2020-09-17T13:08:21Z</time>
      </trkpt>
      <trkpt lat="44.74278" lon="5.857">
        <ele>1658.89</ele>
        <time>2020-09-17T13:08:28Z</time>
      </trkpt>
      <trkpt lat="44.74277" lon="5.85703">
        <ele>1658.41</ele>
        <time>2020-09-17T13:08:30Z</time>
      </trkpt>
      <trkpt lat="44.7428" lon="5.85718">
        <ele>1654.57</ele>
        <time>2020-09-17T13:08:44Z</time>
      </trkpt>
      <trkpt lat="44.74281" lon="5.8572">
        <ele>1654.57</ele>
        <time>2020-09-17T13:08:46Z</time>
      </trkpt>
      <trkpt lat="44.74283" lon="5.8574">
        <ele>1651.2</ele>
        <time>2020-09-17T13:09:01Z</time>
      </trkpt>
      <trkpt lat="44.74279" lon="5.85758">
        <ele>1647.84</ele>
        <time>2020-09-17T13:09:14Z</time>
      </trkpt>
      <trkpt lat="44.74276" lon="5.85784">
        <ele>1644.95</ele>
        <time>2020-09-17T13:09:32Z</time>
      </trkpt>
      <trkpt lat="44.74278" lon="5.85793">
        <ele>1644.47</ele>
        <time>2020-09-17T13:09:47Z</time>
      </trkpt>
      <trkpt lat="44.74278" lon="5.85793">
        <ele>1643.99</ele>
        <time>2020-09-17T13:10:12Z</time>
      </trkpt>
      <trkpt lat="44.74277" lon="5.85793">
        <ele>1643.99</ele>
        <time>2020-09-17T13:10:30Z</time>
      </trkpt>
      <trkpt lat="44.74278" lon="5.85793">
        <ele>1644.47</ele>
        <time>2020-09-17T13:10:59Z</time>
      </trkpt>
      <trkpt lat="44.74278" lon="5.85793">
        <ele>1644.47</ele>
        <time>2020-09-17T13:11:41Z</time>
      </trkpt>
      <trkpt lat="44.74278" lon="5.85793">
        <ele>1639.19</ele>
        <time>2020-09-17T13:11:47Z</time>
      </trkpt>
      <trkpt lat="44.74278" lon="5.85793">
        <ele>1639.67</ele>
        <time>2020-09-17T13:11:48Z</time>
      </trkpt>
      <trkpt lat="44.74278" lon="5.85793">
        <ele>1643.03</ele>
        <time>2020-09-17T13:11:55Z</time>
      </trkpt>
      <trkpt lat="44.74278" lon="5.85794">
        <ele>1642.07</ele>
        <time>2020-09-17T13:12:25Z</time>
      </trkpt>
      <trkpt lat="44.74277" lon="5.85792">
        <ele>1641.59</ele>
        <time>2020-09-17T13:12:57Z</time>
      </trkpt>
      <trkpt lat="44.74273" lon="5.85794">
        <ele>1642.07</ele>
        <time>2020-09-17T13:13:25Z</time>
      </trkpt>
      <trkpt lat="44.74273" lon="5.85795">
        <ele>1641.59</ele>
        <time>2020-09-17T13:13:58Z</time>
      </trkpt>
      <trkpt lat="44.74273" lon="5.85795">
        <ele>1637.26</ele>
        <time>2020-09-17T13:14:03Z</time>
      </trkpt>
      <trkpt lat="44.74273" lon="5.85795">
        <ele>1635.34</ele>
        <time>2020-09-17T13:14:06Z</time>
      </trkpt>
      <trkpt lat="44.74273" lon="5.85795">
        <ele>1640.63</ele>
        <time>2020-09-17T13:14:09Z</time>
      </trkpt>
      <trkpt lat="44.74273" lon="5.85795">
        <ele>1644.47</ele>
        <time>2020-09-17T13:14:11Z</time>
      </trkpt>
      <trkpt lat="44.74273" lon="5.85795">
        <ele>1643.51</ele>
        <time>2020-09-17T13:14:16Z</time>
      </trkpt>
      <trkpt lat="44.74274" lon="5.85795">
        <ele>1641.59</ele>
        <time>2020-09-17T13:14:49Z</time>
      </trkpt>
      <trkpt lat="44.74275" lon="5.85795">
        <ele>1641.59</ele>
        <time>2020-09-17T13:15:27Z</time>
      </trkpt>
      <trkpt lat="44.74274" lon="5.85802">
        <ele>1642.07</ele>
        <time>2020-09-17T13:15:45Z</time>
      </trkpt>
      <trkpt lat="44.74275" lon="5.85804">
        <ele>1641.59</ele>
        <time>2020-09-17T13:15:47Z</time>
      </trkpt>
      <trkpt lat="44.74279" lon="5.85831">
        <ele>1640.63</ele>
        <time>2020-09-17T13:16:05Z</time>
      </trkpt>
      <trkpt lat="44.74281" lon="5.85843">
        <ele>1637.26</ele>
        <time>2020-09-17T13:16:13Z</time>
      </trkpt>
      <trkpt lat="44.74284" lon="5.85867">
        <ele>1636.78</ele>
        <time>2020-09-17T13:16:28Z</time>
      </trkpt>
      <trkpt lat="44.74284" lon="5.85874">
        <ele>1635.82</ele>
        <time>2020-09-17T13:16:33Z</time>
      </trkpt>
      <trkpt lat="44.74285" lon="5.85883">
        <ele>1634.38</ele>
        <time>2020-09-17T13:16:39Z</time>
      </trkpt>
      <trkpt lat="44.74288" lon="5.85911">
        <ele>1632.94</ele>
        <time>2020-09-17T13:16:59Z</time>
      </trkpt>
      <trkpt lat="44.7429" lon="5.85941">
        <ele>1631.98</ele>
        <time>2020-09-17T13:17:18Z</time>
      </trkpt>
      <trkpt lat="44.74291" lon="5.85969">
        <ele>1631.01</ele>
        <time>2020-09-17T13:17:36Z</time>
      </trkpt>
      <trkpt lat="44.74292" lon="5.86004">
        <ele>1630.05</ele>
        <time>2020-09-17T13:17:57Z</time>
      </trkpt>
      <trkpt lat="44.74289" lon="5.86037">
        <ele>1627.65</ele>
        <time>2020-09-17T13:18:16Z</time>
      </trkpt>
      <trkpt lat="44.74283" lon="5.86064">
        <ele>1627.17</ele>
        <time>2020-09-17T13:18:33Z</time>
      </trkpt>
      <trkpt lat="44.74275" lon="5.86097">
        <ele>1626.21</ele>
        <time>2020-09-17T13:18:54Z</time>
      </trkpt>
      <trkpt lat="44.74273" lon="5.86101">
        <ele>1626.21</ele>
        <time>2020-09-17T13:18:57Z</time>
      </trkpt>
      <trkpt lat="44.74253" lon="5.86113">
        <ele>1625.73</ele>
        <time>2020-09-17T13:19:16Z</time>
      </trkpt>
      <trkpt lat="44.74236" lon="5.86115">
        <ele>1628.61</ele>
        <time>2020-09-17T13:19:34Z</time>
      </trkpt>
      <trkpt lat="44.74232" lon="5.86116">
        <ele>1629.57</ele>
        <time>2020-09-17T13:19:39Z</time>
      </trkpt>
      <trkpt lat="44.74212" lon="5.86134">
        <ele>1629.57</ele>
        <time>2020-09-17T13:19:59Z</time>
      </trkpt>
      <trkpt lat="44.74209" lon="5.86138">
        <ele>1630.05</ele>
        <time>2020-09-17T13:20:12Z</time>
      </trkpt>
      <trkpt lat="44.74202" lon="5.86153">
        <ele>1631.01</ele>
        <time>2020-09-17T13:20:24Z</time>
      </trkpt>
      <trkpt lat="44.74197" lon="5.86165">
        <ele>1631.98</ele>
        <time>2020-09-17T13:20:35Z</time>
      </trkpt>
      <trkpt lat="44.74188" lon="5.86184">
        <ele>1633.42</ele>
        <time>2020-09-17T13:20:50Z</time>
      </trkpt>
      <trkpt lat="44.74184" lon="5.86191">
        <ele>1633.42</ele>
        <time>2020-09-17T13:20:56Z</time>
      </trkpt>
      <trkpt lat="44.74176" lon="5.8621">
        <ele>1634.86</ele>
        <time>2020-09-17T13:21:11Z</time>
      </trkpt>
      <trkpt lat="44.74175" lon="5.86221">
        <ele>1635.34</ele>
        <time>2020-09-17T13:21:19Z</time>
      </trkpt>
      <trkpt lat="44.74166" lon="5.86241">
        <ele>1636.78</ele>
        <time>2020-09-17T13:21:35Z</time>
      </trkpt>
      <trkpt lat="44.74165" lon="5.86244">
        <ele>1636.78</ele>
        <time>2020-09-17T13:21:37Z</time>
      </trkpt>
      <trkpt lat="44.74161" lon="5.86257">
        <ele>1636.78</ele>
        <time>2020-09-17T13:21:48Z</time>
      </trkpt>
      <trkpt lat="44.74152" lon="5.86282">
        <ele>1635.82</ele>
        <time>2020-09-17T13:22:07Z</time>
      </trkpt>
      <trkpt lat="44.74148" lon="5.86297">
        <ele>1634.86</ele>
        <time>2020-09-17T13:22:23Z</time>
      </trkpt>
      <trkpt lat="44.74145" lon="5.86305">
        <ele>1633.42</ele>
        <time>2020-09-17T13:22:39Z</time>
      </trkpt>
      <trkpt lat="44.74141" lon="5.86324">
        <ele>1630.53</ele>
        <time>2020-09-17T13:22:54Z</time>
      </trkpt>
      <trkpt lat="44.74139" lon="5.86338">
        <ele>1627.17</ele>
        <time>2020-09-17T13:23:05Z</time>
      </trkpt>
      <trkpt lat="44.74136" lon="5.86349">
        <ele>1624.28</ele>
        <time>2020-09-17T13:23:14Z</time>
      </trkpt>
      <trkpt lat="44.74136" lon="5.8635">
        <ele>1623.8</ele>
        <time>2020-09-17T13:23:15Z</time>
      </trkpt>
      <trkpt lat="44.74134" lon="5.86352">
        <ele>1623.32</ele>
        <time>2020-09-17T13:23:17Z</time>
      </trkpt>
      <trkpt lat="44.74131" lon="5.86362">
        <ele>1619.96</ele>
        <time>2020-09-17T13:23:25Z</time>
      </trkpt>
      <trkpt lat="44.7413" lon="5.86364">
        <ele>1619.48</ele>
        <time>2020-09-17T13:23:26Z</time>
      </trkpt>
      <trkpt lat="44.74125" lon="5.86376">
        <ele>1616.11</ele>
        <time>2020-09-17T13:23:36Z</time>
      </trkpt>
      <trkpt lat="44.74122" lon="5.86381">
        <ele>1614.19</ele>
        <time>2020-09-17T13:23:41Z</time>
      </trkpt>
      <trkpt lat="44.74116" lon="5.86385">
        <ele>1613.23</ele>
        <time>2020-09-17T13:23:47Z</time>
      </trkpt>
      <trkpt lat="44.74109" lon="5.86398">
        <ele>1609.38</ele>
        <time>2020-09-17T13:23:58Z</time>
      </trkpt>
      <trkpt lat="44.74101" lon="5.86401">
        <ele>1606.02</ele>
        <time>2020-09-17T13:24:06Z</time>
      </trkpt>
      <trkpt lat="44.74088" lon="5.86409">
        <ele>1603.14</ele>
        <time>2020-09-17T13:24:23Z</time>
      </trkpt>
      <trkpt lat="44.74081" lon="5.86413">
        <ele>1604.58</ele>
        <time>2020-09-17T13:24:38Z</time>
      </trkpt>
      <trkpt lat="44.74074" lon="5.8642">
        <ele>1601.69</ele>
        <time>2020-09-17T13:24:49Z</time>
      </trkpt>
      <trkpt lat="44.74064" lon="5.86427">
        <ele>1598.81</ele>
        <time>2020-09-17T13:25:03Z</time>
      </trkpt>
      <trkpt lat="44.74053" lon="5.86433">
        <ele>1595.45</ele>
        <time>2020-09-17T13:25:14Z</time>
      </trkpt>
      <trkpt lat="44.74041" lon="5.86445">
        <ele>1592.56</ele>
        <time>2020-09-17T13:25:29Z</time>
      </trkpt>
      <trkpt lat="44.74035" lon="5.86448">
        <ele>1591.12</ele>
        <time>2020-09-17T13:25:35Z</time>
      </trkpt>
      <trkpt lat="44.74033" lon="5.86448">
        <ele>1590.64</ele>
        <time>2020-09-17T13:25:37Z</time>
      </trkpt>
      <trkpt lat="44.74027" lon="5.86451">
        <ele>1590.16</ele>
        <time>2020-09-17T13:25:42Z</time>
      </trkpt>
      <trkpt lat="44.74015" lon="5.86469">
        <ele>1588.72</ele>
        <time>2020-09-17T13:25:57Z</time>
      </trkpt>
      <trkpt lat="44.74015" lon="5.8647">
        <ele>1588.72</ele>
        <time>2020-09-17T13:25:58Z</time>
      </trkpt>
      <trkpt lat="44.74007" lon="5.86481">
        <ele>1588.24</ele>
        <time>2020-09-17T13:26:11Z</time>
      </trkpt>
      <trkpt lat="44.73994" lon="5.86492">
        <ele>1588.24</ele>
        <time>2020-09-17T13:26:26Z</time>
      </trkpt>
      <trkpt lat="44.7399" lon="5.86492">
        <ele>1588.72</ele>
        <time>2020-09-17T13:26:30Z</time>
      </trkpt>
      <trkpt lat="44.73982" lon="5.86489">
        <ele>1590.16</ele>
        <time>2020-09-17T13:26:42Z</time>
      </trkpt>
      <trkpt lat="44.73973" lon="5.86483">
        <ele>1590.64</ele>
        <time>2020-09-17T13:26:59Z</time>
      </trkpt>
      <trkpt lat="44.7397" lon="5.86484">
        <ele>1589.68</ele>
        <time>2020-09-17T13:27:16Z</time>
      </trkpt>
      <trkpt lat="44.7397" lon="5.86484">
        <ele>1590.16</ele>
        <time>2020-09-17T13:27:34Z</time>
      </trkpt>
      <trkpt lat="44.73965" lon="5.86485">
        <ele>1590.16</ele>
        <time>2020-09-17T13:27:57Z</time>
      </trkpt>
      <trkpt lat="44.73965" lon="5.86485">
        <ele>1586.79</ele>
        <time>2020-09-17T13:28:14Z</time>
      </trkpt>
      <trkpt lat="44.73965" lon="5.86485">
        <ele>1590.16</ele>
        <time>2020-09-17T13:28:19Z</time>
      </trkpt>
      <trkpt lat="44.73965" lon="5.86485">
        <ele>1590.64</ele>
        <time>2020-09-17T13:28:21Z</time>
      </trkpt>
      <trkpt lat="44.73965" lon="5.86485">
        <ele>1590.64</ele>
        <time>2020-09-17T13:28:39Z</time>
      </trkpt>
      <trkpt lat="44.73965" lon="5.86485">
        <ele>1590.64</ele>
        <time>2020-09-17T13:28:40Z</time>
      </trkpt>
      <trkpt lat="44.73963" lon="5.86488">
        <ele>1589.2</ele>
        <time>2020-09-17T13:29:06Z</time>
      </trkpt>
      <trkpt lat="44.73964" lon="5.86502">
        <ele>1587.75</ele>
        <time>2020-09-17T13:29:19Z</time>
      </trkpt>
      <trkpt lat="44.73965" lon="5.86503">
        <ele>1587.75</ele>
        <time>2020-09-17T13:29:20Z</time>
      </trkpt>
      <trkpt lat="44.73967" lon="5.86509">
        <ele>1586.79</ele>
        <time>2020-09-17T13:29:24Z</time>
      </trkpt>
      <trkpt lat="44.73962" lon="5.86517">
        <ele>1585.83</ele>
        <time>2020-09-17T13:29:34Z</time>
      </trkpt>
      <trkpt lat="44.73961" lon="5.86518">
        <ele>1585.35</ele>
        <time>2020-09-17T13:29:35Z</time>
      </trkpt>
      <trkpt lat="44.7396" lon="5.86518">
        <ele>1585.35</ele>
        <time>2020-09-17T13:29:36Z</time>
      </trkpt>
      <trkpt lat="44.73959" lon="5.86519">
        <ele>1585.35</ele>
        <time>2020-09-17T13:29:37Z</time>
      </trkpt>
      <trkpt lat="44.73958" lon="5.8652">
        <ele>1584.87</ele>
        <time>2020-09-17T13:29:38Z</time>
      </trkpt>
      <trkpt lat="44.73953" lon="5.86525">
        <ele>1583.43</ele>
        <time>2020-09-17T13:29:44Z</time>
      </trkpt>
      <trkpt lat="44.73953" lon="5.86528">
        <ele>1583.43</ele>
        <time>2020-09-17T13:29:46Z</time>
      </trkpt>
      <trkpt lat="44.73955" lon="5.86532">
        <ele>1581.99</ele>
        <time>2020-09-17T13:29:50Z</time>
      </trkpt>
      <trkpt lat="44.73955" lon="5.86538">
        <ele>1580.06</ele>
        <time>2020-09-17T13:29:54Z</time>
      </trkpt>
      <trkpt lat="44.73956" lon="5.86543">
        <ele>1579.1</ele>
        <time>2020-09-17T13:29:57Z</time>
      </trkpt>
      <trkpt lat="44.73955" lon="5.86561">
        <ele>1576.22</ele>
        <time>2020-09-17T13:30:08Z</time>
      </trkpt>
      <trkpt lat="44.73959" lon="5.86573">
        <ele>1573.82</ele>
        <time>2020-09-17T13:30:17Z</time>
      </trkpt>
      <trkpt lat="44.73964" lon="5.86587">
        <ele>1570.45</ele>
        <time>2020-09-17T13:30:26Z</time>
      </trkpt>
      <trkpt lat="44.73969" lon="5.86601">
        <ele>1567.09</ele>
        <time>2020-09-17T13:30:36Z</time>
      </trkpt>
      <trkpt lat="44.73971" lon="5.86606">
        <ele>1566.61</ele>
        <time>2020-09-17T13:30:39Z</time>
      </trkpt>
      <trkpt lat="44.73979" lon="5.86623">
        <ele>1564.2</ele>
        <time>2020-09-17T13:30:52Z</time>
      </trkpt>
      <trkpt lat="44.73988" lon="5.86638">
        <ele>1561.32</ele>
        <time>2020-09-17T13:31:06Z</time>
      </trkpt>
      <trkpt lat="44.73989" lon="5.86641">
        <ele>1560.84</ele>
        <time>2020-09-17T13:31:08Z</time>
      </trkpt>
      <trkpt lat="44.74002" lon="5.86654">
        <ele>1556.99</ele>
        <time>2020-09-17T13:31:21Z</time>
      </trkpt>
      <trkpt lat="44.74013" lon="5.86668">
        <ele>1554.11</ele>
        <time>2020-09-17T13:31:33Z</time>
      </trkpt>
      <trkpt lat="44.74018" lon="5.86677">
        <ele>1552.67</ele>
        <time>2020-09-17T13:31:40Z</time>
      </trkpt>
      <trkpt lat="44.74019" lon="5.86678">
        <ele>1552.19</ele>
        <time>2020-09-17T13:31:41Z</time>
      </trkpt>
      <trkpt lat="44.74019" lon="5.8668">
        <ele>1551.71</ele>
        <time>2020-09-17T13:31:42Z</time>
      </trkpt>
      <trkpt lat="44.74019" lon="5.86681">
        <ele>1551.22</ele>
        <time>2020-09-17T13:31:43Z</time>
      </trkpt>
      <trkpt lat="44.7402" lon="5.86689">
        <ele>1549.3</ele>
        <time>2020-09-17T13:31:52Z</time>
      </trkpt>
      <trkpt lat="44.74022" lon="5.867">
        <ele>1547.38</ele>
        <time>2020-09-17T13:32:00Z</time>
      </trkpt>
      <trkpt lat="44.74023" lon="5.86705">
        <ele>1546.42</ele>
        <time>2020-09-17T13:32:04Z</time>
      </trkpt>
      <trkpt lat="44.74025" lon="5.86709">
        <ele>1544.98</ele>
        <time>2020-09-17T13:32:07Z</time>
      </trkpt>
      <trkpt lat="44.74029" lon="5.86731">
        <ele>1541.61</ele>
        <time>2020-09-17T13:32:21Z</time>
      </trkpt>
      <trkpt lat="44.74033" lon="5.86756">
        <ele>1538.73</ele>
        <time>2020-09-17T13:32:35Z</time>
      </trkpt>
      <trkpt lat="44.74031" lon="5.86784">
        <ele>1535.36</ele>
        <time>2020-09-17T13:32:51Z</time>
      </trkpt>
      <trkpt lat="44.74022" lon="5.86801">
        <ele>1536.32</ele>
        <time>2020-09-17T13:33:06Z</time>
      </trkpt>
      <trkpt lat="44.74019" lon="5.86807">
        <ele>1536.32</ele>
        <time>2020-09-17T13:33:24Z</time>
      </trkpt>
      <trkpt lat="44.7402" lon="5.86808">
        <ele>1535.36</ele>
        <time>2020-09-17T13:33:45Z</time>
      </trkpt>
      <trkpt lat="44.74019" lon="5.86807">
        <ele>1534.88</ele>
        <time>2020-09-17T13:34:09Z</time>
      </trkpt>
      <trkpt lat="44.74021" lon="5.86818">
        <ele>1534.88</ele>
        <time>2020-09-17T13:34:20Z</time>
      </trkpt>
      <trkpt lat="44.74023" lon="5.86828">
        <ele>1534.4</ele>
        <time>2020-09-17T13:34:27Z</time>
      </trkpt>
      <trkpt lat="44.74033" lon="5.86845">
        <ele>1532.96</ele>
        <time>2020-09-17T13:34:44Z</time>
      </trkpt>
      <trkpt lat="44.74035" lon="5.86859">
        <ele>1531.04</ele>
        <time>2020-09-17T13:34:57Z</time>
      </trkpt>
      <trkpt lat="44.74037" lon="5.86861">
        <ele>1530.56</ele>
        <time>2020-09-17T13:34:59Z</time>
      </trkpt>
      <trkpt lat="44.7405" lon="5.86873">
        <ele>1527.19</ele>
        <time>2020-09-17T13:35:16Z</time>
      </trkpt>
      <trkpt lat="44.74058" lon="5.86882">
        <ele>1524.31</ele>
        <time>2020-09-17T13:35:28Z</time>
      </trkpt>
      <trkpt lat="44.74061" lon="5.86885">
        <ele>1522.39</ele>
        <time>2020-09-17T13:35:33Z</time>
      </trkpt>
      <trkpt lat="44.74068" lon="5.86889">
        <ele>1519.02</ele>
        <time>2020-09-17T13:35:43Z</time>
      </trkpt>
      <trkpt lat="44.74072" lon="5.86889">
        <ele>1516.14</ele>
        <time>2020-09-17T13:35:52Z</time>
      </trkpt>
      <trkpt lat="44.7408" lon="5.86887">
        <ele>1512.77</ele>
        <time>2020-09-17T13:36:04Z</time>
      </trkpt>
      <trkpt lat="44.74086" lon="5.86898">
        <ele>1509.89</ele>
        <time>2020-09-17T13:36:15Z</time>
      </trkpt>
      <trkpt lat="44.74077" lon="5.86913">
        <ele>1508.45</ele>
        <time>2020-09-17T13:36:32Z</time>
      </trkpt>
      <trkpt lat="44.74069" lon="5.86922">
        <ele>1507.97</ele>
        <time>2020-09-17T13:36:48Z</time>
      </trkpt>
      <trkpt lat="44.74071" lon="5.86931">
        <ele>1506.52</ele>
        <time>2020-09-17T13:37:03Z</time>
      </trkpt>
      <trkpt lat="44.7407" lon="5.86934">
        <ele>1504.6</ele>
        <time>2020-09-17T13:37:08Z</time>
      </trkpt>
      <trkpt lat="44.74069" lon="5.86934">
        <ele>1501.24</ele>
        <time>2020-09-17T13:37:21Z</time>
      </trkpt>
      <trkpt lat="44.74066" lon="5.86933">
        <ele>1501.24</ele>
        <time>2020-09-17T13:37:36Z</time>
      </trkpt>
      <trkpt lat="44.74062" lon="5.86932">
        <ele>1501.72</ele>
        <time>2020-09-17T13:37:56Z</time>
      </trkpt>
      <trkpt lat="44.74059" lon="5.86932">
        <ele>1503.64</ele>
        <time>2020-09-17T13:38:00Z</time>
      </trkpt>
      <trkpt lat="44.74054" lon="5.86933">
        <ele>1501.72</ele>
        <time>2020-09-17T13:38:06Z</time>
      </trkpt>
      <trkpt lat="44.74053" lon="5.86934">
        <ele>1503.16</ele>
        <time>2020-09-17T13:38:21Z</time>
      </trkpt>
      <trkpt lat="44.74052" lon="5.86934">
        <ele>1501.72</ele>
        <time>2020-09-17T13:38:35Z</time>
      </trkpt>
      <trkpt lat="44.74041" lon="5.86936">
        <ele>1502.68</ele>
        <time>2020-09-17T13:38:50Z</time>
      </trkpt>
      <trkpt lat="44.7404" lon="5.86936">
        <ele>1502.2</ele>
        <time>2020-09-17T13:38:51Z</time>
      </trkpt>
      <trkpt lat="44.74029" lon="5.86933">
        <ele>1502.2</ele>
        <time>2020-09-17T13:39:12Z</time>
      </trkpt>
      <trkpt lat="44.74028" lon="5.86933">
        <ele>1502.68</ele>
        <time>2020-09-17T13:39:20Z</time>
      </trkpt>
      <trkpt lat="44.74015" lon="5.86936">
        <ele>1503.16</ele>
        <time>2020-09-17T13:39:43Z</time>
      </trkpt>
      <trkpt lat="44.74" lon="5.86937">
        <ele>1503.64</ele>
        <time>2020-09-17T13:40:03Z</time>
      </trkpt>
      <trkpt lat="44.73995" lon="5.86931">
        <ele>1505.08</ele>
        <time>2020-09-17T13:40:16Z</time>
      </trkpt>
      <trkpt lat="44.73988" lon="5.86938">
        <ele>1505.56</ele>
        <time>2020-09-17T13:40:32Z</time>
      </trkpt>
      <trkpt lat="44.73979" lon="5.8695">
        <ele>1502.2</ele>
        <time>2020-09-17T13:40:42Z</time>
      </trkpt>
      <trkpt lat="44.73977" lon="5.8696">
        <ele>1501.72</ele>
        <time>2020-09-17T13:40:50Z</time>
      </trkpt>
      <trkpt lat="44.73977" lon="5.86966">
        <ele>1499.79</ele>
        <time>2020-09-17T13:41:08Z</time>
      </trkpt>
      <trkpt lat="44.73977" lon="5.86967">
        <ele>1497.39</ele>
        <time>2020-09-17T13:41:30Z</time>
      </trkpt>
      <trkpt lat="44.73977" lon="5.86967">
        <ele>1501.24</ele>
        <time>2020-09-17T13:41:50Z</time>
      </trkpt>
      <trkpt lat="44.73977" lon="5.86968">
        <ele>1498.83</ele>
        <time>2020-09-17T13:42:10Z</time>
      </trkpt>
      <trkpt lat="44.73981" lon="5.86976">
        <ele>1497.39</ele>
        <time>2020-09-17T13:42:25Z</time>
      </trkpt>
      <trkpt lat="44.73989" lon="5.86998">
        <ele>1494.99</ele>
        <time>2020-09-17T13:42:45Z</time>
      </trkpt>
      <trkpt lat="44.73994" lon="5.87008">
        <ele>1493.06</ele>
        <time>2020-09-17T13:43:00Z</time>
      </trkpt>
      <trkpt lat="44.73994" lon="5.87017">
        <ele>1490.18</ele>
        <time>2020-09-17T13:43:10Z</time>
      </trkpt>
      <trkpt lat="44.73997" lon="5.87026">
        <ele>1486.82</ele>
        <time>2020-09-17T13:43:22Z</time>
      </trkpt>
      <trkpt lat="44.73995" lon="5.87031">
        <ele>1484.41</ele>
        <time>2020-09-17T13:43:36Z</time>
      </trkpt>
      <trkpt lat="44.73993" lon="5.8704">
        <ele>1482.01</ele>
        <time>2020-09-17T13:43:52Z</time>
      </trkpt>
      <trkpt lat="44.73992" lon="5.87047">
        <ele>1481.53</ele>
        <time>2020-09-17T13:44:03Z</time>
      </trkpt>
      <trkpt lat="44.7399" lon="5.8705">
        <ele>1481.53</ele>
        <time>2020-09-17T13:44:19Z</time>
      </trkpt>
      <trkpt lat="44.73984" lon="5.8706">
        <ele>1478.65</ele>
        <time>2020-09-17T13:44:35Z</time>
      </trkpt>
      <trkpt lat="44.73982" lon="5.87062">
        <ele>1479.61</ele>
        <time>2020-09-17T13:44:53Z</time>
      </trkpt>
      <trkpt lat="44.73981" lon="5.87062">
        <ele>1482.49</ele>
        <time>2020-09-17T13:45:01Z</time>
      </trkpt>
      <trkpt lat="44.73976" lon="5.87062">
        <ele>1481.53</ele>
        <time>2020-09-17T13:45:20Z</time>
      </trkpt>
      <trkpt lat="44.7397" lon="5.87065">
        <ele>1481.53</ele>
        <time>2020-09-17T13:45:30Z</time>
      </trkpt>
      <trkpt lat="44.73968" lon="5.87075">
        <ele>1481.05</ele>
        <time>2020-09-17T13:45:44Z</time>
      </trkpt>
      <trkpt lat="44.73966" lon="5.8709">
        <ele>1479.61</ele>
        <time>2020-09-17T13:45:57Z</time>
      </trkpt>
      <trkpt lat="44.73967" lon="5.871">
        <ele>1477.2</ele>
        <time>2020-09-17T13:46:11Z</time>
      </trkpt>
      <trkpt lat="44.73964" lon="5.87108">
        <ele>1476.72</ele>
        <time>2020-09-17T13:46:34Z</time>
      </trkpt>
      <trkpt lat="44.73962" lon="5.87116">
        <ele>1473.36</ele>
        <time>2020-09-17T13:46:45Z</time>
      </trkpt>
      <trkpt lat="44.73963" lon="5.87121">
        <ele>1474.32</ele>
        <time>2020-09-17T13:47:02Z</time>
      </trkpt>
      <trkpt lat="44.73962" lon="5.87128">
        <ele>1470.95</ele>
        <time>2020-09-17T13:47:12Z</time>
      </trkpt>
      <trkpt lat="44.73963" lon="5.87128">
        <ele>1471.92</ele>
        <time>2020-09-17T13:47:19Z</time>
      </trkpt>
      <trkpt lat="44.73963" lon="5.8713">
        <ele>1470.95</ele>
        <time>2020-09-17T13:47:40Z</time>
      </trkpt>
      <trkpt lat="44.73962" lon="5.8713">
        <ele>1471.44</ele>
        <time>2020-09-17T13:48:07Z</time>
      </trkpt>
      <trkpt lat="44.73955" lon="5.87143">
        <ele>1470.95</ele>
        <time>2020-09-17T13:48:26Z</time>
      </trkpt>
      <trkpt lat="44.73949" lon="5.87145">
        <ele>1469.99</ele>
        <time>2020-09-17T13:48:39Z</time>
      </trkpt>
      <trkpt lat="44.73948" lon="5.87146">
        <ele>1469.99</ele>
        <time>2020-09-17T13:48:40Z</time>
      </trkpt>
      <trkpt lat="44.7394" lon="5.87157">
        <ele>1469.03</ele>
        <time>2020-09-17T13:48:58Z</time>
      </trkpt>
      <trkpt lat="44.73945" lon="5.87171">
        <ele>1466.15</ele>
        <time>2020-09-17T13:49:16Z</time>
      </trkpt>
      <trkpt lat="44.73942" lon="5.87181">
        <ele>1463.26</ele>
        <time>2020-09-17T13:49:32Z</time>
      </trkpt>
      <trkpt lat="44.73935" lon="5.87182">
        <ele>1461.82</ele>
        <time>2020-09-17T13:49:50Z</time>
      </trkpt>
      <trkpt lat="44.73925" lon="5.87181">
        <ele>1461.82</ele>
        <time>2020-09-17T13:50:10Z</time>
      </trkpt>
      <trkpt lat="44.73917" lon="5.8718">
        <ele>1460.86</ele>
        <time>2020-09-17T13:50:25Z</time>
      </trkpt>
      <trkpt lat="44.73917" lon="5.8718">
        <ele>1460.38</ele>
        <time>2020-09-17T13:50:46Z</time>
      </trkpt>
      <trkpt lat="44.73914" lon="5.87188">
        <ele>1458.94</ele>
        <time>2020-09-17T13:51:01Z</time>
      </trkpt>
      <trkpt lat="44.73912" lon="5.87195">
        <ele>1456.05</ele>
        <time>2020-09-17T13:51:17Z</time>
      </trkpt>
      <trkpt lat="44.73908" lon="5.87204">
        <ele>1452.69</ele>
        <time>2020-09-17T13:51:33Z</time>
      </trkpt>
      <trkpt lat="44.73914" lon="5.87214">
        <ele>1450.77</ele>
        <time>2020-09-17T13:51:48Z</time>
      </trkpt>
      <trkpt lat="44.73914" lon="5.87225">
        <ele>1448.36</ele>
        <time>2020-09-17T13:52:00Z</time>
      </trkpt>
      <trkpt lat="44.73915" lon="5.87229">
        <ele>1447.88</ele>
        <time>2020-09-17T13:52:04Z</time>
      </trkpt>
      <trkpt lat="44.73921" lon="5.87239">
        <ele>1446.44</ele>
        <time>2020-09-17T13:52:18Z</time>
      </trkpt>
      <trkpt lat="44.73919" lon="5.87251">
        <ele>1444.52</ele>
        <time>2020-09-17T13:52:32Z</time>
      </trkpt>
      <trkpt lat="44.73921" lon="5.87254">
        <ele>1443.08</ele>
        <time>2020-09-17T13:52:48Z</time>
      </trkpt>
      <trkpt lat="44.73925" lon="5.87258">
        <ele>1441.63</ele>
        <time>2020-09-17T13:53:01Z</time>
      </trkpt>
      <trkpt lat="44.73926" lon="5.87266">
        <ele>1440.19</ele>
        <time>2020-09-17T13:53:10Z</time>
      </trkpt>
      <trkpt lat="44.73916" lon="5.87278">
        <ele>1438.75</ele>
        <time>2020-09-17T13:53:24Z</time>
      </trkpt>
      <trkpt lat="44.73914" lon="5.87281">
        <ele>1436.83</ele>
        <time>2020-09-17T13:53:39Z</time>
      </trkpt>
      <trkpt lat="44.73908" lon="5.87281">
        <ele>1436.35</ele>
        <time>2020-09-17T13:53:44Z</time>
      </trkpt>
      <trkpt lat="44.73888" lon="5.8729">
        <ele>1434.42</ele>
        <time>2020-09-17T13:54:02Z</time>
      </trkpt>
      <trkpt lat="44.73878" lon="5.87294">
        <ele>1432.98</ele>
        <time>2020-09-17T13:54:10Z</time>
      </trkpt>
      <trkpt lat="44.73863" lon="5.87303">
        <ele>1432.98</ele>
        <time>2020-09-17T13:54:24Z</time>
      </trkpt>
      <trkpt lat="44.73852" lon="5.87316">
        <ele>1429.62</ele>
        <time>2020-09-17T13:54:38Z</time>
      </trkpt>
      <trkpt lat="44.73844" lon="5.87329">
        <ele>1426.73</ele>
        <time>2020-09-17T13:54:51Z</time>
      </trkpt>
      <trkpt lat="44.73844" lon="5.87345">
        <ele>1423.37</ele>
        <time>2020-09-17T13:55:05Z</time>
      </trkpt>
      <trkpt lat="44.73841" lon="5.87351">
        <ele>1422.41</ele>
        <time>2020-09-17T13:55:10Z</time>
      </trkpt>
      <trkpt lat="44.73829" lon="5.8736">
        <ele>1418.56</ele>
        <time>2020-09-17T13:55:23Z</time>
      </trkpt>
      <trkpt lat="44.73826" lon="5.87363">
        <ele>1418.08</ele>
        <time>2020-09-17T13:55:26Z</time>
      </trkpt>
      <trkpt lat="44.7382" lon="5.87378">
        <ele>1414.72</ele>
        <time>2020-09-17T13:55:39Z</time>
      </trkpt>
      <trkpt lat="44.73818" lon="5.87388">
        <ele>1411.35</ele>
        <time>2020-09-17T13:55:49Z</time>
      </trkpt>
      <trkpt lat="44.73815" lon="5.87389">
        <ele>1409.91</ele>
        <time>2020-09-17T13:55:54Z</time>
      </trkpt>
      <trkpt lat="44.73799" lon="5.87396">
        <ele>1406.07</ele>
        <time>2020-09-17T13:56:08Z</time>
      </trkpt>
      <trkpt lat="44.73791" lon="5.87398">
        <ele>1404.14</ele>
        <time>2020-09-17T13:56:15Z</time>
      </trkpt>
      <trkpt lat="44.73784" lon="5.87401">
        <ele>1404.14</ele>
        <time>2020-09-17T13:56:22Z</time>
      </trkpt>
      <trkpt lat="44.73769" lon="5.87434">
        <ele>1412.31</ele>
        <time>2020-09-17T13:56:51Z</time>
      </trkpt>
      <trkpt lat="44.73769" lon="5.87435">
        <ele>1396.93</ele>
        <time>2020-09-17T13:56:52Z</time>
      </trkpt>
      <trkpt lat="44.73764" lon="5.87453">
        <ele>1394.05</ele>
        <time>2020-09-17T13:57:05Z</time>
      </trkpt>
      <trkpt lat="44.73767" lon="5.87475">
        <ele>1391.17</ele>
        <time>2020-09-17T13:57:19Z</time>
      </trkpt>
      <trkpt lat="44.73767" lon="5.87481">
        <ele>1391.17</ele>
        <time>2020-09-17T13:57:23Z</time>
      </trkpt>
      <trkpt lat="44.73765" lon="5.8749">
        <ele>1390.2</ele>
        <time>2020-09-17T13:57:29Z</time>
      </trkpt>
      <trkpt lat="44.73765" lon="5.87504">
        <ele>1388.28</ele>
        <time>2020-09-17T13:57:39Z</time>
      </trkpt>
      <trkpt lat="44.73762" lon="5.8751">
        <ele>1387.32</ele>
        <time>2020-09-17T13:57:44Z</time>
      </trkpt>
      <trkpt lat="44.73761" lon="5.87512">
        <ele>1386.84</ele>
        <time>2020-09-17T13:57:46Z</time>
      </trkpt>
      <trkpt lat="44.73762" lon="5.87516">
        <ele>1385.4</ele>
        <time>2020-09-17T13:57:50Z</time>
      </trkpt>
      <trkpt lat="44.7375" lon="5.87531">
        <ele>1382.03</ele>
        <time>2020-09-17T13:58:05Z</time>
      </trkpt>
      <trkpt lat="44.73749" lon="5.87538">
        <ele>1380.59</ele>
        <time>2020-09-17T13:58:11Z</time>
      </trkpt>
      <trkpt lat="44.73749" lon="5.87544">
        <ele>1378.67</ele>
        <time>2020-09-17T13:58:15Z</time>
      </trkpt>
      <trkpt lat="44.73742" lon="5.87558">
        <ele>1374.82</ele>
        <time>2020-09-17T13:58:26Z</time>
      </trkpt>
      <trkpt lat="44.73737" lon="5.87569">
        <ele>1371.94</ele>
        <time>2020-09-17T13:58:35Z</time>
      </trkpt>
      <trkpt lat="44.73734" lon="5.8758">
        <ele>1368.57</ele>
        <time>2020-09-17T13:58:43Z</time>
      </trkpt>
      <trkpt lat="44.73732" lon="5.8759">
        <ele>1364.73</ele>
        <time>2020-09-17T13:58:50Z</time>
      </trkpt>
      <trkpt lat="44.73732" lon="5.87594">
        <ele>1361.36</ele>
        <time>2020-09-17T13:58:53Z</time>
      </trkpt>
      <trkpt lat="44.73732" lon="5.87603">
        <ele>1362.81</ele>
        <time>2020-09-17T13:59:00Z</time>
      </trkpt>
      <trkpt lat="44.73735" lon="5.87615">
        <ele>1361.36</ele>
        <time>2020-09-17T13:59:08Z</time>
      </trkpt>
      <trkpt lat="44.73737" lon="5.87625">
        <ele>1358.96</ele>
        <time>2020-09-17T13:59:15Z</time>
      </trkpt>
      <trkpt lat="44.7374" lon="5.8764">
        <ele>1355.6</ele>
        <time>2020-09-17T13:59:26Z</time>
      </trkpt>
      <trkpt lat="44.73742" lon="5.87655">
        <ele>1352.71</ele>
        <time>2020-09-17T13:59:36Z</time>
      </trkpt>
      <trkpt lat="44.73743" lon="5.87672">
        <ele>1349.35</ele>
        <time>2020-09-17T13:59:47Z</time>
      </trkpt>
      <trkpt lat="44.73746" lon="5.8769">
        <ele>1345.98</ele>
        <time>2020-09-17T13:59:59Z</time>
      </trkpt>
      <trkpt lat="44.73748" lon="5.87706">
        <ele>1343.1</ele>
        <time>2020-09-17T14:00:10Z</time>
      </trkpt>
      <trkpt lat="44.73747" lon="5.87718">
        <ele>1339.73</ele>
        <time>2020-09-17T14:00:18Z</time>
      </trkpt>
      <trkpt lat="44.73747" lon="5.87736">
        <ele>1336.37</ele>
        <time>2020-09-17T14:00:30Z</time>
      </trkpt>
      <trkpt lat="44.73749" lon="5.87749">
        <ele>1333.49</ele>
        <time>2020-09-17T14:00:39Z</time>
      </trkpt>
      <trkpt lat="44.7375" lon="5.87755">
        <ele>1331.56</ele>
        <time>2020-09-17T14:00:43Z</time>
      </trkpt>
      <trkpt lat="44.73756" lon="5.87758">
        <ele>1328.68</ele>
        <time>2020-09-17T14:00:49Z</time>
      </trkpt>
      <trkpt lat="44.73772" lon="5.87776">
        <ele>1327.72</ele>
        <time>2020-09-17T14:01:08Z</time>
      </trkpt>
      <trkpt lat="44.73777" lon="5.87775">
        <ele>1327.24</ele>
        <time>2020-09-17T14:01:12Z</time>
      </trkpt>
      <trkpt lat="44.73782" lon="5.87771">
        <ele>1326.76</ele>
        <time>2020-09-17T14:01:16Z</time>
      </trkpt>
      <trkpt lat="44.73787" lon="5.87773">
        <ele>1325.8</ele>
        <time>2020-09-17T14:01:20Z</time>
      </trkpt>
      <trkpt lat="44.73799" lon="5.87797">
        <ele>1326.28</ele>
        <time>2020-09-17T14:01:37Z</time>
      </trkpt>
      <trkpt lat="44.73798" lon="5.87807">
        <ele>1325.8</ele>
        <time>2020-09-17T14:01:43Z</time>
      </trkpt>
      <trkpt lat="44.73793" lon="5.87832">
        <ele>1324.83</ele>
        <time>2020-09-17T14:01:59Z</time>
      </trkpt>
      <trkpt lat="44.73791" lon="5.87843">
        <ele>1322.43</ele>
        <time>2020-09-17T14:02:07Z</time>
      </trkpt>
      <trkpt lat="44.73786" lon="5.87872">
        <ele>1320.03</ele>
        <time>2020-09-17T14:02:28Z</time>
      </trkpt>
      <trkpt lat="44.73777" lon="5.87896">
        <ele>1316.66</ele>
        <time>2020-09-17T14:02:46Z</time>
      </trkpt>
      <trkpt lat="44.73772" lon="5.87912">
        <ele>1313.78</ele>
        <time>2020-09-17T14:02:58Z</time>
      </trkpt>
      <trkpt lat="44.73768" lon="5.87927">
        <ele>1310.41</ele>
        <time>2020-09-17T14:03:10Z</time>
      </trkpt>
      <trkpt lat="44.73766" lon="5.87931">
        <ele>1309.45</ele>
        <time>2020-09-17T14:03:14Z</time>
      </trkpt>
      <trkpt lat="44.73762" lon="5.87942">
        <ele>1307.53</ele>
        <time>2020-09-17T14:03:22Z</time>
      </trkpt>
      <trkpt lat="44.73756" lon="5.8796">
        <ele>1304.17</ele>
        <time>2020-09-17T14:03:35Z</time>
      </trkpt>
      <trkpt lat="44.73752" lon="5.87977">
        <ele>1300.8</ele>
        <time>2020-09-17T14:03:47Z</time>
      </trkpt>
      <trkpt lat="44.73748" lon="5.87998">
        <ele>1297.92</ele>
        <time>2020-09-17T14:04:00Z</time>
      </trkpt>
      <trkpt lat="44.73746" lon="5.88021">
        <ele>1294.55</ele>
        <time>2020-09-17T14:04:14Z</time>
      </trkpt>
      <trkpt lat="44.73745" lon="5.88047">
        <ele>1291.19</ele>
        <time>2020-09-17T14:04:29Z</time>
      </trkpt>
      <trkpt lat="44.73745" lon="5.88072">
        <ele>1288.3</ele>
        <time>2020-09-17T14:04:44Z</time>
      </trkpt>
      <trkpt lat="44.73748" lon="5.88084">
        <ele>1286.38</ele>
        <time>2020-09-17T14:04:52Z</time>
      </trkpt>
      <trkpt lat="44.7375" lon="5.88103">
        <ele>1283.02</ele>
        <time>2020-09-17T14:05:04Z</time>
      </trkpt>
      <trkpt lat="44.73748" lon="5.88125">
        <ele>1280.13</ele>
        <time>2020-09-17T14:05:17Z</time>
      </trkpt>
      <trkpt lat="44.73744" lon="5.88144">
        <ele>1276.77</ele>
        <time>2020-09-17T14:05:29Z</time>
      </trkpt>
      <trkpt lat="44.73743" lon="5.88155">
        <ele>1273.4</ele>
        <time>2020-09-17T14:05:36Z</time>
      </trkpt>
      <trkpt lat="44.73743" lon="5.88157">
        <ele>1272.92</ele>
        <time>2020-09-17T14:05:37Z</time>
      </trkpt>
      <trkpt lat="44.73743" lon="5.88163">
        <ele>1268.6</ele>
        <time>2020-09-17T14:05:41Z</time>
      </trkpt>
      <trkpt lat="44.73743" lon="5.88168">
        <ele>1267.16</ele>
        <time>2020-09-17T14:05:44Z</time>
      </trkpt>
      <trkpt lat="44.73743" lon="5.88178">
        <ele>1271</ele>
        <time>2020-09-17T14:05:50Z</time>
      </trkpt>
      <trkpt lat="44.73743" lon="5.88198">
        <ele>1267.16</ele>
        <time>2020-09-17T14:06:02Z</time>
      </trkpt>
      <trkpt lat="44.73743" lon="5.88201">
        <ele>1262.83</ele>
        <time>2020-09-17T14:06:04Z</time>
      </trkpt>
      <trkpt lat="44.73743" lon="5.88207">
        <ele>1266.67</ele>
        <time>2020-09-17T14:06:08Z</time>
      </trkpt>
      <trkpt lat="44.73741" lon="5.88221">
        <ele>1264.27</ele>
        <time>2020-09-17T14:06:18Z</time>
      </trkpt>
      <trkpt lat="44.73738" lon="5.88236">
        <ele>1261.39</ele>
        <time>2020-09-17T14:06:28Z</time>
      </trkpt>
      <trkpt lat="44.73735" lon="5.88255">
        <ele>1258.02</ele>
        <time>2020-09-17T14:06:40Z</time>
      </trkpt>
      <trkpt lat="44.73733" lon="5.88269">
        <ele>1256.1</ele>
        <time>2020-09-17T14:06:50Z</time>
      </trkpt>
      <trkpt lat="44.73733" lon="5.8827">
        <ele>1255.62</ele>
        <time>2020-09-17T14:06:51Z</time>
      </trkpt>
      <trkpt lat="44.73732" lon="5.8829">
        <ele>1252.74</ele>
        <time>2020-09-17T14:07:04Z</time>
      </trkpt>
      <trkpt lat="44.73733" lon="5.88319">
        <ele>1249.37</ele>
        <time>2020-09-17T14:07:21Z</time>
      </trkpt>
      <trkpt lat="44.7373" lon="5.88343">
        <ele>1246.49</ele>
        <time>2020-09-17T14:07:36Z</time>
      </trkpt>
      <trkpt lat="44.73721" lon="5.88359">
        <ele>1243.6</ele>
        <time>2020-09-17T14:07:48Z</time>
      </trkpt>
      <trkpt lat="44.73712" lon="5.88373">
        <ele>1240.24</ele>
        <time>2020-09-17T14:08:00Z</time>
      </trkpt>
      <trkpt lat="44.73701" lon="5.88388">
        <ele>1237.35</ele>
        <time>2020-09-17T14:08:13Z</time>
      </trkpt>
      <trkpt lat="44.73692" lon="5.88401">
        <ele>1234.47</ele>
        <time>2020-09-17T14:08:25Z</time>
      </trkpt>
      <trkpt lat="44.73685" lon="5.88417">
        <ele>1231.59</ele>
        <time>2020-09-17T14:08:37Z</time>
      </trkpt>
      <trkpt lat="44.73677" lon="5.8843">
        <ele>1228.22</ele>
        <time>2020-09-17T14:08:48Z</time>
      </trkpt>
      <trkpt lat="44.73667" lon="5.88446">
        <ele>1224.86</ele>
        <time>2020-09-17T14:09:01Z</time>
      </trkpt>
      <trkpt lat="44.73662" lon="5.88461">
        <ele>1221.97</ele>
        <time>2020-09-17T14:09:11Z</time>
      </trkpt>
      <trkpt lat="44.73653" lon="5.88474">
        <ele>1218.61</ele>
        <time>2020-09-17T14:09:23Z</time>
      </trkpt>
      <trkpt lat="44.73648" lon="5.88479">
        <ele>1217.65</ele>
        <time>2020-09-17T14:09:28Z</time>
      </trkpt>
      <trkpt lat="44.73648" lon="5.88481">
        <ele>1217.17</ele>
        <time>2020-09-17T14:09:29Z</time>
      </trkpt>
      <trkpt lat="44.73645" lon="5.88484">
        <ele>1216.21</ele>
        <time>2020-09-17T14:09:33Z</time>
      </trkpt>
      <trkpt lat="44.73644" lon="5.88485">
        <ele>1215.72</ele>
        <time>2020-09-17T14:09:34Z</time>
      </trkpt>
      <trkpt lat="44.73634" lon="5.88495">
        <ele>1212.84</ele>
        <time>2020-09-17T14:09:44Z</time>
      </trkpt>
      <trkpt lat="44.73623" lon="5.88511">
        <ele>1209.48</ele>
        <time>2020-09-17T14:09:59Z</time>
      </trkpt>
      <trkpt lat="44.73621" lon="5.88513">
        <ele>1206.59</ele>
        <time>2020-09-17T14:10:26Z</time>
      </trkpt>
      <trkpt lat="44.73614" lon="5.88521">
        <ele>1208.03</ele>
        <time>2020-09-17T14:10:35Z</time>
      </trkpt>
      <trkpt lat="44.73613" lon="5.88522">
        <ele>1208.03</ele>
        <time>2020-09-17T14:10:36Z</time>
      </trkpt>
      <trkpt lat="44.73599" lon="5.8853">
        <ele>1204.67</ele>
        <time>2020-09-17T14:10:49Z</time>
      </trkpt>
      <trkpt lat="44.73589" lon="5.8853">
        <ele>1202.75</ele>
        <time>2020-09-17T14:11:06Z</time>
      </trkpt>
      <trkpt lat="44.73585" lon="5.8853">
        <ele>1203.23</ele>
        <time>2020-09-17T14:11:22Z</time>
      </trkpt>
      <trkpt lat="44.73582" lon="5.88526">
        <ele>1203.71</ele>
        <time>2020-09-17T14:11:39Z</time>
      </trkpt>
      <trkpt lat="44.73579" lon="5.88524">
        <ele>1203.71</ele>
        <time>2020-09-17T14:11:56Z</time>
      </trkpt>
      <trkpt lat="44.7357" lon="5.88518">
        <ele>1204.19</ele>
        <time>2020-09-17T14:12:11Z</time>
      </trkpt>
      <trkpt lat="44.73558" lon="5.88517">
        <ele>1205.63</ele>
        <time>2020-09-17T14:12:37Z</time>
      </trkpt>
      <trkpt lat="44.73556" lon="5.88515">
        <ele>1205.63</ele>
        <time>2020-09-17T14:12:45Z</time>
      </trkpt>
      <trkpt lat="44.73549" lon="5.88514">
        <ele>1205.63</ele>
        <time>2020-09-17T14:12:55Z</time>
      </trkpt>
      <trkpt lat="44.73548" lon="5.88514">
        <ele>1205.63</ele>
        <time>2020-09-17T14:12:56Z</time>
      </trkpt>
      <trkpt lat="44.73541" lon="5.8851">
        <ele>1204.67</ele>
        <time>2020-09-17T14:13:11Z</time>
      </trkpt>
      <trkpt lat="44.73541" lon="5.88515">
        <ele>1204.67</ele>
        <time>2020-09-17T14:13:56Z</time>
      </trkpt>
      <trkpt lat="44.73539" lon="5.88514">
        <ele>1205.15</ele>
        <time>2020-09-17T14:14:39Z</time>
      </trkpt>
      <trkpt lat="44.73542" lon="5.88514">
        <ele>1205.15</ele>
        <time>2020-09-17T14:14:53Z</time>
      </trkpt>
      <trkpt lat="44.73542" lon="5.88515">
        <ele>1205.15</ele>
        <time>2020-09-17T14:14:54Z</time>
      </trkpt>
      <trkpt lat="44.73541" lon="5.8852">
        <ele>1205.15</ele>
        <time>2020-09-17T14:15:22Z</time>
      </trkpt>
      <trkpt lat="44.73536" lon="5.88521">
        <ele>1205.15</ele>
        <time>2020-09-17T14:15:28Z</time>
      </trkpt>
      <trkpt lat="44.73526" lon="5.88528">
        <ele>1204.19</ele>
        <time>2020-09-17T14:15:41Z</time>
      </trkpt>
      <trkpt lat="44.73523" lon="5.88531">
        <ele>1203.23</ele>
        <time>2020-09-17T14:15:45Z</time>
      </trkpt>
      <trkpt lat="44.73522" lon="5.88532">
        <ele>1203.23</ele>
        <time>2020-09-17T14:15:46Z</time>
      </trkpt>
      <trkpt lat="44.73522" lon="5.88533">
        <ele>1203.23</ele>
        <time>2020-09-17T14:15:47Z</time>
      </trkpt>
      <trkpt lat="44.73521" lon="5.88534">
        <ele>1202.75</ele>
        <time>2020-09-17T14:15:48Z</time>
      </trkpt>
      <trkpt lat="44.7352" lon="5.88536">
        <ele>1202.75</ele>
        <time>2020-09-17T14:15:49Z</time>
      </trkpt>
      <trkpt lat="44.7352" lon="5.88537">
        <ele>1202.27</ele>
        <time>2020-09-17T14:15:50Z</time>
      </trkpt>
      <trkpt lat="44.73519" lon="5.88538">
        <ele>1201.79</ele>
        <time>2020-09-17T14:15:51Z</time>
      </trkpt>
      <trkpt lat="44.73519" lon="5.8854">
        <ele>1201.79</ele>
        <time>2020-09-17T14:15:52Z</time>
      </trkpt>
      <trkpt lat="44.73518" lon="5.88542">
        <ele>1201.79</ele>
        <time>2020-09-17T14:15:53Z</time>
      </trkpt>
      <trkpt lat="44.73517" lon="5.88548">
        <ele>1201.3</ele>
        <time>2020-09-17T14:15:57Z</time>
      </trkpt>
      <trkpt lat="44.73517" lon="5.88549">
        <ele>1201.3</ele>
        <time>2020-09-17T14:15:58Z</time>
      </trkpt>
      <trkpt lat="44.73517" lon="5.88558">
        <ele>1200.82</ele>
        <time>2020-09-17T14:16:03Z</time>
      </trkpt>
      <trkpt lat="44.73513" lon="5.88583">
        <ele>1200.82</ele>
        <time>2020-09-17T14:16:20Z</time>
      </trkpt>
      <trkpt lat="44.73512" lon="5.88589">
        <ele>1200.82</ele>
        <time>2020-09-17T14:16:35Z</time>
      </trkpt>
      <trkpt lat="44.73513" lon="5.88607">
        <ele>1198.42</ele>
        <time>2020-09-17T14:16:52Z</time>
      </trkpt>
      <trkpt lat="44.73514" lon="5.88631">
        <ele>1195.54</ele>
        <time>2020-09-17T14:17:11Z</time>
      </trkpt>
      <trkpt lat="44.73516" lon="5.88649">
        <ele>1192.65</ele>
        <time>2020-09-17T14:17:26Z</time>
      </trkpt>
      <trkpt lat="44.73516" lon="5.88668">
        <ele>1189.29</ele>
        <time>2020-09-17T14:17:38Z</time>
      </trkpt>
      <trkpt lat="44.73515" lon="5.88672">
        <ele>1188.81</ele>
        <time>2020-09-17T14:17:40Z</time>
      </trkpt>
      <trkpt lat="44.73511" lon="5.8869">
        <ele>1185.92</ele>
        <time>2020-09-17T14:17:59Z</time>
      </trkpt>
      <trkpt lat="44.73513" lon="5.88706">
        <ele>1183.04</ele>
        <time>2020-09-17T14:18:19Z</time>
      </trkpt>
      <trkpt lat="44.73521" lon="5.88717">
        <ele>1179.67</ele>
        <time>2020-09-17T14:18:36Z</time>
      </trkpt>
      <trkpt lat="44.73526" lon="5.88729">
        <ele>1176.31</ele>
        <time>2020-09-17T14:18:48Z</time>
      </trkpt>
      <trkpt lat="44.73534" lon="5.88731">
        <ele>1173.43</ele>
        <time>2020-09-17T14:19:01Z</time>
      </trkpt>
      <trkpt lat="44.73539" lon="5.88728">
        <ele>1170.06</ele>
        <time>2020-09-17T14:19:08Z</time>
      </trkpt>
      <trkpt lat="44.73549" lon="5.88714">
        <ele>1169.58</ele>
        <time>2020-09-17T14:19:24Z</time>
      </trkpt>
      <trkpt lat="44.73549" lon="5.88726">
        <ele>1168.14</ele>
        <time>2020-09-17T14:19:39Z</time>
      </trkpt>
      <trkpt lat="44.73551" lon="5.88751">
        <ele>1167.66</ele>
        <time>2020-09-17T14:19:59Z</time>
      </trkpt>
      <trkpt lat="44.7355" lon="5.88779">
        <ele>1164.77</ele>
        <time>2020-09-17T14:20:19Z</time>
      </trkpt>
      <trkpt lat="44.73553" lon="5.88812">
        <ele>1163.33</ele>
        <time>2020-09-17T14:20:42Z</time>
      </trkpt>
      <trkpt lat="44.73556" lon="5.88846">
        <ele>1159.97</ele>
        <time>2020-09-17T14:21:06Z</time>
      </trkpt>
      <trkpt lat="44.73548" lon="5.88875">
        <ele>1157.08</ele>
        <time>2020-09-17T14:21:22Z</time>
      </trkpt>
      <trkpt lat="44.73541" lon="5.88895">
        <ele>1153.72</ele>
        <time>2020-09-17T14:21:36Z</time>
      </trkpt>
      <trkpt lat="44.73538" lon="5.88895">
        <ele>1153.24</ele>
        <time>2020-09-17T14:21:38Z</time>
      </trkpt>
      <trkpt lat="44.73526" lon="5.88905">
        <ele>1150.84</ele>
        <time>2020-09-17T14:21:55Z</time>
      </trkpt>
      <trkpt lat="44.73523" lon="5.88923">
        <ele>1147.47</ele>
        <time>2020-09-17T14:22:11Z</time>
      </trkpt>
      <trkpt lat="44.73518" lon="5.88942">
        <ele>1144.59</ele>
        <time>2020-09-17T14:22:24Z</time>
      </trkpt>
      <trkpt lat="44.73512" lon="5.88957">
        <ele>1141.22</ele>
        <time>2020-09-17T14:22:37Z</time>
      </trkpt>
      <trkpt lat="44.73512" lon="5.88957">
        <ele>1141.22</ele>
        <time>2020-09-17T14:22:38Z</time>
      </trkpt>
      <trkpt lat="44.73498" lon="5.88973">
        <ele>1138.34</ele>
        <time>2020-09-17T14:22:56Z</time>
      </trkpt>
      <trkpt lat="44.73496" lon="5.88985">
        <ele>1135.94</ele>
        <time>2020-09-17T14:23:04Z</time>
      </trkpt>
      <trkpt lat="44.73493" lon="5.8899">
        <ele>1134.97</ele>
        <time>2020-09-17T14:23:08Z</time>
      </trkpt>
      <trkpt lat="44.73485" lon="5.89001">
        <ele>1131.61</ele>
        <time>2020-09-17T14:23:18Z</time>
      </trkpt>
      <trkpt lat="44.73463" lon="5.89017">
        <ele>1130.17</ele>
        <time>2020-09-17T14:23:41Z</time>
      </trkpt>
      <trkpt lat="44.73462" lon="5.89056">
        <ele>1127.28</ele>
        <time>2020-09-17T14:24:05Z</time>
      </trkpt>
      <trkpt lat="44.73454" lon="5.89082">
        <ele>1124.4</ele>
        <time>2020-09-17T14:24:20Z</time>
      </trkpt>
      <trkpt lat="44.73456" lon="5.89106">
        <ele>1121.03</ele>
        <time>2020-09-17T14:24:36Z</time>
      </trkpt>
      <trkpt lat="44.73463" lon="5.89118">
        <ele>1118.15</ele>
        <time>2020-09-17T14:24:47Z</time>
      </trkpt>
      <trkpt lat="44.73464" lon="5.89137">
        <ele>1114.79</ele>
        <time>2020-09-17T14:25:00Z</time>
      </trkpt>
      <trkpt lat="44.73454" lon="5.89145">
        <ele>1113.82</ele>
        <time>2020-09-17T14:25:10Z</time>
      </trkpt>
      <trkpt lat="44.7345" lon="5.89148">
        <ele>1113.34</ele>
        <time>2020-09-17T14:25:13Z</time>
      </trkpt>
      <trkpt lat="44.73435" lon="5.89174">
        <ele>1109.98</ele>
        <time>2020-09-17T14:25:34Z</time>
      </trkpt>
      <trkpt lat="44.73436" lon="5.89176">
        <ele>1109.98</ele>
        <time>2020-09-17T14:25:35Z</time>
      </trkpt>
      <trkpt lat="44.73435" lon="5.89201">
        <ele>1106.61</ele>
        <time>2020-09-17T14:25:50Z</time>
      </trkpt>
      <trkpt lat="44.73435" lon="5.89219">
        <ele>1103.73</ele>
        <time>2020-09-17T14:26:01Z</time>
      </trkpt>
      <trkpt lat="44.73429" lon="5.89238">
        <ele>1100.37</ele>
        <time>2020-09-17T14:26:13Z</time>
      </trkpt>
      <trkpt lat="44.73429" lon="5.89242">
        <ele>1099.89</ele>
        <time>2020-09-17T14:26:15Z</time>
      </trkpt>
      <trkpt lat="44.73425" lon="5.89251">
        <ele>1099.4</ele>
        <time>2020-09-17T14:26:19Z</time>
      </trkpt>
      <trkpt lat="44.73426" lon="5.89255">
        <ele>1097.96</ele>
        <time>2020-09-17T14:26:22Z</time>
      </trkpt>
      <trkpt lat="44.73427" lon="5.89256">
        <ele>1097.96</ele>
        <time>2020-09-17T14:26:23Z</time>
      </trkpt>
      <trkpt lat="44.73429" lon="5.89256">
        <ele>1097.48</ele>
        <time>2020-09-17T14:26:24Z</time>
      </trkpt>
      <trkpt lat="44.7343" lon="5.89256">
        <ele>1097.48</ele>
        <time>2020-09-17T14:26:25Z</time>
      </trkpt>
      <trkpt lat="44.73431" lon="5.89257">
        <ele>1097</ele>
        <time>2020-09-17T14:26:26Z</time>
      </trkpt>
      <trkpt lat="44.7345" lon="5.89251">
        <ele>1095.08</ele>
        <time>2020-09-17T14:26:44Z</time>
      </trkpt>
      <trkpt lat="44.73451" lon="5.89253">
        <ele>1094.6</ele>
        <time>2020-09-17T14:27:01Z</time>
      </trkpt>
      <trkpt lat="44.73452" lon="5.89253">
        <ele>1094.12</ele>
        <time>2020-09-17T14:27:23Z</time>
      </trkpt>
      <trkpt lat="44.73451" lon="5.89253">
        <ele>1094.12</ele>
        <time>2020-09-17T14:27:47Z</time>
      </trkpt>
      <trkpt lat="44.7345" lon="5.89252">
        <ele>1094.12</ele>
        <time>2020-09-17T14:28:18Z</time>
      </trkpt>
      <trkpt lat="44.73451" lon="5.89253">
        <ele>1094.12</ele>
        <time>2020-09-17T14:28:41Z</time>
      </trkpt>
      <trkpt lat="44.73454" lon="5.89259">
        <ele>1094.12</ele>
        <time>2020-09-17T14:29:05Z</time>
      </trkpt>
      <trkpt lat="44.73461" lon="5.89269">
        <ele>1091.23</ele>
        <time>2020-09-17T14:29:17Z</time>
      </trkpt>
      <trkpt lat="44.73463" lon="5.89271">
        <ele>1089.79</ele>
        <time>2020-09-17T14:29:21Z</time>
      </trkpt>
      <trkpt lat="44.73463" lon="5.89275">
        <ele>1088.83</ele>
        <time>2020-09-17T14:29:24Z</time>
      </trkpt>
      <trkpt lat="44.73463" lon="5.89276">
        <ele>1088.83</ele>
        <time>2020-09-17T14:29:25Z</time>
      </trkpt>
      <trkpt lat="44.73463" lon="5.89278">
        <ele>1088.35</ele>
        <time>2020-09-17T14:29:26Z</time>
      </trkpt>
      <trkpt lat="44.73462" lon="5.8928">
        <ele>1088.35</ele>
        <time>2020-09-17T14:29:27Z</time>
      </trkpt>
      <trkpt lat="44.73462" lon="5.89281">
        <ele>1087.87</ele>
        <time>2020-09-17T14:29:28Z</time>
      </trkpt>
      <trkpt lat="44.73461" lon="5.89283">
        <ele>1087.87</ele>
        <time>2020-09-17T14:29:29Z</time>
      </trkpt>
      <trkpt lat="44.73445" lon="5.89301">
        <ele>1085.47</ele>
        <time>2020-09-17T14:29:47Z</time>
      </trkpt>
      <trkpt lat="44.73438" lon="5.89306">
        <ele>1084.5</ele>
        <time>2020-09-17T14:29:54Z</time>
      </trkpt>
      <trkpt lat="44.73419" lon="5.89325">
        <ele>1082.58</ele>
        <time>2020-09-17T14:30:13Z</time>
      </trkpt>
      <trkpt lat="44.73413" lon="5.89331">
        <ele>1082.58</ele>
        <time>2020-09-17T14:30:19Z</time>
      </trkpt>
      <trkpt lat="44.73412" lon="5.89332">
        <ele>1082.58</ele>
        <time>2020-09-17T14:30:20Z</time>
      </trkpt>
      <trkpt lat="44.73411" lon="5.89333">
        <ele>1082.58</ele>
        <time>2020-09-17T14:30:21Z</time>
      </trkpt>
      <trkpt lat="44.7341" lon="5.89334">
        <ele>1082.58</ele>
        <time>2020-09-17T14:30:22Z</time>
      </trkpt>
      <trkpt lat="44.73409" lon="5.89335">
        <ele>1082.58</ele>
        <time>2020-09-17T14:30:23Z</time>
      </trkpt>
      <trkpt lat="44.73408" lon="5.89336">
        <ele>1082.58</ele>
        <time>2020-09-17T14:30:24Z</time>
      </trkpt>
      <trkpt lat="44.73408" lon="5.89337">
        <ele>1082.1</ele>
        <time>2020-09-17T14:30:25Z</time>
      </trkpt>
      <trkpt lat="44.73407" lon="5.89338">
        <ele>1082.1</ele>
        <time>2020-09-17T14:30:26Z</time>
      </trkpt>
      <trkpt lat="44.73406" lon="5.8934">
        <ele>1082.1</ele>
        <time>2020-09-17T14:30:27Z</time>
      </trkpt>
      <trkpt lat="44.73405" lon="5.89341">
        <ele>1082.1</ele>
        <time>2020-09-17T14:30:28Z</time>
      </trkpt>
      <trkpt lat="44.73404" lon="5.89342">
        <ele>1082.1</ele>
        <time>2020-09-17T14:30:29Z</time>
      </trkpt>
      <trkpt lat="44.73403" lon="5.89343">
        <ele>1082.1</ele>
        <time>2020-09-17T14:30:30Z</time>
      </trkpt>
      <trkpt lat="44.73403" lon="5.89345">
        <ele>1082.1</ele>
        <time>2020-09-17T14:30:31Z</time>
      </trkpt>
      <trkpt lat="44.73401" lon="5.89347">
        <ele>1081.62</ele>
        <time>2020-09-17T14:30:33Z</time>
      </trkpt>
      <trkpt lat="44.734" lon="5.89349">
        <ele>1081.62</ele>
        <time>2020-09-17T14:30:34Z</time>
      </trkpt>
      <trkpt lat="44.734" lon="5.8935">
        <ele>1081.62</ele>
        <time>2020-09-17T14:30:35Z</time>
      </trkpt>
      <trkpt lat="44.73394" lon="5.89381">
        <ele>1080.18</ele>
        <time>2020-09-17T14:30:55Z</time>
      </trkpt>
      <trkpt lat="44.73391" lon="5.89411">
        <ele>1079.22</ele>
        <time>2020-09-17T14:31:13Z</time>
      </trkpt>
      <trkpt lat="44.73391" lon="5.89412">
        <ele>1079.22</ele>
        <time>2020-09-17T14:31:14Z</time>
      </trkpt>
      <trkpt lat="44.7339" lon="5.89413">
        <ele>1078.74</ele>
        <time>2020-09-17T14:31:15Z</time>
      </trkpt>
      <trkpt lat="44.7339" lon="5.89414">
        <ele>1078.74</ele>
        <time>2020-09-17T14:31:16Z</time>
      </trkpt>
      <trkpt lat="44.73389" lon="5.89416">
        <ele>1078.74</ele>
        <time>2020-09-17T14:31:17Z</time>
      </trkpt>
      <trkpt lat="44.73378" lon="5.89438">
        <ele>1077.29</ele>
        <time>2020-09-17T14:31:36Z</time>
      </trkpt>
      <trkpt lat="44.73359" lon="5.89452">
        <ele>1076.33</ele>
        <time>2020-09-17T14:31:55Z</time>
      </trkpt>
      <trkpt lat="44.73339" lon="5.89466">
        <ele>1075.37</ele>
        <time>2020-09-17T14:32:15Z</time>
      </trkpt>
      <trkpt lat="44.73326" lon="5.89483">
        <ele>1074.89</ele>
        <time>2020-09-17T14:32:31Z</time>
      </trkpt>
      <trkpt lat="44.73304" lon="5.89495">
        <ele>1073.45</ele>
        <time>2020-09-17T14:32:49Z</time>
      </trkpt>
      <trkpt lat="44.73289" lon="5.89504">
        <ele>1072.49</ele>
        <time>2020-09-17T14:33:04Z</time>
      </trkpt>
      <trkpt lat="44.73288" lon="5.89505">
        <ele>1072.01</ele>
        <time>2020-09-17T14:33:05Z</time>
      </trkpt>
      <trkpt lat="44.73287" lon="5.89506">
        <ele>1072.01</ele>
        <time>2020-09-17T14:33:06Z</time>
      </trkpt>
      <trkpt lat="44.73285" lon="5.89506">
        <ele>1072.01</ele>
        <time>2020-09-17T14:33:07Z</time>
      </trkpt>
      <trkpt lat="44.73284" lon="5.89507">
        <ele>1072.01</ele>
        <time>2020-09-17T14:33:08Z</time>
      </trkpt>
      <trkpt lat="44.73278" lon="5.89511">
        <ele>1072.01</ele>
        <time>2020-09-17T14:33:14Z</time>
      </trkpt>
      <trkpt lat="44.73277" lon="5.89511">
        <ele>1071.53</ele>
        <time>2020-09-17T14:33:15Z</time>
      </trkpt>
      <trkpt lat="44.73264" lon="5.8954">
        <ele>1070.57</ele>
        <time>2020-09-17T14:33:37Z</time>
      </trkpt>
      <trkpt lat="44.73255" lon="5.89563">
        <ele>1069.6</ele>
        <time>2020-09-17T14:33:53Z</time>
      </trkpt>
      <trkpt lat="44.73241" lon="5.89582">
        <ele>1067.68</ele>
        <time>2020-09-17T14:34:12Z</time>
      </trkpt>
      <trkpt lat="44.73221" lon="5.89601">
        <ele>1066.24</ele>
        <time>2020-09-17T14:34:30Z</time>
      </trkpt>
      <trkpt lat="44.73215" lon="5.89606">
        <ele>1065.76</ele>
        <time>2020-09-17T14:34:36Z</time>
      </trkpt>
      <trkpt lat="44.73201" lon="5.89623">
        <ele>1063.84</ele>
        <time>2020-09-17T14:34:54Z</time>
      </trkpt>
      <trkpt lat="44.73201" lon="5.89627">
        <ele>1063.84</ele>
        <time>2020-09-17T14:34:57Z</time>
      </trkpt>
      <trkpt lat="44.73201" lon="5.89635">
        <ele>1063.36</ele>
        <time>2020-09-17T14:35:03Z</time>
      </trkpt>
      <trkpt lat="44.73199" lon="5.89638">
        <ele>1063.36</ele>
        <time>2020-09-17T14:35:05Z</time>
      </trkpt>
      <trkpt lat="44.73198" lon="5.89639">
        <ele>1063.36</ele>
        <time>2020-09-17T14:35:06Z</time>
      </trkpt>
      <trkpt lat="44.73196" lon="5.8964">
        <ele>1062.87</ele>
        <time>2020-09-17T14:35:18Z</time>
      </trkpt>
      <trkpt lat="44.73195" lon="5.8964">
        <ele>1062.87</ele>
        <time>2020-09-17T14:35:19Z</time>
      </trkpt>
      <trkpt lat="44.73194" lon="5.8964">
        <ele>1062.87</ele>
        <time>2020-09-17T14:35:20Z</time>
      </trkpt>
      <trkpt lat="44.73193" lon="5.89641">
        <ele>1062.87</ele>
        <time>2020-09-17T14:35:21Z</time>
      </trkpt>
      <trkpt lat="44.73192" lon="5.89642">
        <ele>1062.87</ele>
        <time>2020-09-17T14:35:22Z</time>
      </trkpt>
      <trkpt lat="44.73183" lon="5.89643">
        <ele>1062.87</ele>
        <time>2020-09-17T14:35:37Z</time>
      </trkpt>
      <trkpt lat="44.73185" lon="5.89642">
        <ele>1063.36</ele>
        <time>2020-09-17T14:35:52Z</time>
      </trkpt>
      <trkpt lat="44.7319" lon="5.89642">
        <ele>1063.36</ele>
        <time>2020-09-17T14:36:03Z</time>
      </trkpt>
      <trkpt lat="44.73198" lon="5.89637">
        <ele>1063.36</ele>
        <time>2020-09-17T14:36:19Z</time>
      </trkpt>
      <trkpt lat="44.73198" lon="5.89637">
        <ele>1062.87</ele>
        <time>2020-09-17T14:36:23Z</time>
      </trkpt>
      <trkpt lat="44.73199" lon="5.89637">
        <ele>1059.51</ele>
        <time>2020-09-17T14:36:32Z</time>
      </trkpt>
      <trkpt lat="44.732" lon="5.89637">
        <ele>1059.03</ele>
        <time>2020-09-17T14:36:34Z</time>
      </trkpt>
      <trkpt lat="44.732" lon="5.89637">
        <ele>1060.47</ele>
        <time>2020-09-17T14:36:37Z</time>
      </trkpt>
    </trkseg>
  </trk>
</gpx>